[[{"header":{"parameterUnit":"m.s-1","parameterCategory":1,"la1":30.6,"la2":28.766,"lo1":-90.7593,"lo2":-88.6598,"dx":0.0162,"dy":0.0183,"nx":116,"ny":114,"refTime":"2023-02-14T18:00:00:Z","depth":0,"parameterNumber":2,"parameterNumberName":"U-component_of_WINDS"},"data":[0.0,0.0,0.0,0.0,0.0,0.0,0.0,0.0,0.0,0.0,0.0,0.0,0.0,0.0,0.0,0.0,0.0,0.0,0.0,0.0,0.0,0.0,0.0,0.0,0.0,0.0,0.0,0.0,0.0,0.0,0.0,0.0,0.0,0.0,0.0,0.0,0.0,0.0,0.0,0.0,0.0,0.0,0.0,0.0,0.0,0.0,0.0,0.0,0.0,0.0,0.0,0.0,0.0,0.0,0.0,0.0,0.0,0.0,0.0,0.0,0.0,0.0,0.0,0.0,0.0,0.0,0.0,0.0,0.0,0.0,0.0,0.0,0.0,0.0,0.0,0.0,0.0,0.0,0.0,0.0,0.0,0.0,0.0,0.0,0.0,0.0,0.0,0.0,0.0,0.0,0.0,0.0,0.0,0.0,0.0,0.0,0.0,0.0,0.0,0.0,0.0,0.0,0.0,0.0,0.0,0.0,0.0,0.0,0.0,0.0,0.0,0.0,0.0,0.0,0.0,0.0,0.0,0.0,0.0,0.0,0.0,0.0,0.0,0.0,0.0,0.0,0.0,0.0,0.0,0.0,0.0,0.0,0.0,0.0,0.0,0.0,0.0,0.0,0.0,0.0,0.0,0.0,0.0,0.0,0.0,0.0,0.0,0.0,0.0,0.0,0.0,0.0,0.0,0.0,0.0,0.0,0.0,0.0,0.0,0.0,0.0,0.0,0.0,0.0,0.0,0.0,0.0,0.0,0.0,0.0,0.0,0.0,0.0,0.0,0.0,0.0,0.0,0.0,0.0,0.0,0.0,0.0,0.0,0.0,0.0,0.0,0.0,0.0,0.0,0.0,0.0,0.0,0.0,0.0,0.0,0.0,0.0,0.0,0.0,0.0,0.0,0.0,0.0,0.0,0.0,0.0,0.0,0.0,0.0,0.0,0.0,0.0,0.0,0.0,0.0,0.0,0.0,0.0,0.0,0.0,0.0,0.0,0.0,0.0,0.0,0.0,0.0,0.0,0.0,0.0,0.0,0.0,0.0,0.0,0.0,0.0,0.0,0.0,0.0,0.0,0.0,0.0,0.0,0.0,0.0,0.0,0.0,0.0,0.0,0.0,0.0,0.0,0.0,0.0,0.0,0.0,0.0,0.0,0.0,0.0,0.0,0.0,0.0,0.0,0.0,0.0,0.0,0.0,0.0,0.0,0.0,0.0,0.0,0.0,0.0,0.0,0.0,0.0,0.0,0.0,0.0,0.0,0.0,0.0,0.0,0.0,0.0,0.0,0.0,0.0,0.0,0.0,0.0,0.0,0.0,0.0,0.0,0.0,0.0,0.0,0.0,0.0,0.0,0.0,0.0,0.0,0.0,0.0,0.0,0.0,0.0,0.0,0.0,0.0,0.0,0.0,0.0,0.0,0.0,0.0,0.0,0.0,0.0,0.0,0.0,0.0,0.0,0.0,0.0,0.0,0.0,0.0,0.0,0.0,0.0,0.0,0.0,0.0,0.0,0.0,0.0,0.0,0.0,0.0,0.0,0.0,0.0,0.0,0.0,0.0,0.0,0.0,0.0,0.0,0.0,0.0,0.0,0.0,0.0,0.0,0.0,0.0,0.0,0.0,0.0,0.0,0.0,0.0,0.0,0.0,0.0,0.0,0.0,0.0,0.0,0.0,0.0,0.0,0.0,0.0,0.0,0.0,0.0,0.0,0.0,0.0,0.0,0.0,0.0,0.0,0.0,0.0,0.0,0.0,0.0,0.0,0.0,0.0,0.0,0.0,0.0,0.0,0.0,0.0,0.0,0.0,0.0,0.0,0.0,0.0,0.0,0.0,0.0,0.0,0.0,0.0,0.0,0.0,0.0,0.0,0.0,0.0,0.0,0.0,0.0,0.0,0.0,0.0,0.0,0.0,0.0,0.0,0.0,0.0,0.0,0.0,0.0,0.0,0.0,0.0,0.0,0.0,0.0,0.0,0.0,0.0,0.0,0.0,0.0,0.0,0.0,0.0,0.0,0.0,0.0,0.0,0.0,0.0,0.0,0.0,0.0,0.0,0.0,0.0,0.0,0.0,0.0,0.0,0.0,0.0,0.0,0.0,0.0,0.0,0.0,0.0,0.0,0.0,0.0,0.0,0.0,0.0,0.0,0.0,0.0,0.0,0.0,0.0,0.0,0.0,0.0,0.0,0.0,0.0,0.0,0.0,0.0,0.0,0.0,0.0,0.0,0.0,0.0,0.0,0.0,0.0,0.0,0.0,0.0,0.0,0.0,0.0,0.0,0.0,0.0,0.0,0.0,0.0,0.0,0.0,0.0,0.0,0.0,0.0,0.0,0.0,0.0,0.0,0.0,0.0,0.0,0.0,0.0,0.0,0.0,0.0,0.0,0.0,0.0,0.0,0.0,0.0,0.0,0.0,0.0,0.0,0.0,0.0,0.0,0.0,0.0,0.0,0.0,0.0,0.0,0.0,0.0,0.0,0.0,0.0,0.0,0.0,0.0,0.0,0.0,0.0,0.0,0.0,0.0,0.0,0.0,0.0,0.0,0.0,0.0,0.0,0.0,0.0,0.0,0.0,0.0,0.0,0.0,0.0,0.0,0.0,0.0,0.0,0.0,0.0,0.0,0.0,0.0,0.0,0.0,0.0,0.0,0.0,0.0,0.0,0.0,0.0,0.0,0.0,0.0,0.0,0.0,0.0,0.0,0.0,0.0,0.0,0.0,0.0,0.0,0.0,0.0,0.0,0.0,0.0,0.0,0.0,0.0,0.0,0.0,0.0,0.0,0.0,0.0,0.0,0.0,0.0,0.0,0.0,0.0,0.0,0.0,0.0,0.0,0.0,0.0,0.0,0.0,0.0,0.0,0.0,0.0,0.0,0.0,0.0,0.0,0.0,0.0,0.0,0.0,0.0,0.0,0.0,0.0,0.0,0.0,0.0,0.0,0.0,0.0,0.0,0.0,0.0,0.0,0.0,0.0,0.0,0.0,0.0,0.0,0.0,0.0,0.0,0.0,0.0,0.0,0.0,0.0,0.0,0.0,0.0,0.0,0.0,0.0,0.0,0.0,0.0,0.0,0.0,0.0,0.0,0.0,0.0,0.0,0.0,0.0,0.0,0.0,0.0,0.0,0.0,0.0,0.0,0.0,0.0,0.0,0.0,0.0,0.0,0.0,0.0,0.0,0.0,0.0,0.0,0.0,0.0,0.0,0.0,0.0,0.0,0.0,0.0,0.0,0.0,0.0,0.0,0.0,0.0,0.0,0.0,0.0,0.0,0.0,0.0,0.0,0.0,0.0,0.0,0.0,0.0,0.0,0.0,0.0,0.0,0.0,0.0,0.0,0.0,0.0,0.0,0.0,0.0,0.0,0.0,0.0,0.0,0.0,0.0,0.0,0.0,0.0,0.0,0.0,0.0,0.0,0.0,0.0,0.0,0.0,0.0,0.0,0.0,0.0,0.0,0.0,0.0,0.0,0.0,0.0,0.0,0.0,0.0,0.0,0.0,0.0,0.0,0.0,0.0,0.0,0.0,0.0,0.0,0.0,0.0,0.0,0.0,0.0,0.0,0.0,0.0,0.0,0.0,0.0,0.0,0.0,0.0,0.0,0.0,0.0,0.0,0.0,0.0,0.0,0.0,0.0,0.0,0.0,0.0,0.0,0.0,0.0,0.0,0.0,0.0,0.0,0.0,0.0,0.0,0.0,0.0,0.0,0.0,0.0,0.0,0.0,0.0,0.0,0.0,0.0,0.0,0.0,0.0,0.0,0.0,0.0,0.0,0.0,0.0,0.0,0.0,0.0,0.0,0.0,0.0,0.0,0.0,0.0,0.0,0.0,0.0,0.0,0.0,0.0,0.0,0.0,0.0,0.0,0.0,0.0,0.0,0.0,0.0,0.0,0.0,0.0,0.0,0.0,0.0,0.0,0.0,0.0,0.0,0.0,0.0,0.0,0.0,0.0,0.0,0.0,0.0,0.0,0.0,0.0,0.0,0.0,0.0,0.0,0.0,0.0,0.0,0.0,0.0,0.0,0.0,0.0,0.0,0.0,0.0,0.0,0.0,0.0,0.0,0.0,0.0,0.0,0.0,0.0,0.0,0.0,0.0,0.0,0.0,0.0,0.0,0.0,0.0,0.0,0.0,0.0,0.0,0.0,0.0,0.0,0.0,0.0,0.0,0.0,0.0,0.0,0.0,0.0,0.0,0.0,0.0,0.0,0.0,0.0,0.0,0.0,0.0,0.0,0.0,0.0,0.0,0.0,0.0,0.0,0.0,0.0,0.0,0.0,0.0,0.0,0.0,0.0,0.0,0.0,0.0,0.0,0.0,0.0,0.0,0.0,0.0,0.0,0.0,0.0,0.0,0.0,0.0,0.0,0.0,0.0,0.0,0.0,0.0,0.0,0.0,0.0,0.0,0.0,0.0,0.0,0.0,0.0,0.0,0.0,0.0,0.0,0.0,0.0,0.0,0.0,0.0,0.0,0.0,0.0,0.0,0.0,0.0,0.0,0.0,0.0,0.0,0.0,0.0,0.0,0.0,0.0,0.0,0.0,0.0,0.0,0.0,0.0,0.0,0.0,0.0,0.0,0.0,0.0,0.0,0.0,0.0,0.0,0.0,0.0,0.0,0.0,0.0,0.0,0.0,0.0,0.0,0.0,0.0,0.0,0.0,0.0,0.0,0.0,0.0,0.0,0.0,0.0,0.0,0.0,0.0,0.0,0.0,0.0,0.0,0.0,0.0,0.0,0.0,0.0,0.0,0.0,0.0,0.0,0.0,0.0,0.0,0.0,0.0,0.0,0.0,0.0,0.0,0.0,0.0,0.0,0.0,0.0,0.0,0.0,0.0,0.0,0.0,0.0,0.0,0.0,0.0,0.0,0.0,0.0,0.0,0.0,0.0,0.0,0.0,0.0,0.0,0.0,0.0,0.0,0.0,0.0,0.0,0.0,0.0,0.0,0.0,0.0,0.0,0.0,0.0,0.0,0.0,0.0,0.0,0.0,0.0,0.0,0.0,0.0,0.0,0.0,0.0,0.0,0.0,0.0,0.0,0.0,0.0,0.0,0.0,0.0,0.0,0.0,0.0,0.0,0.0,0.0,0.0,0.0,0.0,0.0,0.0,0.0,0.0,0.0,0.0,0.0,0.0,0.0,0.0,0.0,0.0,0.0,0.0,0.0,0.0,0.0,0.0,0.0,0.0,0.0,0.0,0.0,0.0,0.0,0.0,0.0,0.0,0.0,0.0,0.0,0.0,0.0,0.0,0.0,0.0,0.0,0.0,0.0,0.0,0.0,0.0,0.0,0.0,0.0,0.0,0.0,0.0,0.0,0.0,0.0,0.0,0.0,0.0,0.0,0.0,0.0,0.0,0.0,0.0,0.0,0.0,0.0,0.0,0.0,0.0,0.0,0.0,0.0,0.0,0.0,0.0,0.0,0.0,0.0,0.0,0.0,0.0,0.0,0.0,0.0,0.0,0.0,0.0,0.0,0.0,0.0,0.0,0.0,0.0,0.0,0.0,0.0,0.0,0.0,0.0,0.0,0.0,0.0,0.0,0.0,0.0,0.0,0.0,0.0,0.0,0.0,0.0,0.0,0.0,0.0,0.0,0.0,0.0,0.0,0.0,0.0,0.0,0.0,0.0,0.0,0.0,0.0,0.0,0.0,0.0,0.0,0.0,0.0,0.0,0.0,0.0,0.0,0.0,0.0,0.0,0.0,0.0,0.0,0.0,0.0,0.0,0.0,0.0,0.0,0.0,0.0,0.0,0.0,0.0,0.0,0.0,0.0,0.0,0.0,0.0,0.0,0.0,0.0,0.0,0.0,0.0,0.0,0.0,0.0,0.0,0.0,0.0,0.0,0.0,0.0,0.0,0.0,0.0,0.0,0.0,0.0,0.0,0.0,0.0,0.0,0.0,0.0,0.0,0.0,0.0,0.0,0.0,0.0,0.0,0.0,0.0,0.0,0.0,0.0,0.0,0.0,0.0,0.0,0.0,0.0,0.0,0.0,0.0,0.0,0.0,0.0,0.0,0.0,0.0,0.0,0.0,0.0,0.0,0.0,0.0,0.0,0.0,0.0,0.0,0.0,0.0,0.0,0.0,0.0,0.0,-7.9773,0.0,0.0,0.0,0.0,0.0,0.0,0.0,0.0,0.0,0.0,0.0,0.0,0.0,0.0,0.0,0.0,0.0,0.0,0.0,0.0,0.0,0.0,0.0,0.0,0.0,0.0,0.0,0.0,0.0,0.0,0.0,0.0,0.0,0.0,0.0,0.0,0.0,0.0,0.0,0.0,0.0,0.0,0.0,0.0,0.0,0.0,0.0,0.0,0.0,0.0,0.0,0.0,0.0,0.0,0.0,0.0,0.0,0.0,0.0,0.0,0.0,0.0,0.0,0.0,0.0,0.0,0.0,0.0,0.0,0.0,0.0,0.0,0.0,0.0,0.0,0.0,0.0,0.0,0.0,0.0,0.0,0.0,0.0,0.0,0.0,0.0,0.0,0.0,0.0,0.0,0.0,0.0,0.0,0.0,0.0,0.0,0.0,0.0,0.0,0.0,0.0,0.0,0.0,0.0,0.0,0.0,0.0,0.0,0.0,0.0,0.0,0.0,0.0,0.0,0.0,0.0,-7.9743,0.0,0.0,0.0,0.0,0.0,0.0,0.0,0.0,0.0,0.0,0.0,0.0,0.0,0.0,0.0,0.0,0.0,0.0,0.0,0.0,0.0,0.0,0.0,0.0,0.0,0.0,0.0,0.0,0.0,0.0,0.0,0.0,0.0,0.0,0.0,0.0,0.0,0.0,0.0,0.0,0.0,0.0,0.0,0.0,0.0,0.0,0.0,0.0,0.0,0.0,0.0,0.0,0.0,0.0,0.0,0.0,0.0,0.0,0.0,0.0,0.0,0.0,0.0,0.0,0.0,0.0,0.0,0.0,0.0,0.0,0.0,0.0,0.0,0.0,0.0,0.0,0.0,0.0,0.0,0.0,0.0,0.0,0.0,0.0,0.0,0.0,0.0,0.0,0.0,0.0,0.0,0.0,0.0,0.0,0.0,0.0,0.0,0.0,0.0,0.0,0.0,0.0,0.0,0.0,0.0,0.0,0.0,0.0,-7.439,-7.5365,-7.6954,-7.766,-7.8753,-8.0111,-7.937,-7.9756,-8.0714,-7.8433,0.0,0.0,0.0,0.0,0.0,0.0,0.0,0.0,0.0,0.0,0.0,0.0,0.0,0.0,0.0,0.0,0.0,0.0,0.0,0.0,0.0,0.0,0.0,0.0,0.0,0.0,0.0,0.0,0.0,0.0,0.0,0.0,0.0,0.0,0.0,0.0,0.0,0.0,-6.5705,-6.5013,-6.5222,-6.61,-6.5118,0.0,0.0,0.0,0.0,0.0,0.0,0.0,0.0,0.0,0.0,0.0,0.0,0.0,0.0,0.0,0.0,0.0,0.0,0.0,0.0,0.0,0.0,0.0,0.0,0.0,0.0,0.0,0.0,0.0,0.0,0.0,0.0,0.0,0.0,0.0,0.0,0.0,0.0,0.0,0.0,0.0,0.0,0.0,-6.9064,-6.8206,0.0,0.0,0.0,0.0,0.0,0.0,0.0,0.0,0.0,0.0,0.0,0.0,0.0,-7.038,-7.2998,-7.4527,-7.6084,-7.7632,-7.917,-8.0415,-8.1373,-8.1477,-8.1668,-8.1841,-8.1763,0.0,-8.0817,-7.976,0.0,0.0,0.0,0.0,0.0,0.0,0.0,0.0,0.0,0.0,0.0,0.0,0.0,0.0,0.0,0.0,0.0,0.0,0.0,0.0,0.0,0.0,0.0,0.0,0.0,0.0,0.0,0.0,0.0,0.0,0.0,0.0,0.0,0.0,0.0,0.0,-6.3072,-6.3984,-6.5374,-6.5015,-6.5342,-6.6291,-6.6408,-6.6281,-6.604,-6.6974,0.0,0.0,0.0,0.0,0.0,0.0,0.0,0.0,0.0,0.0,0.0,0.0,0.0,0.0,0.0,0.0,0.0,0.0,0.0,0.0,0.0,0.0,0.0,0.0,0.0,0.0,0.0,0.0,0.0,0.0,0.0,0.0,0.0,0.0,0.0,0.0,0.0,0.0,0.0,-6.9337,-6.9046,-6.8199,-6.7006,-6.5577,0.0,0.0,0.0,0.0,0.0,0.0,0.0,0.0,0.0,-7.1406,-7.2924,-7.4683,-7.6833,-7.8542,-7.999,-8.1215,-8.1996,-8.3081,-8.4395,-8.39,-8.3649,-8.3571,-8.3118,-8.243,-8.1507,-7.9674,-7.8226,-7.6973,0.0,0.0,0.0,0.0,-7.5835,-7.6785,0.0,0.0,0.0,0.0,0.0,0.0,0.0,0.0,0.0,0.0,0.0,0.0,0.0,0.0,0.0,-6.3717,0.0,0.0,0.0,0.0,0.0,0.0,0.0,0.0,0.0,0.0,0.0,0.0,-6.3252,-6.3726,-6.4767,-6.4984,-6.547,-6.6194,-6.716,-6.721,-6.6634,-6.7748,-6.772,0.0,0.0,0.0,0.0,0.0,0.0,0.0,0.0,0.0,0.0,0.0,0.0,0.0,0.0,0.0,0.0,0.0,0.0,0.0,0.0,0.0,0.0,0.0,0.0,0.0,0.0,0.0,0.0,0.0,0.0,0.0,0.0,0.0,0.0,0.0,0.0,0.0,0.0,-6.9757,-6.9818,-6.8581,-6.8447,-6.737,0.0,0.0,0.0,0.0,0.0,0.0,-6.8691,-7.0405,-7.2434,-7.4779,-7.6958,-7.9022,-8.0977,-8.2015,-8.3194,-8.4466,-8.4451,-8.5145,-8.6393,-8.5964,-8.5395,-8.4685,-8.4317,-8.3513,-8.2348,-8.0159,-7.8901,-7.8072,-7.5435,-7.4652,-7.5058,-7.5547,-7.64,-7.7615,0.0,0.0,0.0,0.0,0.0,0.0,0.0,0.0,0.0,0.0,0.0,0.0,0.0,0.0,-6.5045,-6.5613,-6.4857,-6.4358,0.0,0.0,0.0,0.0,0.0,0.0,0.0,0.0,0.0,-6.322,-6.4782,-6.5269,-6.4737,-6.5566,-6.6049,-6.6312,-6.7134,-6.7017,-6.6334,-6.8105,-6.833,-6.7402,0.0,0.0,0.0,0.0,0.0,0.0,0.0,0.0,0.0,0.0,0.0,0.0,0.0,0.0,0.0,0.0,0.0,0.0,0.0,0.0,0.0,0.0,0.0,0.0,0.0,0.0,0.0,0.0,0.0,0.0,0.0,0.0,0.0,0.0,0.0,0.0,0.0,0.0,0.0,-6.9621,-7.1507,0.0,0.0,0.0,0.0,-6.9098,-7.0699,-7.2378,-7.4017,-7.5758,-7.7515,-7.9323,-8.0247,-8.1953,-8.4525,-8.3826,-8.4672,-8.7112,-8.7107,-8.7146,-8.7263,-8.8043,-8.7052,-8.4724,-8.5549,-8.4941,-8.3357,-8.2323,-8.0505,-7.8343,-7.7857,-7.6218,-7.4389,-7.616,-7.6855,-7.7354,0.0,0.0,0.0,0.0,0.0,0.0,0.0,0.0,0.0,0.0,0.0,0.0,0.0,-6.6255,-6.7042,-6.7393,-6.6573,-6.583,-6.5268,0.0,0.0,0.0,0.0,0.0,0.0,0.0,-6.3026,-6.3376,-6.3488,-6.3842,-6.4501,-6.5005,-6.5606,-6.6251,-6.6617,-6.6677,-6.6614,-6.8884,-6.904,-6.7827,-6.8788,-6.7842,0.0,0.0,0.0,0.0,0.0,0.0,0.0,0.0,0.0,0.0,0.0,0.0,0.0,0.0,0.0,0.0,0.0,0.0,0.0,0.0,0.0,0.0,0.0,0.0,0.0,0.0,0.0,0.0,0.0,0.0,0.0,0.0,0.0,0.0,0.0,0.0,0.0,-7.2005,-7.3657,0.0,-7.3197,-7.2846,-7.3158,-7.4251,-7.5969,-7.7726,-7.9444,-8.0101,-8.1233,-8.2918,-8.3276,-8.413,-8.5601,-8.5847,-8.6428,-8.7386,-8.7932,-8.8188,-8.816,-8.9057,-8.8612,-8.722,-8.7468,-8.6674,-8.5073,-8.4695,-8.3426,-8.149,-7.9637,-7.8933,-7.8845,-7.8194,-7.8523,-7.9472,0.0,0.0,0.0,0.0,0.0,0.0,0.0,0.0,0.0,0.0,0.0,-6.6144,-6.7431,-6.8559,-6.9238,-6.9159,-6.8339,-6.7442,-6.6611,0.0,0.0,0.0,0.0,0.0,0.0,-6.3238,-6.3226,-6.3873,-6.3373,-6.3621,-6.4597,-6.5064,-6.5666,-6.6283,-6.6344,-6.6588,-6.7085,-6.8783,-6.9017,-6.8343,-6.9658,-6.8773,-6.6642,0.0,0.0,0.0,0.0,0.0,0.0,0.0,0.0,0.0,0.0,0.0,0.0,0.0,0.0,0.0,0.0,0.0,0.0,0.0,0.0,0.0,0.0,0.0,0.0,0.0,0.0,0.0,0.0,0.0,0.0,0.0,0.0,0.0,0.0,0.0,-7.462,-7.3722,-7.6471,-7.8077,-7.7218,-7.7648,-7.8468,-7.96,-8.1317,-8.2801,-8.3972,-8.4551,-8.5097,-8.5651,-8.6233,-8.6809,-8.7386,-8.7902,-8.8326,-8.8661,-8.9251,-8.9355,-8.9052,-8.9954,-8.971,-8.8602,-8.8863,-8.8017,-8.6439,-8.6722,-8.6026,-8.4507,-8.1746,-8.1182,-8.174,-8.0211,-8.0251,-8.0904,0.0,0.0,0.0,0.0,0.0,0.0,0.0,0.0,0.0,0.0,-6.7342,-6.8637,-6.9869,-7.1048,-7.1526,-7.0926,-7.0023,-6.9155,-6.8448,-6.6794,0.0,0.0,0.0,0.0,-6.4501,-6.4488,-6.4526,-6.4602,-6.471,-6.4848,-6.4924,-6.5893,-6.6384,-6.6523,-6.6406,-6.6847,-6.7689,-6.7839,-6.8292,-6.894,-6.9083,-6.9134,-6.8858,0.0,0.0,0.0,0.0,0.0,0.0,0.0,0.0,0.0,0.0,0.0,0.0,0.0,0.0,0.0,0.0,0.0,0.0,0.0,0.0,0.0,0.0,0.0,0.0,0.0,0.0,0.0,0.0,0.0,0.0,0.0,0.0,0.0,-7.0961,-7.375,-7.5673,-7.4893,-8.002,-8.2645,-8.0263,-8.2996,-8.4948,-8.4987,-8.6549,-8.7486,-8.7564,-8.9029,-8.9142,-8.7521,-8.9042,-8.9871,-8.9871,-8.9871,-9.029,-9.1041,-9.108,-9.0668,-8.991,-9.0846,-9.0306,-8.875,-8.9593,-8.9003,-8.7419,-8.8245,-8.8071,-8.6962,-8.4076,-8.2797,-8.2532,-8.2131,-8.1837,-8.1458,0.0,0.0,0.0,0.0,0.0,0.0,0.0,0.0,0.0,0.0,-6.8269,-6.9733,-7.1908,-7.2983,-7.3254,-7.2602,-7.1697,-7.0302,-6.8388,0.0,0.0,0.0,0.0,0.0,-6.4564,-6.4564,-6.4513,-6.4396,-6.4538,-6.4808,-6.5268,-6.6256,-6.6767,-6.6869,-6.7371,-6.7602,-6.7653,-6.8917,-6.9667,-6.9991,-7.0173,-6.9877,-6.9229,0.0,0.0,0.0,0.0,0.0,0.0,0.0,0.0,0.0,0.0,0.0,0.0,0.0,0.0,0.0,0.0,0.0,0.0,0.0,0.0,0.0,0.0,0.0,0.0,0.0,0.0,0.0,0.0,0.0,0.0,0.0,0.0,-7.4691,-7.3598,-7.6919,-8.0126,-8.1776,-8.4008,-8.5846,-8.7056,-8.7446,-8.8149,-8.9437,-8.9359,-8.9828,-9.1038,-8.9731,-8.906,-8.922,-8.9057,-8.8958,-8.8974,-8.9543,-8.9978,-9.0247,-9.0891,-9.0735,-8.994,-9.1421,-9.1493,-9.054,-9.1343,-9.0763,-8.9135,-8.8695,-8.7402,-8.5573,-8.4319,-8.4189,-8.4452,-8.2529,-8.1614,-8.1225,0.0,0.0,0.0,0.0,0.0,0.0,0.0,0.0,0.0,0.0,-6.8876,-7.03,-7.3178,-7.3934,-7.3925,-7.3261,-7.2049,-7.044,-6.8388,0.0,0.0,0.0,0.0,-6.5051,-6.5077,-6.514,-6.5064,-6.4868,-6.4667,-6.4936,-6.5679,-6.6243,-6.673,-6.7193,-6.7675,-6.8171,-6.8687,-6.9399,-7.0434,-7.151,-7.1243,-7.1074,-7.0856,-6.9759,-6.8687,-6.7764,-6.7422,-6.688,-6.6494,-6.7493,0.0,0.0,0.0,0.0,0.0,0.0,0.0,0.0,0.0,0.0,0.0,0.0,0.0,0.0,0.0,0.0,0.0,0.0,0.0,0.0,0.0,0.0,0.0,0.0,-7.6634,-7.8561,-7.8764,-8.0641,-8.283,-8.5062,-8.6744,-8.8461,-9.0374,-9.0374,-9.0726,-9.1741,-9.1311,-9.1464,-9.2432,-9.0695,-8.9935,-9.0447,-8.9571,-8.928,-8.9621,-9.0099,-9.0534,-9.0958,-9.1442,-9.1448,-9.0997,-9.1943,-9.2138,-9.1727,-9.2234,-9.1688,-9.0317,-8.9278,-8.7826,-8.6106,0.0,0.0,0.0,0.0,-8.2399,-8.2147,0.0,0.0,0.0,0.0,0.0,0.0,0.0,0.0,0.0,0.0,0.0,-7.064,-7.4132,-7.4469,-7.4155,-7.3261,-7.1781,-7.0149,0.0,0.0,0.0,-6.5999,-6.6166,-6.6229,-6.6202,-6.6282,-6.6192,-6.5945,-6.5333,-6.5442,-6.6218,-6.6233,-6.6753,-6.759,-6.7842,-6.881,-7.0257,-6.9779,-7.0992,-7.3152,-7.2315,-7.2518,-7.3094,-7.0809,-6.9931,-6.9782,-6.9064,-6.9151,-6.958,-6.9701,0.0,0.0,0.0,0.0,0.0,0.0,0.0,0.0,0.0,0.0,0.0,0.0,0.0,0.0,0.0,0.0,0.0,0.0,0.0,0.0,0.0,0.0,0.0,0.0,-7.9916,-8.3249,-8.4984,-8.475,-8.4945,-8.651,-8.8735,-9.0492,-9.135,-9.2092,-9.2482,-9.2482,-9.2404,-9.2358,-9.2338,0.0,0.0,0.0,0.0,-9.0223,-9.1073,-9.1197,-9.1612,-9.2391,-9.2391,-9.2391,-9.2405,-9.2386,-9.2399,-9.2405,-9.2474,-9.1967,-9.1028,-8.9778,-8.8617,-8.7343,-8.5036,-8.4109,-8.3967,-8.3854,-8.3733,-8.3535,0.0,0.0,0.0,0.0,0.0,0.0,0.0,0.0,0.0,-6.9541,-7.0197,-7.1718,-7.5773,-7.6227,-7.5417,-7.336,-7.2853,-7.1359,0.0,0.0,-6.6715,-6.7766,-6.855,-6.8869,-6.8704,-6.8719,-6.8316,-6.7477,-6.7355,-6.7385,-6.7544,-6.8242,-6.8678,-6.8891,-6.9673,-7.031,-7.0823,-7.159,-7.2699,-7.3885,-7.3906,-7.3943,-7.4014,-7.3553,-7.3391,-7.3385,-7.3225,-7.2378,-7.1448,-7.2209,-7.1731,-7.1019,-7.1936,0.0,0.0,0.0,0.0,0.0,0.0,0.0,0.0,0.0,0.0,0.0,0.0,0.0,0.0,0.0,0.0,0.0,0.0,0.0,0.0,-7.953,-8.2983,-8.596,-8.772,-8.8955,-8.9848,-9.0254,-9.0726,-9.135,-9.217,-9.2404,-9.2482,-9.2482,-9.1897,-9.1499,-9.144,-8.9969,-8.9437,-9.0117,-8.9918,-9.0209,-9.1073,-9.1807,-9.2249,-9.2393,-9.2405,0.0,-9.2474,-9.2425,-9.2412,-9.2405,-9.2411,-9.1904,-9.0983,-8.9702,-8.7673,-8.5552,-8.6079,-8.5609,-8.4704,-8.5379,-8.4703,-8.3459,0.0,0.0,0.0,0.0,0.0,0.0,0.0,0.0,0.0,0.0,-6.9536,-7.1113,-7.4476,-7.5195,-7.469,-7.2709,-7.1398,0.0,0.0,-6.747,-6.7779,-6.9536,-7.0038,-7.0214,-7.0056,-7.01,-6.9604,-6.8547,-6.8173,-6.7944,-6.7897,-6.8356,-6.8989,-6.9797,-7.0348,-7.1106,-7.1986,-7.2797,-7.3692,-7.4616,-7.5283,-7.5821,-7.6076,-7.4814,-7.4092,-7.3859,-7.4733,-7.4505,-7.3804,-7.4288,-7.4439,-7.4394,-7.3937,-7.4088,-7.3999,0.0,0.0,0.0,0.0,0.0,0.0,0.0,0.0,0.0,0.0,0.0,0.0,0.0,0.0,-7.3768,0.0,0.0,-8.064,-8.3619,-8.6336,-8.8501,-8.9828,-9.107,-9.1691,-9.135,-9.1655,-9.2042,-9.2443,-9.2482,-9.2482,-9.2482,-9.1734,-9.1445,-9.1813,-9.0183,-8.9844,-9.1093,-9.0255,-9.0638,-9.2391,-9.1963,-9.2204,-9.3042,-9.2593,-9.2412,-9.2444,-9.2405,-9.2398,-9.2419,-9.2419,-9.2146,-9.1658,-9.0181,-8.8216,-8.6279,-8.7014,-8.6475,-8.5342,-8.5877,-8.5522,-8.4717,0.0,0.0,0.0,0.0,0.0,0.0,0.0,0.0,0.0,0.0,-6.8812,-7.0393,-7.2805,-7.39,-7.3696,0.0,0.0,0.0,0.0,-6.8611,-6.9498,-7.1783,-7.1885,-7.1814,-7.1681,-7.1558,-7.0984,-6.9922,-6.9298,-6.8954,-6.889,-6.889,-6.9578,-7.0894,-7.1091,-7.2039,-7.349,-7.4045,-7.4823,-7.5686,-7.6779,-7.7571,-7.7882,-7.6047,-7.4844,-7.4266,-7.5713,-7.6103,-7.5986,-7.6142,-7.7155,-7.7973,-7.6025,-7.6142,-7.6376,-7.3219,-7.244,0.0,0.0,0.0,0.0,0.0,0.0,0.0,0.0,0.0,-7.1318,-7.4058,-7.5275,-7.6856,-7.9945,-8.1961,-8.4181,-8.7312,-8.9173,-9.052,-9.1421,-9.2081,-9.2311,-9.1808,-9.2186,-9.2498,-9.2514,-9.2635,-9.2674,-9.2518,-9.2151,-9.213,-9.2495,-9.1175,-9.1067,-9.2593,-9.095,-9.1229,-9.3691,-9.2119,-9.208,-9.3443,-9.2742,-9.2391,-9.2391,-9.2391,-9.2391,-9.2391,-9.2391,-9.2191,-9.1819,-9.0714,-8.9164,-8.7513,-8.7823,-8.73,-8.6301,-8.6119,-8.6076,-8.5962,0.0,0.0,0.0,0.0,0.0,0.0,0.0,0.0,0.0,0.0,0.0,0.0,0.0,0.0,0.0,0.0,0.0,0.0,-7.0518,-7.2611,-7.4308,-7.5361,-7.5364,-7.5288,-7.5117,-7.4402,-7.3516,-7.2559,-7.2499,-7.2461,-7.2444,-7.2444,-7.2608,-7.2986,-7.3189,-7.3938,-7.511,-7.6048,-7.6954,-7.7848,-7.8677,-7.8629,-7.8055,-7.863,-7.8331,-7.7663,-7.7922,-7.7506,-7.696,-7.774,-7.8129,-7.8363,-7.8792,-7.8051,-7.661,-7.4661,0.0,-7.0447,-6.8438,-6.8661,-6.9841,-7.1188,-7.1505,-7.2535,0.0,0.0,-7.5931,-7.9252,-8.0608,-8.1816,-8.3738,-8.5543,-8.7364,-8.9281,-9.0442,-9.1374,-9.226,-9.2378,-9.2663,-9.3354,-9.2871,-9.2494,-9.2494,-9.3197,-9.3314,-9.2572,-9.3856,-9.4042,-9.2573,-9.2267,-9.2555,-9.353,-9.186,-9.1821,-9.3686,-9.2756,-9.2352,-9.2547,-9.2469,-9.2391,-9.2391,-9.2391,-9.2391,-9.2391,-9.2391,-9.15,-9.0161,-9.0842,-8.9627,-8.7435,-8.8515,-8.8787,-8.8342,-8.6559,-8.5981,-8.5962,0.0,0.0,0.0,0.0,0.0,0.0,0.0,0.0,0.0,0.0,0.0,0.0,0.0,0.0,0.0,0.0,0.0,0.0,-7.1443,-7.3936,-7.5772,-7.6571,-7.6063,-7.5961,-7.6377,-7.554,-7.4915,-7.4431,-7.4431,-7.4431,-7.4431,-7.3934,-7.4253,-7.5212,-7.4932,-7.5603,-7.6983,-7.7722,-7.8224,-7.8661,-7.965,-7.9852,-7.9606,-8.0567,-7.9796,-7.8085,-7.7143,-7.622,0.0,0.0,-7.7116,-7.7701,-7.8558,-7.8636,-7.7935,-7.5207,-7.3637,0.0,-7.1893,-7.1231,0.0,0.0,-7.4817,-7.5546,-7.8359,-7.8816,-7.9372,-8.1808,-8.3796,-8.5462,-8.6683,-8.8338,-8.9927,0.0,-9.172,-9.2271,-9.3131,-9.2783,-9.2602,-9.294,-9.2651,-9.2651,-9.3192,-9.3114,-9.2889,-9.2549,-9.3188,-9.3481,-9.3192,-9.3185,-9.3556,-9.4433,-9.3698,-9.3698,-9.4433,-9.3581,-9.3171,-9.3132,-9.2625,-9.2391,-9.2391,-9.2391,-9.2391,-9.2391,-9.2391,-9.1772,-9.0818,-9.1233,-9.0556,-8.9206,-8.9206,-8.9189,-8.8918,-8.709,-8.672,-8.6942,0.0,0.0,0.0,0.0,0.0,0.0,0.0,0.0,0.0,0.0,0.0,0.0,0.0,0.0,0.0,0.0,0.0,0.0,0.0,-7.5072,-7.6907,-7.7648,-7.7078,-7.699,-7.759,-7.6714,-7.6258,-7.6188,-7.6188,-7.6188,-7.6188,-7.5539,-7.59,-7.71,-7.6732,-7.7242,-7.8416,-7.9133,-7.9523,-7.9812,-8.0883,-8.1271,-8.1289,-8.1506,-8.0186,-7.7973,-7.6825,-7.5558,0.0,0.0,-7.6103,-7.6804,-7.7662,-7.8012,-7.7545,-7.4856,-7.3358,-7.2711,-7.3223,0.0,0.0,-7.6565,-7.7896,-7.8843,-8.0547,-8.1415,-8.2421,-8.441,-8.6484,-8.8183,-8.9079,-9.0463,-9.1658,-9.2357,-9.2669,-9.2953,-9.3348,-9.3086,-9.2747,-9.2495,-9.2222,-9.2411,-9.3325,-9.3491,-9.3539,-9.3548,-9.4227,-9.4675,-9.4742,-9.4764,-9.5062,-9.5719,-9.5179,-9.5062,-9.5368,-9.4244,-9.3684,-9.3684,-9.3068,-9.2632,-9.2391,-9.2391,-9.2391,-9.2391,-9.2391,-9.2064,-9.1522,-9.1522,-9.1121,-9.0517,-8.9638,-8.9447,-8.9447,-8.7804,-8.7302,-8.7311,0.0,0.0,0.0,0.0,0.0,0.0,0.0,0.0,0.0,0.0,0.0,0.0,0.0,0.0,0.0,0.0,0.0,0.0,0.0,-7.6733,-7.8568,-7.9395,-7.9327,-7.9292,-7.933,-7.842,-7.7946,-7.7908,-7.7908,-7.7908,-7.7908,-7.7908,-7.8063,-7.8346,-7.8619,-7.8834,-7.9155,-8.0271,-8.1174,-8.186,-8.2718,-8.2989,-8.276,-8.1233,-7.955,-7.8015,-7.817,0.0,0.0,0.0,-7.5713,-7.5908,-7.6765,-7.5908,0.0,-7.3414,-7.0748,0.0,0.0,0.0,-7.4976,-7.7617,-8.0117,-8.2413,-8.4142,-8.4559,-8.5309,-8.7816,-8.9096,-8.9975,-9.0872,-9.1768,-9.2366,-9.2399,-9.312,-9.3386,-9.2561,-9.3159,-9.3334,-9.2508,-9.1651,-9.147,0.0,-9.4697,-9.6185,-9.6194,-9.8525,-9.9227,-9.7474,-9.7362,-9.744,-9.7513,-9.5803,-9.5335,-9.6265,-9.4556,-9.3684,-9.3684,-9.3679,-9.3205,-9.2391,-9.2391,-9.2391,-9.2391,-9.2391,-9.2064,-9.1522,-9.1522,-9.1121,-9.0517,-8.9638,-8.9829,-9.0364,-8.8683,-8.7475,-8.6473,0.0,0.0,0.0,0.0,0.0,0.0,0.0,0.0,0.0,0.0,0.0,0.0,0.0,0.0,0.0,0.0,0.0,0.0,0.0,-7.7245,-7.8871,-7.8532,-7.905,-7.9338,-7.9338,-7.8996,-7.8863,-7.8863,-7.9971,-8.0468,-8.0373,-8.0089,-8.0531,-8.1563,-8.0988,-8.1364,-8.2453,-8.3036,-8.374,-8.4405,-8.3465,-8.2767,-8.2155,-8.1028,-7.8829,-7.6412,0.0,0.0,0.0,0.0,0.0,0.0,-7.5012,0.0,0.0,-7.129,0.0,0.0,0.0,0.0,-7.7819,-8.1591,-8.3195,-8.4416,-8.6713,-8.8134,-8.9022,-8.9292,-8.9138,-8.8495,-8.7092,-8.7988,-8.8781,-8.8227,-9.1288,-9.3432,-9.2585,-9.3191,-9.2977,-9.0989,-9.1451,0.0,0.0,0.0,0.0,-9.536,-9.7322,-9.8441,-9.8371,-9.8375,-9.8368,-9.8403,-9.6699,-9.5934,-9.6296,-9.5135,-9.4264,-9.3679,-9.312,-9.299,-9.3249,-9.2664,-9.2391,-9.2391,-9.2391,-9.1828,-9.0889,-9.0889,-9.0325,-8.9437,-8.9167,-8.9094,-8.9073,-8.794,-8.7179,-8.6653,0.0,0.0,0.0,0.0,0.0,0.0,0.0,0.0,0.0,0.0,0.0,0.0,0.0,0.0,0.0,0.0,0.0,0.0,0.0,0.0,-7.7865,-7.7564,-7.8366,-7.8978,-7.9302,-7.8978,-7.8978,-7.9302,-8.0316,-8.0793,-8.0697,-8.0673,-8.1165,-8.2127,-8.1992,-8.253,-8.3486,-8.3563,-8.4608,-8.5971,-8.3262,-8.2417,-8.2504,-8.0417,-7.8103,0.0,0.0,0.0,0.0,0.0,0.0,0.0,0.0,0.0,0.0,0.0,0.0,0.0,0.0,-7.7865,-8.0559,-8.4591,-8.5845,-8.6663,-8.8923,-9.0306,-9.0937,-9.039,-8.8845,-8.7014,-8.5066,-8.5338,-8.5462,-8.4317,-8.7969,-9.1087,-9.1481,-9.1703,-9.1808,-9.1691,-9.2113,-9.2295,0.0,0.0,0.0,-9.5732,-9.7499,-9.8734,-9.9247,-9.9576,-9.9452,-9.8818,-9.7706,-9.7018,-9.6752,-9.5869,-9.5005,-9.416,-9.2964,-9.288,-9.3659,-9.2788,-9.2391,-9.2391,-9.2391,-9.1901,-9.105,-9.0739,-9.009,-8.9328,-8.9019,-8.8907,-8.8846,-8.8308,-8.8115,-8.8013,0.0,0.0,0.0,0.0,0.0,0.0,0.0,0.0,0.0,0.0,0.0,0.0,0.0,0.0,0.0,0.0,0.0,0.0,0.0,0.0,0.0,-7.6609,-7.7526,-7.8404,-7.9225,-7.8404,-7.8366,-7.9169,-7.9076,-7.9019,-7.8981,-7.9704,-8.0083,-8.0237,-8.1615,-8.2284,-8.2378,-8.2107,-8.384,-8.636,-8.2242,-8.1951,-8.3497,-7.9456,0.0,0.0,0.0,0.0,0.0,0.0,0.0,0.0,0.0,0.0,0.0,0.0,0.0,-7.4422,-7.8519,-8.0974,-8.3156,-8.6429,-8.791,-8.9001,-9.0723,-9.1084,-9.1054,-9.0898,-8.8107,-8.5416,0.0,0.0,-8.2689,-8.1052,-8.3974,-8.7287,-8.9703,-8.943,-9.0404,0.0,0.0,0.0,0.0,0.0,0.0,-9.7387,0.0,-10.0112,-10.0185,-10.1003,-10.0613,-9.8977,-9.886,-9.8392,-9.7581,-9.6607,-9.5764,-9.5057,-9.3263,-9.2873,-9.3653,-9.2795,-9.2391,-9.2391,-9.2391,-9.2182,-9.1732,-9.0916,-9.0357,-8.9964,-8.9138,-8.9145,-8.9611,-8.9556,-8.9898,-9.0079,0.0,0.0,0.0,0.0,0.0,0.0,0.0,0.0,0.0,0.0,0.0,0.0,0.0,0.0,0.0,0.0,0.0,0.0,0.0,0.0,0.0,0.0,0.0,0.0,0.0,0.0,0.0,0.0,0.0,-7.7799,-7.7015,-7.7505,-7.8458,-7.9742,-7.979,-8.06,-8.2028,-8.1941,-8.2784,-8.3959,0.0,-8.0592,-8.0379,0.0,0.0,0.0,0.0,0.0,0.0,0.0,0.0,0.0,0.0,0.0,-7.6451,0.0,0.0,-7.9973,-8.1117,-8.3624,-8.6274,-8.7793,-8.8806,-8.9768,-9.0837,-9.1113,-9.0389,-8.7832,-8.4551,-8.0896,0.0,0.0,0.0,-8.0773,-8.7443,0.0,-9.3521,-9.4517,0.0,-9.4113,0.0,-9.4413,-9.4581,-9.5172,0.0,0.0,-9.8896,-9.9949,-10.1899,-10.1588,-10.1198,-10.0808,-9.9483,-9.868,-9.8474,-9.6356,-9.5537,-9.5953,-9.3536,-9.286,-9.3652,-9.2788,-9.2391,-9.2391,-9.2391,-9.163,-9.0299,-9.0104,-8.9185,-8.7937,-8.7703,-8.8002,-8.8428,-8.7536,-8.7603,-8.7958,0.0,0.0,0.0,0.0,0.0,0.0,0.0,0.0,0.0,0.0,0.0,0.0,0.0,0.0,0.0,0.0,0.0,0.0,0.0,0.0,0.0,0.0,0.0,0.0,0.0,0.0,0.0,0.0,0.0,0.0,0.0,-7.7335,-7.7828,-7.8826,-7.9263,-8.0058,-8.1106,-8.0854,0.0,0.0,0.0,0.0,0.0,0.0,0.0,0.0,0.0,0.0,0.0,0.0,0.0,-7.8726,-7.9572,-7.9577,-7.9367,-7.9668,0.0,-8.3321,-8.4117,-8.6519,-8.9036,-8.9968,-9.0554,-9.0646,-8.961,-8.9409,-8.8111,-8.356,-8.0168,0.0,0.0,0.0,0.0,0.0,0.0,0.0,-9.3521,-9.401,-9.4556,0.0,-9.5739,0.0,-9.6023,-9.6497,-9.7362,0.0,-9.9155,-10.0207,-10.2016,-10.2016,-10.1588,-10.0886,-9.9873,-9.8984,-9.8227,-9.6473,-9.6005,-9.6791,-9.4192,-9.34,-9.4184,-9.2976,-9.2391,-9.2391,-9.2391,-9.1651,-9.0326,-8.9975,-8.9235,-8.8261,-8.7481,-8.7725,-8.8321,-8.732,-8.7249,-8.7598,0.0,0.0,0.0,0.0,0.0,0.0,0.0,0.0,0.0,0.0,0.0,0.0,0.0,0.0,0.0,0.0,0.0,0.0,0.0,0.0,0.0,0.0,0.0,0.0,0.0,0.0,0.0,0.0,0.0,0.0,0.0,0.0,0.0,0.0,0.0,0.0,0.0,0.0,0.0,0.0,0.0,0.0,0.0,0.0,0.0,0.0,0.0,0.0,0.0,0.0,-8.2972,-8.2418,-8.2701,-8.2254,-8.1974,-8.3617,-8.4649,-8.5641,-8.7273,-8.9379,-9.1326,-9.2331,-9.2456,-9.1466,-8.8131,-8.703,-8.508,-7.9293,0.0,-7.3921,-7.2947,0.0,-7.6765,-7.7701,0.0,-8.7988,-9.2742,-9.2119,-9.3132,-9.8509,-9.7642,-9.6986,-9.7939,-9.7961,-9.8272,-9.9062,-9.9834,-10.0613,-10.1198,-10.1899,-10.1588,-10.0107,-9.999,-9.925,-9.7847,-9.6908,-9.6791,-9.7457,-9.5044,-9.4179,-9.469,-9.3132,-9.2391,-9.2391,-9.2391,-9.1924,-9.1028,-9.0287,-8.9858,-8.9469,-8.7949,-8.7865,-8.8558,-8.7925,-8.7809,-8.7981,0.0,0.0,0.0,0.0,0.0,0.0,0.0,0.0,0.0,0.0,0.0,0.0,0.0,0.0,0.0,0.0,0.0,0.0,0.0,0.0,0.0,0.0,0.0,0.0,0.0,0.0,0.0,0.0,0.0,0.0,0.0,0.0,0.0,0.0,0.0,0.0,0.0,0.0,0.0,0.0,0.0,0.0,0.0,0.0,0.0,0.0,0.0,0.0,0.0,0.0,-8.3332,-8.3549,-8.5663,-8.6154,-8.6226,-8.7315,-8.8172,-8.9036,-9.0117,-9.1247,-9.2331,-9.3249,-9.2912,-9.1649,-8.8887,-8.6092,0.0,0.0,0.0,-7.2869,-7.131,-7.2557,0.0,-8.1364,0.0,0.0,0.0,0.0,-9.8977,0.0,0.0,0.0,0.0,0.0,0.0,0.0,-10.1096,-10.0886,-10.0419,-10.0497,-10.0419,-10.0107,-9.9405,-9.9211,-9.9639,-9.8078,-9.7376,-9.7496,-9.5667,-9.4452,-9.3872,-9.2859,-9.2391,-9.2391,-9.2391,0.0,-9.1105,-9.095,-9.0014,-8.8689,-8.8378,-8.7837,-8.7209,-8.7578,-8.7526,-8.7358,0.0,0.0,0.0,0.0,0.0,0.0,0.0,0.0,0.0,0.0,0.0,0.0,0.0,0.0,0.0,0.0,0.0,0.0,0.0,0.0,0.0,0.0,0.0,0.0,0.0,0.0,0.0,0.0,0.0,0.0,0.0,0.0,0.0,0.0,0.0,0.0,0.0,0.0,0.0,0.0,0.0,0.0,0.0,0.0,0.0,0.0,0.0,0.0,0.0,0.0,-8.3381,-8.4507,-8.6584,-8.7514,-8.7939,-8.8389,-8.9699,-9.1171,-9.1637,-9.3025,-9.4442,-9.4878,-9.3991,-9.1764,-8.6941,0.0,0.0,0.0,0.0,-7.0998,-7.0648,0.0,0.0,0.0,0.0,0.0,0.0,0.0,0.0,0.0,0.0,0.0,0.0,0.0,0.0,0.0,-10.0309,-10.0107,-10.0107,-9.9678,-9.9639,-10.0107,-9.8821,-9.8548,-9.9405,-9.8134,-9.7752,-9.8159,-9.5998,-9.4984,-9.4963,-9.3677,-9.3093,-9.3093,-9.3521,-9.271,-9.1132,-9.158,-9.1268,-9.0431,-8.9515,-8.9194,-8.9162,-8.8558,-8.8043,-8.7599,0.0,0.0,0.0,0.0,0.0,0.0,0.0,0.0,0.0,0.0,0.0,0.0,0.0,0.0,0.0,0.0,0.0,0.0,0.0,0.0,0.0,0.0,0.0,0.0,0.0,0.0,0.0,0.0,0.0,0.0,0.0,0.0,0.0,0.0,0.0,0.0,0.0,0.0,0.0,0.0,0.0,0.0,0.0,0.0,0.0,0.0,0.0,0.0,0.0,0.0,-8.2957,-8.4205,-8.5716,-8.7007,-8.8027,-8.8378,-9.0181,-9.2184,-9.3,-9.491,-9.6659,-9.6741,-9.518,-9.1865,-8.518,-8.1912,0.0,0.0,-6.9562,-6.964,-7.0648,0.0,0.0,0.0,0.0,0.0,0.0,0.0,0.0,0.0,0.0,0.0,0.0,0.0,0.0,0.0,-9.914,-9.8821,-9.9522,-9.9055,-9.9094,-9.9795,-9.847,-9.8275,-9.9367,-9.8665,-9.8587,-9.9055,-9.6795,-9.5898,-9.6132,-9.4457,-9.3684,-9.3762,-9.4379,-9.3503,-9.173,-9.26,-9.2834,-9.2549,-9.1158,-9.0917,-9.1166,-8.9925,-8.9051,-8.8385,0.0,0.0,0.0,0.0,0.0,0.0,0.0,0.0,0.0,0.0,0.0,0.0,0.0,0.0,0.0,0.0,0.0,0.0,0.0,0.0,0.0,0.0,0.0,0.0,0.0,0.0,0.0,0.0,0.0,0.0,0.0,0.0,0.0,0.0,0.0,0.0,0.0,0.0,0.0,0.0,0.0,0.0,0.0,0.0,0.0,0.0,0.0,0.0,0.0,0.0,0.0,-8.1338,-8.2338,-8.4295,-8.6546,-8.8066,0.0,0.0,-9.4995,-9.7115,-9.8484,-9.8541,-9.6101,-9.2072,-8.596,0.0,0.0,0.0,-7.0375,-6.9796,-7.1388,-7.0648,-7.1622,0.0,0.0,0.0,0.0,0.0,0.0,0.0,0.0,0.0,0.0,0.0,0.0,0.0,-9.857,-9.7652,-9.773,-9.8392,-9.8821,-9.8938,-9.8743,-9.9483,-10.1081,-10.1081,-10.0691,-9.9951,-9.8938,-9.7652,-9.6132,-9.4457,-9.3684,-9.3684,-9.3794,-9.3684,0.0,-9.4347,-9.423,-9.3567,-9.3412,-9.229,-9.0824,-9.1153,-9.0612,-8.9607,0.0,0.0,0.0,0.0,0.0,0.0,0.0,0.0,0.0,0.0,0.0,0.0,0.0,0.0,0.0,0.0,0.0,0.0,0.0,0.0,0.0,0.0,0.0,0.0,0.0,0.0,0.0,0.0,0.0,0.0,0.0,0.0,0.0,0.0,0.0,0.0,0.0,0.0,0.0,0.0,0.0,0.0,0.0,0.0,0.0,0.0,0.0,0.0,0.0,0.0,0.0,0.0,-7.947,-8.0539,0.0,0.0,-8.9313,-9.2352,-9.4768,-9.745,-9.9538,-9.9593,-9.582,-9.0969,-8.6505,0.0,0.0,-7.2569,-7.0881,-7.0414,-7.1583,-7.0842,-7.1037,0.0,0.0,0.0,0.0,0.0,0.0,0.0,0.0,0.0,0.0,0.0,0.0,0.0,-9.9335,-9.9172,-9.7574,-9.7847,-9.8485,-9.9559,-9.9052,-9.9637,-10.1391,-10.0416,-9.9934,-10.0107,-9.8159,-9.7145,-9.6912,-9.5197,-9.4418,-9.4418,-9.4418,-9.4159,0.0,-9.4588,-9.5055,-9.5154,-9.412,-9.3629,-9.3349,-9.2531,-9.1705,-9.0915,0.0,0.0,0.0,0.0,0.0,0.0,0.0,0.0,0.0,0.0,0.0,0.0,0.0,0.0,0.0,0.0,0.0,0.0,0.0,0.0,0.0,0.0,0.0,0.0,0.0,0.0,-7.6348,-7.7739,-7.759,0.0,0.0,0.0,0.0,0.0,0.0,0.0,0.0,0.0,0.0,0.0,0.0,0.0,0.0,0.0,0.0,0.0,0.0,0.0,0.0,0.0,0.0,0.0,0.0,0.0,0.0,0.0,-8.7689,-9.1704,-9.3957,-9.745,-10.0481,-10.0497,-9.5966,-9.0573,0.0,0.0,0.0,-7.3227,-7.17,-7.1193,-7.2011,-7.131,-7.0842,0.0,0.0,0.0,0.0,0.0,0.0,0.0,0.0,0.0,0.0,0.0,0.0,0.0,-10.0114,-10.02,-9.8353,-9.8275,-9.8843,-10.0086,-9.9495,-10.0001,-10.1802,-10.0281,-9.9871,-10.0497,-9.8368,-9.755,-9.7847,-9.6108,-9.5172,-9.4885,-9.4938,-9.4601,0.0,-9.4938,-9.5679,-9.6167,-9.5211,-9.497,-9.5054,-9.3875,-9.291,-9.2008,0.0,0.0,0.0,0.0,0.0,0.0,0.0,0.0,0.0,0.0,0.0,0.0,0.0,0.0,0.0,0.0,0.0,0.0,0.0,0.0,0.0,0.0,0.0,0.0,0.0,0.0,-7.7358,-7.7396,-7.893,-7.924,-7.8458,0.0,0.0,0.0,0.0,0.0,0.0,0.0,0.0,0.0,0.0,0.0,0.0,0.0,0.0,0.0,0.0,0.0,0.0,0.0,0.0,0.0,0.0,0.0,0.0,0.0,-8.4513,-8.9216,-9.2735,-9.7426,-10.1297,-10.1385,-9.6836,-9.1464,0.0,0.0,0.0,-7.4923,-7.2986,-7.205,-7.2947,-7.17,-7.0842,-7.1661,0.0,0.0,0.0,0.0,0.0,0.0,0.0,0.0,0.0,0.0,0.0,-10.1393,-10.0611,0.0,-10.0107,-10.0107,-10.009,-10.0086,-10.009,-10.0909,-10.2698,-10.1802,-10.1391,-10.1393,-10.0494,-9.9598,-9.8743,-9.7064,-9.5778,-9.4892,-9.4966,-9.4959,0.0,-9.582,-9.6171,-9.6288,-9.7145,-9.6405,-9.4926,-9.5183,-9.4248,-9.2672,0.0,0.0,0.0,0.0,0.0,0.0,0.0,0.0,0.0,0.0,0.0,0.0,0.0,0.0,0.0,0.0,0.0,0.0,0.0,0.0,0.0,0.0,0.0,0.0,0.0,-7.7244,-7.7202,-7.8636,-7.9911,-8.0506,-8.0558,-8.1495,-8.1753,0.0,0.0,0.0,0.0,0.0,0.0,0.0,0.0,0.0,0.0,0.0,0.0,0.0,0.0,0.0,0.0,0.0,0.0,0.0,0.0,0.0,0.0,0.0,0.0,0.0,-8.7793,-9.0904,-9.3461,-9.3475,-8.9827,-8.5813,-8.4095,0.0,0.0,-7.4689,-7.3492,-7.2752,-7.3064,-7.2167,-7.17,-7.2557,-7.2206,0.0,0.0,0.0,0.0,0.0,0.0,0.0,0.0,0.0,0.0,-10.0613,-10.0317,-9.9849,-9.925,-9.9795,-10.0097,-10.0202,-10.071,-10.149,-10.2692,-10.1815,-10.1717,-10.2288,-10.0214,-9.941,-9.9677,-9.6674,-9.5225,-9.4927,-9.4368,-9.4393,-9.4963,-9.582,-9.6561,-9.7067,-9.6756,-9.649,-9.6263,-9.557,-9.4497,-9.3307,0.0,0.0,0.0,0.0,0.0,0.0,0.0,0.0,0.0,0.0,0.0,0.0,0.0,0.0,0.0,0.0,0.0,0.0,0.0,0.0,0.0,0.0,0.0,0.0,-7.8571,-7.741,-7.7399,-7.8685,-8.0592,-8.1503,-8.148,-8.1747,-8.2261,-8.2832,-8.2174,0.0,0.0,0.0,0.0,0.0,0.0,0.0,-8.6243,0.0,0.0,0.0,0.0,0.0,0.0,0.0,0.0,0.0,0.0,0.0,0.0,0.0,0.0,0.0,0.0,-8.7131,-8.9391,-8.9703,-8.658,0.0,0.0,0.0,0.0,-7.5496,-7.4427,-7.357,-7.357,-7.2596,-7.1973,-7.2518,0.0,0.0,0.0,0.0,0.0,0.0,0.0,0.0,0.0,0.0,-10.2085,-10.0691,-10.0901,-10.059,-9.9367,-10.0419,-10.0884,-10.0682,-10.0795,-10.1308,-10.2181,-10.1399,-10.1217,-10.1685,-10.0416,-9.9917,-10.0099,-9.7532,-9.62,-9.5895,-9.4952,-9.4861,0.0,-9.5392,-9.5859,-9.6483,-9.6288,-9.6187,-9.6157,-9.588,-9.4922,-9.3692,0.0,0.0,0.0,0.0,0.0,0.0,0.0,0.0,0.0,0.0,0.0,0.0,0.0,0.0,0.0,0.0,0.0,0.0,0.0,0.0,0.0,0.0,0.0,0.0,-7.8419,-7.7989,-7.7775,-7.7811,-8.095,-8.2032,-8.1219,-8.1677,-8.2708,-8.4068,-8.2631,-8.2941,-8.4651,-8.5467,-8.5777,-8.5855,-8.6671,-8.6982,0.0,0.0,0.0,0.0,0.0,0.0,0.0,0.0,0.0,0.0,0.0,0.0,0.0,0.0,0.0,0.0,0.0,0.0,0.0,0.0,0.0,0.0,0.0,0.0,0.0,0.0,0.0,0.0,-7.4466,-7.3025,-7.1856,-7.1973,0.0,0.0,0.0,0.0,0.0,0.0,0.0,0.0,0.0,0.0,-10.2413,-10.1595,-10.221,-10.1905,-10.0309,-10.1705,-10.2093,-10.13,-10.0618,-10.0593,-10.1583,-10.0586,-10.0086,-10.0203,-10.0983,-10.0891,-9.9998,-9.9098,-9.8272,0.0,-9.6323,-9.6012,-9.6171,-9.4807,-9.4574,-9.5158,-9.5898,-9.5743,-9.5198,-9.614,-9.5444,-9.3901,0.0,0.0,0.0,0.0,0.0,0.0,0.0,0.0,0.0,0.0,0.0,0.0,0.0,0.0,0.0,0.0,0.0,0.0,0.0,0.0,0.0,0.0,0.0,0.0,-7.6676,-7.667,-7.6732,-7.6914,-7.99,-8.069,-7.9453,-8.1134,-8.1737,-8.1543,-8.2436,-8.4146,-8.6399,-8.6593,-8.6671,-8.671,-8.6904,-8.6982,0.0,0.0,0.0,0.0,-8.5467,-8.4845,0.0,0.0,0.0,0.0,0.0,0.0,0.0,0.0,-7.6999,0.0,0.0,0.0,0.0,0.0,0.0,0.0,0.0,0.0,0.0,0.0,0.0,0.0,0.0,0.0,0.0,0.0,0.0,0.0,0.0,0.0,0.0,0.0,0.0,0.0,0.0,0.0,-10.2614,-10.2412,-10.199,-10.1483,-10.1086,-10.1515,-10.1288,-10.0411,-10.0905,-10.1503,-10.241,-10.0898,-10.0409,-10.11,-10.0593,-9.9982,-9.9137,-9.8267,-9.7779,-9.75,-9.5842,-9.5906,-9.7106,-9.6132,-9.6171,-9.6834,-9.6366,-9.6483,-9.6795,-9.5907,-9.4926,-9.3901,0.0,0.0,0.0,0.0,0.0,0.0,0.0,0.0,0.0,0.0,0.0,0.0,0.0,0.0,0.0,0.0,0.0,0.0,0.0,0.0,0.0,0.0,0.0,-7.6107,-7.6107,-7.6465,-7.6714,-7.6826,-7.9505,-8.0609,-8.0246,-8.1378,-8.2048,-8.2398,-8.3718,-8.5311,-8.6982,-8.6982,-8.6982,-8.6982,-8.6982,0.0,0.0,0.0,0.0,0.0,-8.5855,-8.5389,0.0,-8.4505,-8.3796,-8.291,0.0,0.0,0.0,0.0,-7.7311,0.0,0.0,0.0,0.0,0.0,0.0,0.0,0.0,0.0,0.0,0.0,0.0,0.0,0.0,0.0,0.0,0.0,0.0,0.0,0.0,0.0,0.0,0.0,0.0,0.0,0.0,-10.1315,-10.2509,-10.2101,-10.2003,-10.1802,-10.1412,-10.1802,-10.1802,-10.1295,-10.1412,-10.1393,-10.1618,-10.0611,-10.009,-10.0203,-10.0105,-9.9644,-9.8845,-9.8786,-9.8733,-9.8694,-9.7426,-9.7574,-9.8548,-9.6756,-9.66,-9.7418,-9.6522,-9.6483,-9.6834,-9.6178,-9.5409,-9.4525,0.0,0.0,0.0,0.0,0.0,0.0,0.0,0.0,0.0,0.0,0.0,0.0,0.0,0.0,0.0,0.0,0.0,0.0,0.0,0.0,0.0,0.0,-7.6907,-7.5938,-7.5962,-7.6552,-7.6976,-7.7179,-7.931,-8.0825,-8.1698,-8.1854,-8.2708,-8.4262,-8.5233,-8.6127,-8.6787,-8.6943,-8.6982,-8.6982,-8.6982,0.0,0.0,0.0,0.0,0.0,0.0,0.0,0.0,-8.4835,-8.3951,-8.3018,-8.2232,0.0,0.0,0.0,0.0,0.0,0.0,0.0,0.0,0.0,0.0,0.0,0.0,0.0,0.0,0.0,0.0,0.0,0.0,0.0,0.0,0.0,0.0,0.0,0.0,0.0,0.0,0.0,0.0,0.0,-10.1412,-10.2308,-10.241,-10.1696,-10.2296,-10.2393,-10.1607,-10.2192,-10.2497,-10.2497,-10.1685,-10.0918,-10.0202,-9.9988,-9.9615,-9.902,-9.9623,-9.953,-9.8821,-9.9686,-10.0114,-10.0107,-9.9405,0.0,-10.0107,-9.7223,-9.6717,-9.7613,-9.66,-9.6288,-9.6414,-9.6448,-9.5955,-9.5018,0.0,0.0,0.0,0.0,0.0,0.0,0.0,0.0,0.0,0.0,0.0,0.0,0.0,0.0,0.0,0.0,0.0,0.0,0.0,0.0,0.0,-7.8999,-7.65,-7.5169,-7.5412,-7.5642,-7.6325,-7.7497,-7.8684,-7.9784,-8.0805,-8.1543,-8.2398,-8.3369,-8.4962,-8.5777,-8.5933,-8.6671,-8.6982,-8.6982,-8.6982,0.0,0.0,0.0,0.0,0.0,0.0,0.0,0.0,-8.5484,-8.4476,-8.3096,-8.2206,0.0,0.0,0.0,0.0,0.0,-7.7896,-7.8597,-7.8764,-7.7333,0.0,0.0,0.0,0.0,0.0,0.0,0.0,0.0,0.0,0.0,0.0,0.0,0.0,0.0,0.0,0.0,0.0,0.0,0.0,-10.0508,-9.7558,-10.0597,-10.2685,-10.2521,-10.2587,-10.2614,-10.2504,-10.1919,-10.1593,-10.1595,-10.0813,-10.019,-10.009,-9.9374,-9.9289,-9.9881,-9.9286,-9.8935,-9.8821,-9.9715,-10.0097,-10.0107,0.0,-9.9756,-10.1003,-9.8314,-9.7769,-9.8431,-9.6834,-9.6639,-9.7146,-9.5959,-9.4994,-9.3915,0.0,0.0,0.0,0.0,0.0,0.0,0.0,0.0,0.0,0.0,0.0,0.0,0.0,0.0,0.0,0.0,0.0,0.0,0.0,0.0,-7.8129,-7.8717,-7.7471,-7.665,-7.63,-7.74,-7.8089,-7.8266,-7.9819,-8.1048,-8.197,-8.2359,-8.3252,-8.4534,-8.4845,-8.5272,-8.5777,-8.6632,-8.6982,-8.6943,0.0,0.0,0.0,0.0,0.0,0.0,0.0,0.0,0.0,0.0,-8.4204,-8.3229,-8.2751,0.0,0.0,0.0,0.0,0.0,-7.8324,-7.8558,-7.9003,-7.9604,0.0,0.0,0.0,0.0,0.0,0.0,0.0,0.0,0.0,0.0,0.0,0.0,0.0,0.0,0.0,0.0,0.0,0.0,0.0,-9.9371,-9.9728,-10.1596,-10.2704,-10.2811,-10.2716,-10.2704,-10.2686,-10.1906,-10.1588,-10.212,-10.0788,-10.0118,-10.0097,-9.9226,-9.9226,-10.0097,-9.9201,-9.9045,-9.9513,-10.0409,-10.0784,-10.0808,0.0,-10.0691,-10.1315,-9.96,-9.886,-9.8782,-9.8431,-9.7964,-9.7341,-9.5919,-9.493,-9.4057,0.0,0.0,0.0,0.0,0.0,0.0,0.0,0.0,0.0,0.0,0.0,0.0,0.0,0.0,0.0,0.0,0.0,0.0,0.0,-7.8199,-7.8622,-7.9071,-7.9194,-7.877,-7.7838,-7.9288,-8.0004,-7.983,-8.1397,-8.2708,-8.3718,-8.3718,-8.4301,-8.5389,-8.469,-8.4767,-8.5467,-8.6321,-8.6787,-8.6943,0.0,0.0,0.0,0.0,0.0,0.0,0.0,0.0,0.0,0.0,0.0,0.0,0.0,0.0,0.0,0.0,-7.9649,-7.9415,-7.8987,-7.8887,-7.9466,-8.1833,0.0,0.0,0.0,0.0,0.0,0.0,0.0,0.0,0.0,0.0,0.0,0.0,0.0,0.0,0.0,0.0,-9.4028,-9.7316,-9.7779,-9.9098,-10.2398,-10.2482,-10.241,-10.2499,-10.241,-10.2392,-10.2386,-10.1606,-10.1606,-10.2698,-10.06,-9.9683,-10.0112,-9.9031,-9.8914,-9.98,-9.9109,-9.9265,-10.0112,-10.1018,-10.1393,-10.1393,-10.1588,-10.1705,-10.1588,-10.0808,-9.9756,-9.886,-9.9522,-9.8774,-9.7139,-9.5842,-9.5007,-9.4373,0.0,0.0,0.0,0.0,0.0,0.0,0.0,0.0,0.0,0.0,0.0,0.0,0.0,0.0,0.0,0.0,0.0,0.0,0.0,-7.9196,-8.0318,-8.113,-8.1469,-8.1103,-7.9918,-8.0046,-8.0976,-8.2806,-8.2941,-8.3874,-8.5505,-8.5505,-8.5156,-8.4495,-8.4418,-8.4418,-8.4534,-8.5428,-8.6243,-8.6982,-8.6943,0.0,0.0,0.0,0.0,0.0,0.0,0.0,0.0,0.0,0.0,0.0,0.0,0.0,0.0,0.0,-8.0111,-7.9649,-8.0422,-8.0617,-8.105,-8.285,-8.0312,0.0,-8.239,-8.1325,0.0,-8.1481,0.0,0.0,0.0,0.0,0.0,0.0,0.0,0.0,0.0,0.0,-10.1798,-10.2185,-10.2218,-10.2398,-10.271,-10.1997,-10.1601,-10.1503,-10.1483,-10.1489,-10.1497,-10.0717,-10.099,-10.2582,-9.9435,-9.8478,-10.0114,-9.8431,-9.8042,-9.8906,-9.8821,-9.925,-10.0114,-10.1003,-10.1393,-10.1393,-10.2211,-10.2484,-10.2484,-10.1588,-10.0302,-9.8821,-9.886,-9.7984,-9.6542,-9.5428,-9.4772,-9.4305,0.0,0.0,0.0,0.0,0.0,0.0,0.0,0.0,0.0,0.0,0.0,0.0,0.0,0.0,0.0,0.0,0.0,0.0,0.0,-7.9791,-8.0582,-8.1656,-8.1815,-8.2165,-8.2753,-8.2792,-8.3134,-8.3913,-8.5544,-8.6127,-8.57,-8.57,-8.4962,-8.3602,-8.3602,-8.3874,-8.4456,-8.5311,-8.6205,-8.6943,-8.6399,-8.6321,0.0,0.0,0.0,0.0,0.0,0.0,0.0,0.0,0.0,0.0,0.0,0.0,0.0,0.0,-8.0935,-8.1052,-8.0857,-8.1216,-8.1881,-8.3085,-8.0971,0.0,0.0,-8.4988,-8.3585,-8.3702,-8.5416,0.0,0.0,0.0,0.0,0.0,0.0,0.0,0.0,-10.2406,-10.2609,-10.2585,-10.2698,-10.2484,-10.19,-10.16,-10.121,-10.0593,-10.0606,-10.0606,-10.0593,-9.9774,-9.9865,-10.1093,-9.8779,-9.7823,-9.8545,-9.7861,-9.7379,-9.7184,-9.8275,-9.9537,-10.0884,-10.1206,-10.1705,-10.2211,-10.2484,-10.2289,-10.1899,-10.2094,-10.0808,-9.8743,-9.8197,-9.7868,-9.7545,-9.6036,-9.5603,-9.5644,0.0,0.0,0.0,0.0,0.0,0.0,0.0,0.0,0.0,0.0,0.0,0.0,0.0,0.0,0.0,0.0,0.0,0.0,-8.0034,-8.0477,-8.1053,-8.1844,-8.1892,-8.2553,-8.3951,-8.4262,-8.4806,-8.5622,-8.7137,-8.7409,-8.6515,-8.5972,-8.5039,-8.3913,-8.3913,-8.4262,-8.4845,-8.5467,-8.6205,-8.6943,-8.636,-8.6331,0.0,0.0,0.0,0.0,0.0,0.0,0.0,0.0,0.0,0.0,0.0,0.0,0.0,0.0,0.0,-8.2299,-8.1442,-8.1451,-8.1959,-8.3124,0.0,0.0,-8.7819,-8.7598,-8.6274,-8.7326,-8.8962,-9.0014,-8.943,0.0,0.0,0.0,0.0,0.0,-10.2601,-10.2601,-10.2601,-10.2616,-10.2412,-10.2192,-10.1802,-10.11,-10.0391,-10.0112,-9.9846,-9.9696,-9.9696,-9.9111,-9.9202,-10.0085,-9.8156,-9.7394,-9.7967,-9.7394,-9.6912,-9.66,-9.7808,-9.9148,-10.0611,-10.1408,-10.1899,-10.2211,-10.2484,-10.2289,-10.1782,-10.2406,-10.1315,-9.9047,-9.7519,-9.7362,-9.7829,-9.6571,-9.6315,-9.6501,0.0,0.0,0.0,0.0,0.0,0.0,0.0,0.0,0.0,0.0,0.0,0.0,0.0,0.0,0.0,0.0,0.0,0.0,-8.0135,-8.124,-8.1892,-8.1892,-8.1892,-8.2281,-8.3097,-8.399,-8.57,-8.8302,-8.7409,-8.7409,-8.8225,-8.6515,-8.57,-8.57,-8.57,-8.57,-8.57,-8.57,-8.6205,-8.6982,-8.6992,-8.6515,-8.5901,0.0,0.0,0.0,0.0,0.0,0.0,0.0,-8.5322,0.0,0.0,0.0,0.0,0.0,-8.2689,-8.3195,-8.2338,-8.1485,-8.1251,0.0,0.0,0.0,-8.9339,-8.8456,-8.752,-9.2703,-9.2352,-9.1144,-9.1144,-9.2586,0.0,-9.3723,-9.8704,-10.2601,-10.2601,-10.2601,-10.2616,-10.2692,-10.1919,-10.1685,-10.262,-10.0281,-9.9176,-9.999,-9.9286,-9.8761,-9.8761,-9.8761,-9.9189,-10.0008,-9.7557,-9.7028,-9.8743,-9.7067,-9.6639,-9.7496,-9.7496,-9.7964,-9.8899,-10.1393,-10.2094,-10.1393,-10.2211,-10.2601,-10.2601,-10.2601,-10.1588,-9.9819,-9.6867,-9.631,-9.708,-9.69,-9.6708,-9.6605,0.0,0.0,0.0,0.0,0.0,0.0,0.0,0.0,0.0,0.0,0.0,0.0,0.0,0.0,0.0,0.0,0.0,0.0,-8.2182,-8.2019,-8.1892,-8.1892,-8.1892,-8.2553,-8.399,-8.6088,-8.7215,-8.737,-8.7137,-8.6515,-8.5544,-8.5661,-8.5389,-8.4806,-8.4806,-8.5467,-8.6554,-8.5972,-8.6205,-8.6992,-8.6982,-8.6854,-8.6669,0.0,0.0,0.0,0.0,0.0,0.0,0.0,0.0,0.0,0.0,0.0,0.0,-8.226,-8.226,-8.2416,-8.2182,0.0,0.0,-8.3594,0.0,0.0,0.0,-8.9391,0.0,0.0,-9.5392,-9.3288,-9.4457,0.0,0.0,-9.5743,-9.9483,-10.2609,-10.2716,-10.2616,-10.2616,-10.2692,-10.2397,-10.1915,-10.0979,-10.02,-9.9303,-9.8353,-9.8017,-9.7635,-9.7011,-9.7617,-9.7773,-9.7362,-9.6635,-9.6511,-9.6951,-9.6444,-9.6327,-9.66,-9.7847,-9.8548,-9.8821,-9.9561,-10.0497,-10.1393,-10.1705,-10.2094,-10.2484,-10.1315,-10.0497,-9.9912,-9.7824,-9.7216,-9.7447,-9.7362,-9.7376,-9.733,0.0,0.0,0.0,0.0,0.0,0.0,0.0,0.0,0.0,0.0,-8.1683,-8.1956,0.0,0.0,0.0,0.0,0.0,0.0,0.0,-8.2825,-8.2514,-8.2864,-8.2553,-8.333,-8.5389,-8.6632,-8.7176,-8.6982,-8.6632,-8.6282,-8.5972,-8.5777,-8.5777,-8.5972,-8.5972,-8.6321,-8.6992,-8.6486,-8.6582,-8.7049,-8.7055,-8.7042,-8.7066,0.0,0.0,0.0,0.0,0.0,0.0,0.0,0.0,0.0,0.0,0.0,0.0,-8.3195,-8.2883,-8.2818,-8.3849,0.0,0.0,-8.5423,-8.6581,-8.8434,-9.1197,0.0,0.0,0.0,0.0,-9.6561,-9.7574,-9.9055,0.0,-9.8003,-10.0512,-10.2709,-10.2692,-10.2716,-10.2514,-10.2185,-10.1805,-10.1198,-10.0185,-9.9483,-9.8782,-9.8081,-9.7691,-9.7106,-9.6249,-9.6738,-9.6621,-9.5704,-9.5413,-9.5576,-9.6232,-9.5867,-9.6023,-9.6777,-9.7776,-9.8275,-9.8314,-9.9016,-10.0107,-10.1393,-10.1705,-10.2016,-10.2016,-10.0691,-9.9912,-9.9452,-9.8123,-9.761,-9.7606,-9.7593,-9.7593,-9.7472,0.0,0.0,0.0,0.0,0.0,0.0,0.0,0.0,0.0,0.0,-8.1252,-8.1305,0.0,0.0,0.0,0.0,0.0,0.0,0.0,-8.3718,-8.3563,-8.4379,-8.3796,-8.4573,-8.6943,-8.636,-8.636,-8.6982,-8.6049,-8.6399,-8.7914,-8.6321,-8.6515,-8.8186,-8.8108,-8.7681,-8.7001,-8.6977,-8.6972,-8.6981,-8.7067,-8.7142,-8.7209,-8.7213,0.0,0.0,0.0,0.0,0.0,0.0,0.0,0.0,-8.5104,0.0,-8.3663,-8.4364,-8.4065,-8.4022,-8.6339,0.0,0.0,0.0,0.0,0.0,-9.4017,-9.6912,-9.9055,-9.9912,0.0,-10.0302,-10.0185,-10.0185,-10.0185,-10.0192,-10.1508,-10.2582,-10.2588,-10.2582,-10.2309,-10.1419,-10.0604,-9.999,-9.9873,-9.8431,-9.7769,-9.8392,-9.7691,-9.6912,-9.6132,-9.6101,-9.5711,-9.4924,-9.4113,-9.4517,-9.6259,-9.5374,-9.5803,-9.7584,-9.7557,-9.7542,-9.7652,-9.9172,-10.0419,-10.1315,-10.2094,-10.2016,-10.1315,-10.0419,-9.9522,-9.8712,-9.7889,-9.7616,-9.7606,-9.7597,-9.7472,-9.7278,0.0,0.0,0.0,0.0,0.0,0.0,0.0,0.0,0.0,0.0,0.0,0.0,0.0,0.0,0.0,0.0,0.0,0.0,0.0,-8.4612,-8.4185,-8.4379,-8.5544,-8.6399,-8.6982,-8.8108,-8.8147,-8.6982,-8.5428,-8.4884,-8.5233,-8.4845,-8.5622,-8.7254,-8.6554,-8.6535,-8.6971,-8.6324,-8.6077,-8.6163,-8.6929,-8.7228,-8.7215,-8.7259,-8.6835,0.0,0.0,0.0,0.0,0.0,0.0,0.0,-8.5962,-8.5104,-8.4325,-8.3819,-8.401,-8.4548,0.0,-8.6913,0.0,0.0,0.0,0.0,0.0,-9.6912,-9.9055,-9.9912,-10.112,-10.1899,-10.1198,-10.1081,-10.1089,-10.1086,-10.1405,-10.1705,-10.1796,-10.1678,-10.1386,-10.0592,-10.019,-9.9561,-9.8197,-9.773,-9.6989,-9.582,-9.5587,-9.5392,-9.5197,-9.5225,-9.5154,-9.4924,-9.4134,-9.4491,-9.6225,-9.5388,-9.5817,-9.7511,-9.7571,-9.7915,-9.8509,-9.8197,-9.8899,-10.0419,-10.0613,-10.0886,-10.1315,-9.9717,-9.8953,-9.8708,-9.7928,-9.7606,-9.7597,-9.7659,-9.7528,-9.7278,0.0,0.0,0.0,0.0,0.0,0.0,0.0,0.0,0.0,0.0,0.0,0.0,0.0,0.0,0.0,0.0,0.0,0.0,0.0,0.0,-8.5039,-8.5039,-8.6671,-8.7797,-8.8186,-8.9041,-8.8885,-8.7603,-8.6282,-8.5622,-8.5622,-8.4806,-8.5554,-8.7565,-8.6321,-8.5775,-8.5797,-8.5003,-8.4876,-8.5311,-8.5888,-8.6329,-8.6611,-8.6668,-8.6122,-8.5448,-8.5876,0.0,0.0,0.0,0.0,0.0,0.0,0.0,-8.5112,-8.5195,-8.4398,-8.4171,0.0,0.0,0.0,0.0,0.0,0.0,0.0,0.0,0.0,0.0,-10.0808,-10.1315,-10.0886,-10.1096,-10.1313,-10.0788,-10.1113,-10.1105,-10.0407,-10.0598,-10.0294,-9.9083,-9.9261,-9.8782,-9.7067,-9.6873,-9.6483,-9.5587,-9.5119,-9.4885,-9.4885,-9.4556,-9.4166,-9.3716,-9.3308,-9.3705,-9.4991,-9.4952,-9.5615,-9.694,-9.7369,-9.7791,-9.8197,-9.8587,-9.9016,-9.9483,-9.9934,-10.0097,-10.0097,-9.9215,-9.8611,-9.8162,-9.7767,-9.7588,-9.7602,-9.7667,-9.746,-9.7158,0.0,0.0,0.0,0.0,0.0,0.0,0.0,0.0,0.0,0.0,0.0,0.0,0.0,0.0,0.0,0.0,0.0,0.0,0.0,0.0,0.0,-8.5933,-8.7448,-8.8613,-8.9274,-8.9429,-8.9118,-8.8302,-8.7409,-8.6992,-8.6962,-8.536,-8.5864,-8.8019,-8.6182,-8.5027,-8.4324,-8.3376,-8.3365,-8.4072,-8.4254,-8.4834,-8.5549,-8.5564,-8.5117,-8.4494,-8.465,-8.5072,-8.5572,-8.5728,0.0,0.0,0.0,0.0,-8.5338,-8.6272,-8.4637,-8.3784,0.0,0.0,0.0,0.0,0.0,0.0,0.0,0.0,0.0,0.0,0.0,-9.9982,-9.9912,-10.0292,-10.0508,-9.9781,-10.0313,-10.0303,-9.8885,-9.9389,-9.9326,-9.7784,-9.8162,-9.7886,-9.6132,-9.6093,-9.6015,-9.5587,-9.5002,-9.469,-9.469,-9.3911,-9.321,-9.2625,-9.2469,-9.2834,-9.3686,-9.4361,-9.5218,-9.6298,-9.7121,-9.7426,-9.7348,-9.8945,-9.9335,-9.8836,-9.941,-9.9345,-9.8806,-9.872,-9.8191,-9.7416,-9.7554,-9.7524,-9.7416,-9.7628,-9.7415,-9.7005,0.0,0.0,0.0,0.0,0.0,0.0,0.0,0.0,0.0,0.0,-8.3154,0.0,0.0,0.0,0.0,0.0,0.0,0.0,0.0,0.0,0.0,-8.6826,-8.7759,-8.8341,-8.8458,-8.9157,-8.9118,-8.8302,-8.7409,-8.7011,-8.6971,-8.6038,-8.6208,-8.7129,-8.4715,-8.3591,-8.3459,-8.1894,-8.1285,-8.1485,-8.2253,-8.3068,-8.3825,-8.3825,-8.3727,-8.3666,-8.4446,-8.4272,-8.3858,-8.4637,-8.4949,0.0,0.0,0.0,0.0,-8.3852,-8.4101,-8.4564,0.0,0.0,0.0,0.0,0.0,0.0,0.0,0.0,0.0,0.0,0.0,-9.9795,-9.9086,-9.8439,-9.7993,-9.794,-9.8029,-9.804,-9.7793,-9.8508,-9.8714,-9.7714,-9.7642,-9.6989,-9.5236,-9.5743,-9.5275,-9.3054,-9.3482,-9.3872,-9.3872,-9.3054,-9.2859,-9.3521,-9.2781,-9.282,-9.3691,-9.379,-9.4647,-9.6217,-9.7075,-9.7121,-9.6493,-9.7467,-9.8247,-9.8754,-9.8169,-9.8306,-9.8843,-9.8068,-9.7304,-9.6622,-9.7324,-9.7182,-9.6656,-9.7401,-9.7415,-9.7005,0.0,0.0,0.0,0.0,0.0,0.0,0.0,0.0,0.0,0.0,0.0,-8.5053,0.0,0.0,0.0,0.0,0.0,0.0,0.0,0.0,0.0,-8.6982,-8.7836,-8.8302,-8.8302,-8.9079,-8.909,-8.8303,-8.7924,-8.7534,-8.7097,-8.6747,-8.6802,-8.7035,-8.4486,-8.3117,-8.2535,-8.0344,-7.9725,-8.0217,-8.0583,-8.1821,-8.3354,-8.234,-8.2569,-8.3337,-8.2746,-8.2896,-8.3519,-8.4405,-8.4893,-8.5253,-8.5885,0.0,0.0,0.0,0.0,0.0,0.0,0.0,0.0,0.0,0.0,0.0,0.0,0.0,0.0,0.0,0.0,-9.833,-9.7465,-9.7426,-9.7266,-9.6284,-9.6953,-9.7082,-9.5627,-9.6953,-9.7623,-9.6304,-9.6504,-9.6288,-9.5002,-9.4846,-9.434,-9.321,-9.3015,-9.3171,-9.3677,-9.2859,-9.2586,-9.2976,-9.2586,-9.2586,-9.2976,-9.3464,-9.4556,-9.621,-9.6115,-9.6174,-9.6304,-9.6713,-9.707,-9.7421,-9.7556,-9.7806,-9.8129,-9.7797,-9.7455,-9.7116,-9.6995,-9.7003,-9.7128,-9.7011,-9.6986,-9.7005,0.0,0.0,0.0,0.0,0.0,0.0,0.0,0.0,0.0,0.0,0.0,0.0,0.0,0.0,0.0,0.0,0.0,0.0,0.0,0.0,0.0,0.0,-8.7603,-8.7953,-8.7953,-8.8546,-8.8575,-8.7952,-8.8,-8.7703,-8.7191,-8.7191,-8.7199,-8.7103,-8.4793,-8.3148,-8.1977,-7.9613,-7.875,-7.9008,-7.9427,-8.0887,-8.2662,-8.1792,-8.2416,-8.3507,-8.1753,-8.2161,-8.3532,0.0,0.0,0.0,0.0,0.0,0.0,0.0,0.0,0.0,0.0,0.0,0.0,0.0,0.0,0.0,0.0,0.0,0.0,0.0,0.0,-9.6811,-9.568,-9.6451,-9.6856,-9.5537,-9.6428,-9.6512,-9.4351,-9.6064,-9.6894,-9.52,-9.592,-9.6015,-9.4729,-9.4418,-9.4067,-9.3405,-9.2976,-9.2937,-9.3366,-9.2742,-9.2508,-9.2703,-9.2508,-9.2508,-9.2742,-9.3366,-9.434,-9.5548,-9.52,-9.52,-9.5562,-9.6101,-9.6196,-9.5978,-9.7114,-9.7602,-9.7611,-9.7667,-9.7558,-9.7323,-9.6894,-9.6972,-9.7323,-9.6894,-9.683,-9.7005,0.0,0.0,0.0,0.0,0.0,0.0,0.0,0.0,0.0,0.0,0.0,0.0,-8.6671,-8.5467,-8.4845,-8.5583,0.0,0.0,0.0,0.0,0.0,0.0,0.0,0.0,-8.7059,-8.7108,-8.7088,-8.7058,-8.7141,-8.7183,-8.7191,-8.7191,-8.7227,-8.722,-8.542,-8.3737,-8.2066,-8.0289,-7.8651,-7.7379,-7.8974,-8.0157,-8.121,-8.2701,-8.3819,-8.4403,-8.265,-8.2801,0.0,0.0,0.0,0.0,0.0,0.0,0.0,0.0,0.0,0.0,0.0,0.0,0.0,0.0,0.0,0.0,0.0,0.0,0.0,0.0,0.0,0.0,-9.4045,-9.5165,-9.6356,-9.6263,-9.6323,-9.6031,-9.5057,-9.646,-9.6915,-9.5126,-9.6405,-9.6483,-9.3989,-9.5158,-9.508,-9.2664,-9.3171,-9.3288,-9.2508,-9.243,-9.2781,-9.3599,-9.282,-9.282,-9.3599,-9.3677,-9.3755,-9.384,-9.4615,-9.4496,-9.3614,-9.551,-9.5845,-9.4984,-9.6826,-9.7655,-9.7714,-9.7714,-9.7206,-9.6542,-9.7323,-9.7167,-9.6542,-9.7323,-9.7376,-9.7005,0.0,0.0,0.0,0.0,0.0,0.0,0.0,0.0,0.0,0.0,0.0,0.0,0.0,-8.4868,-8.3999,-8.2604,-8.3472,0.0,0.0,0.0,0.0,0.0,0.0,0.0,0.0,-8.6519,-8.6296,-8.6288,-8.5779,-8.5585,-8.5654,-8.5654,-8.5666,-8.5687,-8.5024,-8.4137,-8.2869,-8.0597,-7.891,-7.7965,-7.9094,-8.0407,-8.1616,-8.1097,-8.2844,-8.5143,-8.2299,0.0,0.0,0.0,0.0,0.0,0.0,0.0,0.0,0.0,0.0,0.0,0.0,0.0,0.0,0.0,0.0,0.0,0.0,0.0,0.0,0.0,0.0,0.0,-9.4559,-9.4984,-9.5102,-9.3977,-9.5198,-9.5588,-9.3614,-9.5329,-9.6291,-9.5048,-9.5002,-9.4924,-9.4496,-9.4028,-9.3366,-9.2469,-9.2703,-9.2742,-9.243,-9.2391,-9.282,-9.3677,-9.2859,-9.2547,-9.2859,-9.2859,-9.3419,-9.453,-9.3749,-9.3673,-9.427,-9.5148,-9.4963,-9.4081,-9.5988,-9.6847,-9.6855,-9.6878,-9.6687,-9.6425,-9.6738,-9.666,-9.6418,-9.6547,-9.6429,-9.6205,0.0,0.0,0.0,0.0,0.0,0.0,0.0,0.0,0.0,-8.3882,0.0,0.0,0.0,0.0,-8.347,-8.1834,-8.2712,-8.4202,-8.6312,0.0,0.0,0.0,0.0,0.0,0.0,-8.6296,-8.5882,-8.5916,-8.5097,-8.4735,-8.48,-8.4483,-8.4327,-8.4332,-8.4054,-8.343,0.0,0.0,0.0,-7.8013,0.0,0.0,-8.1214,0.0,0.0,0.0,0.0,0.0,0.0,0.0,0.0,0.0,0.0,0.0,0.0,0.0,0.0,0.0,0.0,0.0,0.0,0.0,0.0,0.0,0.0,0.0,0.0,0.0,0.0,0.0,0.0,0.0,-9.4289,-9.3419,-9.4724,-9.5159,-9.3133,-9.4855,-9.5745,-9.423,-9.4361,-9.4452,-9.4088,-9.3308,-9.2717,-9.2405,-9.2398,0.0,-9.2405,-9.2398,-9.2671,-9.3269,-9.3269,-9.299,-9.2405,-9.2944,-9.3698,-9.455,-9.364,-9.3577,-9.4162,-9.4751,-9.4406,-9.3492,-9.487,-9.5828,-9.6383,-9.6089,-9.6328,-9.6816,-9.6496,-9.6418,-9.6414,-9.6415,-9.6135,-9.5794,0.0,0.0,0.0,0.0,0.0,0.0,0.0,0.0,-8.2264,-8.3042,0.0,0.0,0.0,0.0,0.0,-8.3543,-8.3502,-8.4034,-8.5269,-8.536,0.0,0.0,0.0,0.0,0.0,-8.628,-8.5889,-8.5877,-8.5019,-8.4663,-8.4727,-8.3766,-8.3376,-8.3362,-8.2479,-8.1621,-8.0783,0.0,-7.8603,-7.7316,0.0,-8.1091,-7.9934,0.0,0.0,0.0,-8.1247,-8.3426,0.0,-8.4743,0.0,0.0,0.0,0.0,0.0,0.0,0.0,0.0,0.0,0.0,0.0,0.0,0.0,0.0,0.0,0.0,0.0,0.0,0.0,0.0,0.0,0.0,0.0,-9.479,-9.4979,-9.4699,-9.3801,-9.5154,-9.5278,-9.2781,-9.4673,-9.5204,-9.2678,-9.3185,-9.3302,-9.2477,-9.2412,-9.2405,-9.2399,-9.2412,-9.2444,-9.2399,-9.4082,-9.416,-9.2444,-9.4049,-9.4478,-9.3725,-9.4348,-9.4125,-9.312,-9.4245,-9.4167,-9.319,-9.3542,-9.4705,-9.6265,-9.5426,-9.6054,-9.7554,-9.6714,-9.6401,-9.6449,-9.7071,-9.6593,-9.5794,0.0,0.0,0.0,0.0,0.0,0.0,0.0,0.0,-8.2143,0.0,0.0,0.0,-8.182,-8.0645,-8.08,-8.3167,-8.1649,-8.1758,-8.4582,-8.4396,-8.4676,0.0,0.0,0.0,-8.7137,-8.5819,-8.5081,-8.5092,-8.3653,-8.2975,-8.2979,-8.2023,-8.159,0.0,-8.0046,-7.9247,-7.9042,-7.9427,0.0,-7.8169,-8.0986,-8.1792,0.0,0.0,0.0,0.0,0.0,-8.5534,-8.905,0.0,-8.6922,-8.437,0.0,0.0,0.0,0.0,0.0,0.0,-8.2104,0.0,0.0,0.0,0.0,0.0,0.0,0.0,0.0,0.0,0.0,0.0,0.0,0.0,0.0,0.0,-9.4223,-9.4758,-9.3842,-9.4114,-9.4381,-9.423,-9.3776,-9.3432,-9.3347,-9.2977,-9.2666,0.0,-9.2419,-9.238,-9.2405,-9.3003,-9.3055,-9.2399,-9.3497,-9.3848,-9.3341,-9.3815,-9.4162,-9.4426,-9.3956,-9.3452,-9.2922,-9.3579,-9.3272,-9.2325,-9.3314,-9.4064,-9.4489,-9.4193,-9.4783,-9.585,-9.6011,-9.6103,-9.6161,-9.6605,-9.6191,-9.5501,0.0,0.0,0.0,0.0,0.0,0.0,0.0,0.0,-8.1675,0.0,0.0,0.0,-8.1282,-8.0511,-8.0557,-8.1944,-8.0667,-8.0511,-8.2287,-8.1912,-8.2394,-8.4168,0.0,0.0,0.0,-8.5053,-8.4264,-8.4273,-8.2893,-8.2287,-8.2254,-8.0981,-8.0341,-8.0263,0.0,0.0,0.0,0.0,0.0,0.0,-8.0396,0.0,0.0,-8.4692,-8.5617,0.0,0.0,0.0,-8.8994,-9.0789,-8.8796,0.0,0.0,0.0,0.0,0.0,0.0,0.0,0.0,0.0,0.0,0.0,0.0,0.0,-8.4864,-8.676,-8.8494,0.0,0.0,0.0,0.0,0.0,0.0,0.0,0.0,0.0,-9.3172,-9.3452,-9.3874,-9.4347,-9.3874,-9.3698,-9.4192,-9.3464,-9.2969,-9.2963,-9.2627,-9.2412,-9.2391,-9.2906,-9.2963,-9.2405,-9.3263,-9.3536,-9.3146,-9.4205,-9.4536,-9.418,-9.428,-9.3795,-9.2788,-9.3151,-9.2812,-9.1936,-9.2852,-9.3279,-9.3252,-9.3509,-9.4316,-9.5498,-9.5859,-9.5953,-9.5943,-9.641,-9.6033,-9.5408,0.0,0.0,0.0,0.0,0.0,0.0,0.0,0.0,0.0,0.0,-8.1115,-8.0845,-8.1622,-8.1778,-8.1375,-8.0287,-8.0044,-7.9831,-7.9597,-7.9085,-7.9694,0.0,0.0,0.0,0.0,0.0,-8.3493,-8.3549,-8.2651,-8.2234,-8.2248,-8.0532,-7.9617,-7.9417,0.0,0.0,0.0,0.0,0.0,-7.7451,-7.9483,-8.0099,0.0,0.0,-8.6393,-8.3444,-8.6506,-8.767,-8.8254,-9.1378,-8.9547,0.0,0.0,0.0,0.0,0.0,-8.2221,0.0,0.0,0.0,0.0,0.0,0.0,0.0,-8.4769,-8.5492,-8.6444,-8.9569,0.0,0.0,0.0,0.0,0.0,0.0,0.0,0.0,0.0,-9.3198,-9.3718,-9.3801,-9.458,-9.5007,-9.4864,-9.4162,-9.3666,-9.3647,-9.2873,-9.2391,-9.2391,-9.2456,-9.2474,-9.2405,-9.3146,-9.3224,-9.2561,-9.479,-9.5074,-9.3366,-9.4684,-9.4395,-9.2672,-9.2852,-9.2586,-9.1928,-9.2339,-9.2481,-9.2568,-9.3164,-9.4387,-9.5858,-9.591,-9.5856,-9.5837,-9.6377,-9.6066,-9.5517,0.0,0.0,0.0,0.0,0.0,0.0,0.0,0.0,0.0,-8.0826,-7.9823,-7.9332,-7.9909,-8.0376,-8.0383,-7.9702,-7.8416,-7.8384,-8.0104,-7.9682,0.0,0.0,0.0,0.0,0.0,0.0,-8.3614,-8.3835,-8.2803,-8.2296,-8.2283,-8.0929,-7.9822,-7.8808,0.0,0.0,0.0,0.0,0.0,-7.9047,-7.9512,0.0,-8.2031,-8.6038,-8.8162,-8.9111,-8.9787,-9.0599,-9.1502,-9.2171,-9.0879,-8.8495,0.0,0.0,0.0,-8.2922,0.0,0.0,0.0,0.0,0.0,0.0,0.0,0.0,-8.1909,-8.246,-8.3133,0.0,0.0,0.0,0.0,0.0,0.0,0.0,0.0,0.0,0.0,0.0,-9.3925,-9.4581,-9.4829,-9.4686,-9.4017,-9.3803,-9.3419,-9.2737,-9.2515,-9.2391,-9.2391,-9.2393,-9.2411,-9.2405,-9.2561,-9.2912,-9.3458,-9.392,-9.3842,-9.3174,-9.3446,-9.2961,-9.1768,-9.2037,-9.2122,-9.216,-9.2393,-9.2507,-9.2559,-9.3205,-9.4053,-9.4979,-9.5311,-9.5852,-9.6401,-9.6382,-9.6243,-9.6109,0.0,0.0,0.0,0.0,0.0,0.0,0.0,0.0,-8.0085,-7.9642,-7.9082,-7.8884,-7.9429,-7.9741,-7.963,-7.8942,-7.8123,-7.7967,-7.8675,-7.8402,0.0,0.0,0.0,0.0,0.0,0.0,0.0,-8.3107,-8.2105,-8.1828,-8.2196,-8.0295,-7.9778,-8.0324,-7.803,0.0,0.0,0.0,-7.7496,-7.8359,-7.9492,0.0,-8.3732,-8.6912,-8.8435,-8.9086,-8.9957,-9.0638,-9.1112,-9.1112,-8.967,0.0,0.0,-8.6312,-8.5611,0.0,-8.4026,-8.4311,0.0,0.0,0.0,-8.2796,0.0,0.0,0.0,-8.2522,-8.2955,0.0,0.0,0.0,0.0,0.0,0.0,0.0,0.0,0.0,0.0,0.0,0.0,-9.5431,-9.5569,-9.5615,-9.5654,-9.5245,-9.4459,-9.3132,-9.3029,-9.288,-9.243,-9.2405,-9.2419,-9.2419,-9.2419,-9.2614,-9.3042,-9.3375,-9.3192,-9.2469,-9.2891,-9.2547,-9.1498,-9.1887,-9.2082,-9.221,-9.2407,-9.2446,-9.2438,-9.3522,-9.4094,-9.4394,-9.5036,-9.5788,-9.6437,-9.6361,-9.6288,-9.6249,0.0,0.0,0.0,0.0,0.0,0.0,0.0,0.0,0.0,-7.8481,-7.877,-7.9142,-7.9454,-7.9805,-7.9727,-7.9104,-7.9026,-7.8441,-7.7071,0.0,0.0,0.0,0.0,-7.913,0.0,0.0,0.0,0.0,-8.0969,-8.0723,-8.1129,-7.9037,-7.9182,-8.1093,0.0,0.0,0.0,0.0,0.0,-7.8119,0.0,-8.1691,-8.3748,-8.641,-8.7141,-8.6968,-8.8962,-8.9703,-8.9703,-8.9157,-8.7754,-8.639,-8.7248,-8.6546,0.0,0.0,0.0,0.0,0.0,0.0,0.0,0.0,0.0,-8.2351,0.0,0.0,0.0,0.0,0.0,0.0,0.0,0.0,0.0,0.0,0.0,0.0,0.0,0.0,0.0,0.0,-9.6005,-9.6603,-9.6837,-9.6057,-9.5037,-9.3801,-9.3393,-9.2971,-9.243,-9.2391,-9.2391,-9.2391,-9.2391,-9.2391,-9.2398,-9.2896,-9.2703,-9.1823,-9.2515,-9.2429,-9.1579,-9.2022,-9.2197,-9.2197,-9.2383,-9.2306,-9.2226,-9.3536,-9.4047,-9.4126,-9.5107,-9.582,-9.6288,-9.6288,-9.6211,-9.5942,-8.2092,-8.1591,0.0,0.0,0.0,0.0,0.0,0.0,0.0,-7.7323,-7.8948,-8.0039,-7.9571,0.0,0.0,0.0,0.0,0.0,-7.7182,0.0,0.0,0.0,0.0,0.0,-8.1972,0.0,0.0,0.0,-7.951,-7.8481,-7.7584,-7.7272,-7.7311,0.0,-7.953,0.0,0.0,0.0,-8.081,0.0,-8.0968,-8.0068,0.0,-8.1031,-8.3091,-8.5338,-8.8098,-8.9391,-8.943,0.0,-8.6462,-8.6702,0.0,-8.5845,-8.7326,-8.3507,0.0,0.0,0.0,0.0,0.0,0.0,-8.2316,0.0,0.0,0.0,-8.0143,-8.0263,0.0,0.0,0.0,0.0,0.0,0.0,0.0,0.0,0.0,0.0,0.0,0.0,-9.5048,-9.6529,-9.4347,-9.3334,-9.31,-9.3645,-9.2281,-9.169,-9.2352,-9.2391,-9.2391,-9.2391,-9.2391,-9.2405,-9.2399,-9.2285,-9.2103,-9.1816,-9.195,-9.1972,-9.1844,-9.2074,-9.2182,-9.2113,-9.2204,-9.2035,-9.1822,-9.2626,-9.3432,-9.4225,-9.5619,-9.6248,-9.6288,-9.6288,-9.5826,-9.5134,-8.0871,-8.0413,0.0,0.0,0.0,0.0,0.0,0.0,0.0,-7.7038,-7.7818,-7.8831,0.0,0.0,0.0,0.0,0.0,-8.0117,0.0,0.0,0.0,0.0,0.0,0.0,0.0,0.0,0.0,0.0,-7.8808,0.0,-7.7022,-7.7502,0.0,0.0,-8.1076,0.0,-8.1482,0.0,-8.1949,0.0,0.0,0.0,0.0,-8.2416,-8.4481,-8.5611,-8.6819,-8.7404,-8.7404,0.0,-8.5455,0.0,0.0,0.0,0.0,0.0,0.0,0.0,0.0,0.0,0.0,0.0,0.0,0.0,-8.1549,0.0,-8.0459,0.0,0.0,0.0,0.0,0.0,0.0,0.0,-8.5253,0.0,0.0,0.0,0.0,0.0,0.0,0.0,-9.4418,-9.4963,-9.508,-9.4418,-9.3716,-9.3054,-9.243,-9.2391,-9.2391,-9.2391,-9.2391,-9.2405,-9.2399,-9.2064,-9.1861,-9.1789,-9.1883,-9.1915,-9.1915,-9.2057,-9.2129,-9.2129,-9.1983,-9.1756,-9.1591,-9.2465,-9.3192,-9.3928,-9.5093,-9.5865,-9.6288,-9.6288,-9.5749,-9.4903,-7.8394,0.0,0.0,0.0,0.0,0.0,0.0,0.0,0.0,0.0,0.0,0.0,-7.9304,-8.059,0.0,0.0,-8.1364,-8.1597,0.0,0.0,-7.9883,0.0,0.0,0.0,0.0,0.0,0.0,0.0,0.0,0.0,0.0,0.0,0.0,0.0,0.0,-8.2793,-8.3972,0.0,-8.3152,-8.226,-8.2377,-8.1636,-8.074,-8.378,-8.5221,-8.565,-8.565,-8.565,-8.5611,-8.5377,-8.4442,0.0,-8.7046,0.0,0.0,0.0,0.0,0.0,-8.1811,0.0,0.0,0.0,0.0,0.0,0.0,0.0,0.0,0.0,0.0,0.0,0.0,0.0,0.0,0.0,0.0,-8.7643,0.0,0.0,0.0,0.0,0.0,0.0,0.0,-9.4846,-9.5236,-9.395,-9.3872,-9.3521,-9.282,-9.2547,-9.2508,-9.2742,-9.2508,-9.2295,-9.2066,-9.1908,-9.1727,-9.1548,-9.1809,-9.1946,-9.1967,-9.1832,-9.1864,-9.2026,-9.1473,-9.1254,-9.1345,-9.2327,-9.307,-9.3734,-9.4654,-9.5518,-9.6288,-9.6019,-9.5249,-9.421,-7.4238,-7.6283,0.0,0.0,0.0,0.0,0.0,0.0,0.0,0.0,0.0,0.0,0.0,0.0,0.0,0.0,0.0,-8.6274,-8.4676,0.0,-8.2766,0.0,0.0,-7.9442,0.0,0.0,0.0,0.0,0.0,0.0,0.0,0.0,0.0,0.0,0.0,-8.2131,-8.2284,-8.395,-8.5111,-8.5689,-8.4013,-8.4325,-8.5494,0.0,-8.3273,-8.4754,-8.4754,0.0,0.0,-8.378,-8.3429,-8.3429,0.0,0.0,0.0,0.0,0.0,0.0,0.0,0.0,0.0,-8.1148,0.0,0.0,0.0,0.0,-8.1005,0.0,0.0,0.0,0.0,0.0,0.0,0.0,0.0,0.0,0.0,0.0,0.0,0.0,0.0,0.0,0.0,-9.0794,-9.13,-9.1222,-9.1222,-9.1924,-9.356,-9.2859,-9.2781,-9.3638,-9.2859,-9.2035,-9.1236,-9.1617,-9.1516,-9.0935,-9.1578,-9.1986,-9.215,-9.1264,-9.1157,-9.1645,-9.0596,-9.0465,-9.1084,-9.2115,-9.2997,-9.3787,-9.4634,-9.5518,-9.6211,-9.5326,-9.398,-9.2595,0.0,0.0,0.0,0.0,0.0,0.0,0.0,-7.7005,0.0,0.0,0.0,0.0,0.0,-8.402,-8.4877,0.0,0.0,-8.5299,-8.4754,-8.2533,0.0,0.0,0.0,-7.7788,0.0,0.0,0.0,0.0,0.0,0.0,0.0,0.0,0.0,0.0,0.0,-8.2513,0.0,0.0,0.0,0.0,0.0,-8.5143,-8.5104,0.0,-8.5066,-8.5494,-8.491,-8.4689,0.0,-8.5025,-8.4373,-8.3844,-8.6145,-8.5666,-8.4674,-8.6679,-8.6479,-8.5459,0.0,0.0,-8.4774,-8.1659,0.0,0.0,0.0,0.0,0.0,0.0,0.0,0.0,0.0,0.0,0.0,0.0,0.0,0.0,0.0,0.0,0.0,0.0,0.0,0.0,0.0,0.0,-9.2352,-9.1183,-9.2158,-9.282,-9.2859,-9.2547,-9.2547,-9.282,-9.2568,-9.2294,-9.2061,-9.1889,-9.1791,-9.1768,-9.186,-9.2025,-9.2197,-9.1645,-9.1576,-9.1784,-9.1037,-9.079,-9.1066,-9.2098,-9.2943,-9.3696,-9.4654,-9.4826,-9.4595,-9.4903,-9.4287,-9.3287,-7.1937,0.0,0.0,0.0,0.0,0.0,0.0,0.0,0.0,0.0,-8.88,0.0,-8.6559,0.0,-8.6754,0.0,-8.5728,-8.5533,-8.4325,-8.2961,0.0,-8.2533,-7.9635,0.0,0.0,0.0,0.0,0.0,0.0,-7.5555,0.0,0.0,0.0,0.0,0.0,-8.2182,-8.6001,0.0,-8.7326,0.0,0.0,-8.5728,0.0,0.0,-8.5611,-8.4988,0.0,-8.4239,-8.4334,-8.4891,-8.4595,-8.4415,-8.6902,-8.634,-8.527,-8.7816,-8.7409,-8.6149,-8.6379,-8.6835,0.0,-8.3479,-8.3484,0.0,-8.0825,0.0,0.0,0.0,0.0,0.0,0.0,0.0,0.0,0.0,0.0,0.0,0.0,-8.7027,0.0,0.0,0.0,0.0,0.0,0.0,-9.1197,-9.0677,-9.169,-9.2469,-9.2859,-9.2859,-9.2859,-9.2859,-9.2854,-9.2555,-9.1918,-9.1935,-9.1888,-9.1729,-9.1932,-9.1973,-9.1871,-9.1452,-9.1318,-9.1417,-9.0812,-9.0777,-9.1121,-9.1751,-9.2674,-9.3676,-9.4,-9.4326,-9.4634,-9.4557,-9.398,-9.3403,0.0,0.0,0.0,0.0,-7.505,0.0,0.0,0.0,-7.8435,0.0,-8.8176,-9.1106,-8.7767,-8.9365,-8.9443,-8.639,-8.7566,-8.7105,-8.3792,-8.4305,0.0,0.0,-8.2538,-8.2367,-8.3201,0.0,0.0,0.0,0.0,0.0,0.0,0.0,0.0,0.0,-7.8519,0.0,-8.5884,-8.5066,-8.6663,-8.9586,-8.7832,-8.6118,-8.4676,-8.565,-8.491,-8.3396,-8.3465,-8.3477,-8.3488,-8.3586,-8.4147,-8.4961,-8.5788,-8.6635,-8.7454,-8.8313,-8.8599,-8.8506,-8.7765,-8.7515,-8.7258,-8.6373,-8.4902,0.0,0.0,0.0,-8.1832,0.0,0.0,0.0,0.0,0.0,0.0,0.0,0.0,0.0,0.0,0.0,0.0,0.0,0.0,0.0,0.0,0.0,-8.7987,-8.9547,-8.9742,-9.095,0.0,-9.3599,-9.3638,-9.3755,-9.3718,-9.2827,-9.0941,-9.1762,-9.177,-9.0911,-9.1729,-9.1838,-9.1265,-9.0738,-9.0552,-9.0641,-9.0079,-9.037,-9.121,-9.1248,-9.221,-9.3557,-9.2903,-9.4095,-9.598,-9.4364,-9.3287,-9.2979,-6.8645,-6.9947,-7.1326,0.0,-7.3347,-7.4739,0.0,0.0,0.0,0.0,-8.8898,-9.1827,-9.0255,-9.0053,-8.943,-8.7988,-8.8233,0.0,0.0,0.0,0.0,-8.5298,-8.1991,-8.0877,-8.238,-7.9075,0.0,-7.593,0.0,0.0,-7.4116,0.0,0.0,0.0,0.0,0.0,-8.5027,-8.4793,-8.6312,-8.8689,-8.6975,-8.4871,-8.3,0.0,-8.4929,-8.3465,-8.4134,-8.44,-8.4551,-8.5218,-8.5153,-8.5044,-8.6527,-8.7136,-8.7598,-8.9085,-8.9534,-8.9723,-9.0801,-9.0638,-8.9774,-8.8305,-8.7103,-8.5827,-8.3937,0.0,0.0,0.0,0.0,0.0,0.0,0.0,0.0,0.0,0.0,0.0,0.0,0.0,0.0,0.0,0.0,0.0,0.0,-8.6955,-8.8112,-8.7871,-8.9079,-9.095,-9.356,0.0,-9.2625,-9.4535,-9.401,-9.34,-9.274,-9.2386,-9.1761,-9.0911,-9.1144,-9.1253,-9.1265,-9.0803,-9.0923,-9.1534,-9.1068,-9.1,-9.1248,-9.1902,-9.2402,-9.2903,-9.3941,-9.4364,-9.4403,-9.4595,-9.4518,-9.4441,-6.7631,0.0,0.0,-7.0536,0.0,0.0,-7.5558,-7.7584,0.0,-8.3156,-8.6514,0.0,-8.8845,-8.9442,-8.9437,-8.8579,-8.8507,0.0,-8.5688,0.0,0.0,-8.4336,-8.2671,-8.2053,-8.2674,-7.9666,0.0,-7.5644,0.0,0.0,-7.2557,0.0,0.0,0.0,0.0,-7.8753,0.0,-8.4208,-8.5299,-8.6235,-8.565,-8.4559,0.0,-8.5279,-8.5381,-8.4551,-8.4678,-8.478,-8.4802,-8.4931,-8.4895,-8.5048,-8.6336,-8.698,-8.7549,-8.8884,-8.9534,-9.0119,-9.1463,-9.1775,-9.1463,-9.0489,-8.9592,-8.8389,-8.6223,-8.6145,-8.6535,0.0,-8.6295,-8.6685,0.0,0.0,0.0,0.0,0.0,0.0,0.0,0.0,0.0,0.0,0.0,0.0,0.0,-8.7046,-8.8164,-8.7287,-8.8105,-8.9313,0.0,0.0,-9.2165,-9.3198,-9.4289,-9.4374,-9.3389,-9.2685,-9.1853,-9.0911,-9.0618,-9.0534,-9.054,-9.0583,-9.0802,-9.1151,-9.1175,-9.121,-9.1248,-9.1748,-9.2172,-9.2633,-9.3941,-9.3903,-9.3326,-9.4557,-9.4749,-9.4711,0.0,0.0,0.0,0.0,0.0,0.0,0.0,-7.696,0.0,-8.2104,0.0,-8.5078,-8.6377,-8.8379,-8.9324,-8.8552,0.0,-8.7186,-8.4099,-8.609,-8.5894,-8.2573,-8.3909,-8.4235,-8.3259,-8.0797,0.0,0.0,0.0,0.0,0.0,0.0,0.0,0.0,0.0,0.0,0.0,-8.3507,-8.4208,-8.378,-8.4169,-8.4442,-8.4604,-8.5376,-8.5755,-8.5746,-8.5062,-8.4798,-8.4689,-8.3926,-8.4154,-8.495,-8.5863,-8.6701,-8.7487,-8.8391,-8.9261,-9.0099,-9.1041,-9.1877,-9.2474,-9.2405,-9.1814,-9.0879,-8.928,-8.8422,-8.8143,-8.8773,-8.7142,-8.6908,-9.1385,0.0,0.0,0.0,0.0,0.0,0.0,0.0,0.0,0.0,0.0,0.0,0.0,0.0,-8.7747,-8.6936,-8.6858,0.0,0.0,0.0,-9.186,-9.1781,-9.4576,-9.5321,-9.378,-9.3008,-9.2045,-9.0872,-9.0413,-8.9979,-8.9611,-9.0295,-9.045,-9.0256,-9.1017,-9.1325,-9.121,-9.1325,-9.1825,-9.2556,-9.3133,-9.3095,-9.2864,-9.4557,-9.4595,-9.4403,0.0,0.0,0.0,0.0,0.0,-7.5791,-7.8636,-8.1948,-8.4403,-8.5221,-8.7326,-8.8851,-8.9095,-8.888,-8.8678,-8.8512,-8.8505,0.0,0.0,0.0,0.0,-8.4351,-8.4529,-8.3972,-8.2374,-8.0479,-7.8246,0.0,0.0,0.0,0.0,0.0,0.0,0.0,0.0,0.0,-8.1948,-8.3117,0.0,-8.5377,-8.3351,-8.3,-8.3624,-8.3786,-8.4334,-8.5005,-8.4849,-8.4785,-8.4767,-8.4629,-8.465,-8.5088,-8.66,-8.7164,-8.761,-8.9202,-8.9729,-9.0145,-9.173,-9.2308,-9.2405,-9.2398,-9.2281,-9.1899,-9.0879,-9.1093,-9.1353,-9.0801,-9.03,-9.0249,-9.1158,0.0,0.0,0.0,0.0,0.0,0.0,0.0,0.0,0.0,0.0,0.0,0.0,0.0,0.0,0.0,0.0,0.0,0.0,0.0,-9.108,0.0,-9.512,-9.5149,0.0,-9.4067,-9.2522,-9.0911,-9.1037,-9.0559,-8.9611,-9.0295,-9.0462,-9.0348,-9.1672,-9.1864,-9.1248,-9.1979,-9.2364,-9.2441,-9.1864,-9.2402,-9.371,-9.5441,-9.5518,-9.498,0.0,0.0,0.0,0.0,0.0,0.0,0.0,-8.4442,-8.6143,-8.4805,-8.5707,-8.6484,-8.6469,-8.7303,-8.7811,-8.784,-8.7823,-8.7648,-8.7224,-8.7208,-8.6468,-8.4754,-8.4286,0.0,-8.2143,-8.1286,-7.8948,-7.5012,0.0,0.0,-6.9284,0.0,0.0,0.0,0.0,-7.8324,0.0,0.0,0.0,-8.3858,-8.2611,-8.3156,-8.4682,-8.429,-8.4668,-8.5434,-8.5444,-8.5457,-8.5469,-8.5477,-8.5448,-8.5643,-8.6891,-8.7259,-8.7514,-8.8851,-8.952,-9.0144,-9.1392,-9.2093,-9.2438,-9.2398,-9.2391,-9.2274,-9.1866,-9.2087,-9.2158,-9.1282,-9.1093,-9.0976,-9.0509,-8.9716,-8.9287,0.0,0.0,0.0,0.0,0.0,0.0,0.0,0.0,0.0,0.0,0.0,0.0,0.0,0.0,-8.6007,-8.8989,0.0,-9.0339,0.0,0.0,0.0,-9.6218,0.0,-9.302,-9.1715,-9.1315,-9.0736,-9.0137,-9.078,-9.0945,-9.0844,-9.1989,-9.2249,-9.1902,-9.2326,-9.2479,-9.2441,-9.2056,-9.2633,-9.3903,-9.5672,-9.6019,-9.5903,0.0,-6.8349,0.0,0.0,-7.6921,0.0,-8.2961,-8.5558,-8.6467,-8.4476,-8.4209,-8.4196,-8.4216,-8.5988,-8.7209,-8.719,-8.7192,-8.7209,-8.7209,-8.6468,-8.5611,-8.4754,-8.3858,-8.2922,-8.1831,-8.1831,-7.9493,0.0,0.0,0.0,-6.8855,0.0,0.0,0.0,0.0,0.0,0.0,0.0,-8.2299,-8.265,-8.2455,-8.3825,-8.5903,-8.5092,-8.5307,-8.6019,-8.6077,-8.6198,-8.6359,-8.6354,-8.621,-8.6167,-8.7025,-8.7241,-8.741,-8.8527,-8.9331,-9.0089,-9.1112,-9.1904,-9.2462,-9.2412,-9.2391,-9.2391,-9.2412,-9.2398,-9.2197,-9.1502,-9.1378,-9.0995,-8.9735,-8.9411,-8.9709,0.0,0.0,0.0,0.0,0.0,0.0,0.0,0.0,0.0,0.0,0.0,0.0,0.0,0.0,-8.5441,-8.722,-8.796,-8.951,-9.2134,-9.4273,-9.5533,-9.5832,0.0,-9.3686,-9.2962,-9.1931,-9.1331,-9.1079,-9.1372,-9.1485,-9.1518,-9.221,-9.271,-9.2979,-9.2633,-9.2595,-9.2749,-9.2556,-9.3095,-9.4172,-9.5903,-9.6442,-9.6634,0.0,0.0,0.0,0.0,0.0,0.0,-8.3234,-8.5551,-8.7124,-8.6861,-8.6822,-8.6823,-8.6842,-8.7059,-8.7186,-8.7202,-8.7215,-8.7209,-8.7209,-8.6468,-8.5611,-8.4754,-8.3858,-8.2611,-8.0974,-8.0935,-7.9181,0.0,0.0,-7.2674,0.0,0.0,0.0,0.0,0.0,0.0,-8.1636,-8.1948,-8.3,-8.4403,-8.3585,-8.4383,-8.5894,-8.5036,-8.5253,-8.6015,-8.6019,-8.6527,-8.719,-8.7185,-8.6662,-8.6134,-8.7025,-8.7241,-8.752,-8.9196,-8.9748,-9.0177,-9.1814,-9.2359,-9.2405,-9.2393,-9.2412,-9.2405,-9.2474,-9.2438,-9.2398,-9.2315,-9.2295,-9.1534,-8.9086,-9.0482,-9.1846,0.0,0.0,0.0,0.0,0.0,0.0,0.0,0.0,0.0,0.0,-8.8105,0.0,0.0,-8.5564,-8.5465,-8.722,-8.7376,-8.8602,-9.1247,-9.2058,-9.2969,-9.4016,-9.4484,-9.4666,-9.4549,-9.3677,-9.3017,-9.2581,-9.1832,-9.1809,-9.2364,-9.2441,-9.3364,-9.4634,-9.3133,-9.2941,-9.3518,-9.2787,-9.348,-9.5057,-9.6788,-9.6942,-9.6557,0.0,0.0,0.0,0.0,0.0,0.0,0.0,-8.657,-8.7394,-8.7929,-8.7537,-8.7405,-8.7926,-8.752,-8.7186,-8.7215,-8.7209,-8.7209,-8.7209,-8.5962,-8.5066,-8.4715,-8.3351,-8.2299,-8.1597,-8.1091,-7.9376,0.0,0.0,0.0,0.0,0.0,-7.2557,-7.7155,-8.0389,-8.1636,-8.1403,-8.3,-8.4052,-8.4682,-8.4311,-8.4908,-8.5978,-8.5604,-8.5702,-8.6116,-8.6605,-8.7048,-8.7417,-8.7916,-8.7504,-8.683,-8.7181,-8.7643,-8.8293,-8.9502,-9.0216,-9.0891,-9.2074,-9.238,-9.2386,-9.2399,-9.2419,-9.2405,-9.2411,-9.2425,-9.2391,-9.2405,-9.2398,-9.208,-9.1028,-9.0833,-9.1222,-9.2469,0.0,0.0,0.0,0.0,0.0,0.0,0.0,0.0,0.0,0.0,0.0,0.0,0.0,-8.6539,-8.7259,-8.829,-8.9593,-9.1169,0.0,-9.3588,-9.4563,-9.4856,-9.4925,-9.48,-9.4812,-9.4396,-9.3582,-9.3592,-9.3466,-9.3172,-9.2172,-9.2402,-9.3403,-9.221,-9.221,-9.2979,-9.3172,-9.3941,-9.5249,-9.748,-9.7442,-9.6557,-7.7038,0.0,-7.8831,0.0,-8.3816,-8.4722,-8.6851,-8.7438,-8.789,-8.8786,-8.8131,-8.7814,-8.843,-8.7949,-8.7481,-8.7209,-8.7209,-8.7092,-8.6858,-8.5494,-8.4598,-8.4325,-8.2883,0.0,-8.1714,-8.113,-7.9688,-7.7389,-7.5012,0.0,0.0,-7.2323,-7.4739,-7.8285,-8.2104,-8.3117,-8.2065,-8.4208,-8.5066,-8.5072,-8.5064,-8.5588,-8.6379,-8.641,-8.6428,-8.6558,-8.7126,-8.7373,-8.751,-8.8316,-8.8178,-8.7738,-8.7966,-8.8506,-8.913,-8.9988,-9.0707,-9.1337,-9.2165,-9.2386,-9.2354,-9.2087,-9.2029,-9.2009,-9.2003,-9.2022,-9.208,-9.2352,-9.2391,-9.2391,-9.2391,-9.1378,-9.1183,-9.3015,0.0,0.0,0.0,0.0,0.0,0.0,-9.1821,-9.0716,-9.0716,0.0,0.0,0.0,0.0,0.0,-8.8105,-8.9218,-9.0164,0.0,0.0,0.0,-9.3938,-9.4739,-9.5075,-9.508,-9.5486,-9.5235,-9.4389,-9.4797,-9.4403,-9.3287,-9.2364,-9.2287,-9.2787,-9.1672,-9.2018,-9.3249,-9.3595,-9.4403,-9.5634,-9.7673,-9.7519,-9.6519,-8.1013,-8.2026,-8.3078,-8.6546,-8.7858,-8.8149,-8.7329,-8.7929,-8.8813,-8.9668,-8.9042,-8.8495,-8.8495,-8.8495,-8.8144,-8.7287,-8.7209,-8.6858,-8.6079,-8.5182,-8.4325,0.0,0.0,-8.1714,-8.0812,-8.0812,-7.9961,-7.8285,0.0,0.0,-7.5674,-7.7389,-7.9104,-8.0851,-8.3507,-8.4676,-8.4715,-8.5611,-8.5962,-8.5968,-8.596,-8.6496,-8.7302,-8.7369,-8.7377,-8.7377,-8.7417,-8.7417,-8.7534,-8.8314,-8.8609,-8.8735,-8.961,-8.9871,-9.0027,-9.0846,-9.108,-9.1307,-9.2165,-9.2391,-9.2204,-9.134,-9.1132,-9.1112,-9.1106,-9.1132,-9.1378,-9.2235,-9.2391,-9.2391,-9.2391,-9.2391,-9.2391,-9.243,0.0,0.0,0.0,0.0,0.0,0.0,-8.9858,-8.982,-8.982,-8.9852,0.0,0.0,0.0,0.0,0.0,0.0,-8.9914,-8.9914,-9.0777,-9.1245,-9.1245,-9.3802,-9.5303,-9.5684,-9.5684,-9.5454,-9.4998,-9.4998,-9.4095,-9.2556,-9.3326,-9.3672,-9.3557,-9.1902,-9.2672,-9.4864,-9.4018,-9.4749,-9.6365,-9.7211,-9.7019,-9.6442,-8.4325,-8.4754,-8.526,-8.6897,-8.7429,-8.7501,-8.7257,-8.7451,-8.8131,-8.9621,-8.9573,-8.9625,-9.0209,-8.9196,-8.8144,0.0,-8.7209,-8.6858,0.0,-8.5182,-8.4325,-8.3429,-8.2572,-8.1948,-8.1675,-8.0506,-7.9649,-7.9104,0.0,-7.5402,-7.661,-7.7779,-7.9493,-8.1753,-8.3195,-8.3468,-8.3,-8.4481,-8.5104,-8.5228,-8.6412,-8.7058,-8.7302,-8.7369,-8.7386,-8.7397,-8.7382,-8.7386,-8.7592,-8.9021,-8.9506,-8.9754,-9.1192,-9.1214,-9.0762,-9.1009,-9.1957,-9.2945,-9.3224,-9.3288,-9.3061,-9.2198,-9.1561,-9.1112,-9.1106,-9.1561,-9.208,-9.2352,-9.2391,-9.2391,-9.2391,-9.2391,-9.2391,-9.2391,-9.2391,0.0,-9.2391,0.0,0.0,0.0,-9.1573,-9.1573,-9.1573,-9.158,0.0,0.0,0.0,0.0,0.0,0.0,0.0,-8.993,-9.1328,-9.2077,-9.2104,-9.3967,-9.4887,-9.4818,-9.5235,-9.4968,-9.4095,-9.3557,-9.2979,-9.2441,-9.1518,-9.1441,-9.1941,-9.1441,-9.2364,-9.4134,-9.4441,-9.5288,-9.6403,-9.7211,-9.698,-9.6442,-8.6274,-8.6468,-8.6722,-8.7549,-8.7947,-8.8195,-8.8199,-8.8195,-8.8662,-9.0099,-8.9703,-8.9781,-9.0989,-8.9858,-8.8651,-8.7754,-8.7404,-8.6702,-8.5572,-8.4988,-8.4169,-8.2961,-8.2377,-8.226,-8.2572,-8.1208,-8.0467,-8.0467,-7.7662,-7.7038,-7.8441,-7.9337,-8.074,-8.2611,-8.3507,-8.3585,-8.3156,-8.4247,-8.4877,-8.5286,-8.6389,-8.7034,-8.7355,-8.7382,-8.7397,-8.7404,-8.7393,-8.7397,-8.7677,-8.9337,-8.9896,-9.0183,-9.1933,-9.206,-9.16,-9.1594,-9.2113,-9.2789,-9.3107,-9.2742,-9.2165,-9.199,-9.1275,-9.0684,-9.1015,-9.1782,-9.2391,-9.2391,-9.2391,-9.2391,-9.2391,-9.2391,-9.2391,-9.2391,-9.2391,-9.2391,-9.2391,0.0,0.0,0.0,0.0,0.0,0.0,-9.1424,-9.1256,0.0,0.0,0.0,0.0,0.0,-9.1319,-9.0881,-9.1925,-9.2674,-9.2971,-9.429,-9.4902,-9.4885,-9.4762,-9.4514,-9.4134,-9.3018,-9.2672,-9.2903,-9.1787,-9.1479,-9.171,-9.2018,-9.2749,-9.3787,-9.4634,-9.5518,-9.6365,-9.6865,-9.6749,-9.6365,-8.7053,-8.7254,-8.7537,-8.8295,-8.9173,-8.9759,-8.9639,-8.9666,-9.0014,-9.0911,-8.9586,-8.9235,-9.0989,-9.0404,-8.9547,-8.8689,-8.7793,-8.6585,-8.4988,-8.4871,-8.413,-8.2455,-8.2377,-8.2689,-8.339,-8.2533,-8.2065,-8.2026,-8.0389,-8.0117,-8.1091,-8.1831,-8.2689,-8.3624,-8.4286,-8.4598,-8.4598,-8.4676,-8.5169,-8.5939,-8.6044,-8.6614,-8.7382,-8.7401,-8.7404,-8.7407,-8.7486,-8.7486,-8.7755,-8.9415,-8.9974,-9.0256,-9.1904,-9.2419,-9.2398,-9.2315,-9.1814,-9.1457,-9.2204,-9.1261,-9.0248,-9.0989,-9.0599,-9.017,-9.095,-9.1807,-9.2469,-9.243,-9.2391,-9.2391,-9.2391,-9.2391,-9.2391,-9.2391,-9.2391,-9.2391,-9.2391,-9.2391,0.0,0.0,0.0,-8.9975,-8.9975,-8.9963,-9.0624,0.0,0.0,0.0,0.0,0.0,-9.0707,-9.2443,-9.2482,-9.2912,-9.381,-9.4618,-9.5239,-9.555,-9.4226,-9.4018,-9.4672,-9.3133,-9.2826,-9.3518,-9.3518,-9.3172,-9.2633,-9.3403,-9.3749,-9.3941,-9.4749,-9.5595,-9.6288,-9.6288,-9.6288,-9.6288,-8.717,-8.776,-8.8053,-8.7603,-8.8789,-8.9336,-8.8035,-8.8384,-8.9118,-8.9975,-8.9742,-9.017,-9.1885,-9.13,-9.0443,-8.9586,-8.8689,-8.7754,-8.6663,-8.6624,-8.6157,-8.5104,-8.5066,-8.4559,-8.3429,-8.2533,-8.1753,-8.113,-8.0701,-8.1636,-8.378,-8.3312,-8.3897,-8.5338,-8.4208,-8.3702,-8.3741,-8.4403,-8.4812,-8.5114,-8.6473,-8.716,-8.7382,-8.7401,-8.7404,-8.7486,-8.8149,-8.8383,-8.8653,-9.0313,-9.0872,-9.108,-9.206,-9.2419,-9.2274,-9.158,-9.221,-9.299,-9.2508,-9.2586,-9.2664,-9.2197,-9.1944,-9.1646,-9.119,-9.2295,-9.3205,-9.2554,-9.2391,-9.2391,-9.2391,-9.2391,-9.2391,-9.2391,-9.2391,-9.2391,-9.2391,-9.2391,-9.2235,0.0,-9.1768,-9.1768,-9.1768,-9.1775,-9.1444,0.0,0.0,-9.0501,-9.0508,-9.0113,-9.0707,-9.2443,-9.2482,-9.2912,-9.381,-9.4325,-9.444,-9.4161,-9.3222,-9.2556,-9.2095,-9.171,-9.1595,-9.1787,-9.1787,-9.2402,-9.3441,-9.3633,-9.448,-9.5711,-9.5903,-9.6134,-9.6288,-9.6288,-9.6288,-9.6288,-8.7715,-8.817,-8.8591,-8.8928,-8.9759,-9.0204,-8.9652,-8.9631,-9.0014,-9.0872,-9.0287,-9.0443,-9.2197,-9.1612,-9.0911,-9.0443,-8.9586,-8.8573,-8.7287,-8.7559,-8.7248,-8.604,-8.6001,-8.5572,-8.4598,-8.3351,-8.2455,-8.1987,-8.2377,-8.3312,-8.4676,-8.4208,-8.491,-8.6468,-8.4754,-8.4403,-8.5104,-8.4812,-8.4914,-8.537,-8.6375,-8.7018,-8.746,-8.783,-8.7986,-8.8057,-8.8966,-8.9278,-8.9462,-9.0764,-9.1169,-9.1292,-9.2159,-9.2405,-9.2235,-9.1378,-9.1768,-9.2508,-9.243,-9.2158,-9.1885,-9.1807,-9.2419,-9.2789,-9.1892,-9.2731,-9.3452,-9.2593,-9.2391,-9.2391,-9.2391,-9.2391,-9.2391,-9.2391,-9.1729,-9.1495,-9.2274,-9.1729,-9.1495,-9.2313,-9.2391,-9.2391,-9.2391,-9.2391,-9.2022,-9.1136,-9.1103,0.0,-9.1097,-9.1101,-9.1535,-9.2482,-9.2482,-9.3088,-9.4251,-9.5009,-9.5075,-9.4431,-9.3915,-9.3403,-9.2903,-9.2133,-9.1979,-9.2326,-9.1941,-9.2518,-9.371,-9.4134,-9.4864,-9.5749,-9.6134,-9.6288,-9.6288,-9.6288,-9.6288,-9.6288,-8.8365,-8.87,-8.9317,-9.0664,-9.1101,-9.1457,-9.1944,-9.1495,-9.1339,-9.1931,-9.0833,-9.056,-9.2041,-9.1651,-9.1183,-9.095,-9.0482,-8.9508,-8.7871,-8.8495,-8.8183,-8.6624,-8.6585,-8.639,-8.6001,-8.4403,-8.3663,-8.378,-8.452,-8.4949,-8.5066,-8.5066,-8.5845,-8.7131,-8.5572,-8.5767,-8.7092,-8.557,-8.5404,-8.6214,-8.6276,-8.6835,-8.7698,-8.8416,-8.8763,-8.8947,-8.986,-9.0126,-9.0222,-9.1091,-9.1331,-9.1424,-9.2165,-9.2391,-9.2235,-9.1495,-9.13,-9.1417,-9.2041,-9.1222,-9.0404,-9.1261,-9.2614,-9.353,-9.2749,-9.3159,-9.3452,-9.2593,-9.2391,-9.2391,-9.2391,-9.2391,-9.2313,-9.2041,-9.0989,-9.0638,-9.1846,0.0,-9.0755,-9.2235,-9.2391,-9.2391,-9.2391,-9.2391,-9.2419,-9.249,-9.2474,-9.2461,-9.2482,-9.2471,-9.2549,-9.2678,-9.2561,-9.3174,-9.4536,-9.5648,-9.5825,-9.5045,-9.4908,-9.4788,-9.4749,-9.3326,-9.2979,-9.348,-9.2787,-9.2941,-9.3749,-9.448,-9.4941,-9.5249,-9.6019,-9.6288,-9.6288,-9.6288,-9.6288,-9.6288,-8.847,-8.9707,-9.0546,-9.0086,-9.1213,-9.1763,-9.0482,-9.0736,-9.0879,-9.0366,-9.0658,-9.0989,-9.1261,-9.1846,-9.1612,-9.0131,-9.1222,-9.1573,-9.056,-9.0638,-9.0248,-8.9235,-8.9196,-8.8183,-8.604,-8.5027,-8.4871,-8.5611,-8.5728,-8.6157,-8.6819,-8.6819,-8.6936,-8.717,-8.6235,-8.6312,-8.7131,-8.6194,-8.6301,-8.7107,-8.7174,-8.7702,-8.8497,-8.8657,-8.9164,-8.9902,-9.0707,-9.1011,-9.1115,-9.1922,-9.221,-9.2204,-9.2359,-9.2391,-9.2391,-9.2235,-9.2197,-9.208,-9.1456,-9.1651,-9.2197,-9.3093,-9.351,-9.3647,-9.3535,-9.3588,-9.3452,-9.2593,-9.2391,-9.2391,-9.2391,-9.2391,-9.1924,-9.0443,-9.1222,-9.1573,-9.0365,0.0,-9.2119,-9.2391,-9.2391,-9.2391,-9.2391,-9.2391,-9.2419,-9.249,-9.2306,-9.2242,-9.2479,-9.2329,-9.2674,-9.3572,-9.2873,-9.2786,-9.3356,-9.4098,-9.4304,-9.3953,-9.3939,-9.3903,-9.3903,-9.3633,-9.321,-9.2672,-9.2556,-9.2941,-9.371,-9.3826,-9.4749,-9.6095,-9.6249,-9.6288,-9.6288,-9.6288,-9.6288,-9.6288,-8.9817,-9.0536,-9.1129,-9.1204,-9.1855,-9.2126,-9.1346,-9.1555,-9.1665,-9.1307,-9.1983,-9.2313,-9.1846,-9.2586,-9.2586,-9.13,-9.1924,-9.2235,-9.1846,-9.1807,-9.1183,-8.9858,-8.982,-8.8612,-8.604,-8.6507,-8.6507,-8.6001,-8.6429,-8.7092,-8.7871,-8.7404,-8.7715,-8.8534,-8.7248,-8.7144,-8.7903,-8.7058,-8.6925,-8.7341,-8.7837,-8.8275,-8.8782,-9.0211,-9.0683,-9.0828,-9.2116,-9.2303,-9.1978,-9.2329,-9.2417,-9.2399,-9.2398,-9.2391,-9.2391,-9.2391,-9.2391,-9.243,-9.2469,-9.2781,-9.321,-9.3599,-9.4056,-9.4153,-9.3217,-9.3354,-9.3452,-9.2593,-9.2391,-9.2391,-9.2391,-9.2391,-9.2158,-9.1339,-9.0677,-9.0521,-9.1105,-9.0677,-9.0833,-9.2235,-9.2391,-9.2391,-9.2391,-9.2391,-9.2419,-9.249,-9.2399,-9.2378,-9.2479,-9.2876,-9.33,-9.3767,-9.362,-9.357,-9.3646,-9.4296,-9.4502,-9.4403,-9.4864,-9.5095,-9.5095,-9.4595,-9.3941,-9.3133,-9.3133,-9.3364,-9.3749,-9.421,-9.5134,-9.6288,-9.6288,-9.6288,-9.6288,-9.6288,-9.6288,-9.6288,-9.0973,-9.1248,-9.1628,-9.2272,-9.239,-9.2412,-9.2399,-9.2419,-9.2412,-9.2399,-9.3153,-9.3288,-9.2197,-9.3054,-9.3249,-9.2197,-9.2274,-9.2391,-9.2391,-9.2391,-9.1729,-9.017,-8.9897,-8.8806,-8.6624,-8.7832,-8.7754,-8.6274,-8.6897,-8.7637,-8.8495,-8.7832,-8.8222,-8.943,-8.8105,-8.7891,-8.8545,-8.766,-8.7403,-8.7624,-8.8115,-8.87,-8.9433,-9.1222,-9.189,-9.1956,-9.3096,-9.3088,-9.252,-9.249,-9.2423,-9.2386,-9.2398,-9.2391,-9.2391,-9.2391,-9.2547,-9.2898,-9.3755,-9.3989,-9.3989,-9.3989,-9.4322,-9.4335,-9.3022,-9.3075,-9.3205,-9.2554,-9.2391,-9.2391,-9.2391,-9.2391,-9.2274,-9.1846,-9.0443,-8.9975,-9.1573,-9.0404,-9.017,-9.2158,-9.2391,-9.2391,-9.2391,-9.2391,-9.2405,-9.2405,-9.2411,-9.2401,-9.2412,-9.308,-9.3495,-9.3627,-9.3947,-9.4094,-9.4099,-9.4519,-9.4788,-9.5018,-9.5865,-9.6288,-9.6288,-9.5403,-9.4518,-9.371,-9.371,-9.371,-9.3749,-9.4634,-9.5518,-9.6288,-9.6288,-9.6288,-9.6288,-9.6288,-9.6288,-9.6288,-9.1092,-9.1745,-9.2311,-9.2393,-9.2386,-9.2399,-9.2399,-9.2399,-9.2399,-9.2399,-9.3153,-9.3054,-9.1378,-9.2703,-9.3015,-9.1339,-9.1924,-9.2391,-9.2391,-9.2391,-9.2002,-9.1066,-9.0248,-8.9313,-8.8339,-8.8456,-8.8027,-8.7092,-8.717,-8.7637,-8.8495,-8.8417,-8.8456,-8.8573,-8.8456,-8.8475,-8.8545,-8.7676,-8.778,-8.8431,-8.7748,-8.8927,-9.1035,-9.0413,-9.1624,-9.3533,-9.285,-9.2559,-9.249,-9.2417,-9.2386,-9.2391,-9.2391,-9.2391,-9.2391,-9.2391,-9.2976,-9.3794,-9.4574,-9.4807,-9.4807,-9.4807,-9.4308,-9.3762,-9.3645,-9.3015,-9.2469,-9.243,-9.2391,-9.2391,-9.2391,-9.2391,-9.1885,-9.0248,0.0,0.0,-9.0209,-9.1222,-9.2197,-9.2391,-9.2391,-9.2391,-9.2391,-9.2391,-9.2323,-9.2135,-9.2126,-9.2168,-9.221,-9.2295,-9.2573,-9.3123,-9.3257,-9.3551,-9.4099,-9.3902,-9.421,-9.5018,-9.5865,-9.6288,-9.6288,-9.5403,-9.4518,-9.371,-9.371,-9.371,-9.3749,-9.4634,-9.5518,-9.6288,-9.6288,-9.6288,-9.6288,-9.6288,-9.6288,-9.6288,-9.1913,-9.2171,-9.2416,-9.2412,-9.2398,-9.2419,-9.2399,-9.2386,-9.2419,-9.2399,-9.3581,-9.3989,-9.282,-9.4223,-9.4574,-9.2859,-9.3015,-9.2976,-9.243,-9.2391,-9.2002,-9.1144,-9.0794,-8.9936,-8.8534,-8.904,-8.8612,-8.7209,-8.7209,-8.791,-8.9274,-8.8767,-8.9079,-9.0053,-8.8962,-8.8527,-8.8534,-8.7671,-8.7536,-8.7924,-8.8635,-8.9536,-9.0555,-9.1854,-9.2639,-9.3025,-9.324,-9.2954,-9.2471,-9.2423,-9.2393,-9.2419,-9.2398,-9.2391,-9.2586,-9.3638,-9.4184,-9.4729,-9.6132,-9.6132,-9.5587,-9.5041,-9.4651,-9.4184,-9.3132,-9.2625,-9.2391,-9.2391,-9.2391,-9.2391,-9.2391,-9.2391,-9.2197,-9.1534,0.0,-9.1534,-9.1417,-9.1534,-9.1807,-9.2352,-9.2391,-9.2391,-9.2391,-9.2285,-9.2238,-9.2334,-9.2238,-9.2455,-9.3169,-9.4075,-9.4613,-9.4723,-9.4562,-9.4568,-9.4651,-9.4552,-9.4941,-9.5826,-9.6134,-9.6288,-9.6288,-9.5942,-9.5326,-9.4518,-9.5095,-9.5018,-9.4557,-9.5441,-9.6019,-9.6288,-9.6288,-9.598,-9.5557,-9.6095,-9.5634,-9.4826,-9.2382,-9.2393,-9.2383,-9.238,-9.2405,-9.2412,-9.2399,-9.238,-9.249,-9.2776,-9.3808,-9.4301,-9.3755,-9.4729,-9.4963,-9.3794,-9.3443,-9.3132,-9.282,-9.2547,-9.2119,-9.1534,-9.1261,-9.0404,-8.8923,-8.9508,-8.8962,-8.7209,-8.7209,-8.8105,-8.9781,-8.9196,-8.9703,-9.1028,-8.9547,-8.8806,-8.8545,-8.7671,-8.7502,-8.7897,-8.9068,-9.0005,-9.0863,-9.244,-9.2986,-9.294,-9.3275,-9.2988,-9.2461,-9.2417,-9.2393,-9.238,-9.2398,-9.2586,-9.3093,-9.4496,-9.508,-9.5626,-9.7106,-9.6873,-9.5976,-9.5119,-9.4885,-9.4457,-9.2781,-9.2391,-9.2391,-9.2391,-9.2391,-9.2391,-9.2391,-9.2391,-9.2391,-9.2391,-9.1885,-9.1729,-9.2313,-9.1885,-9.1729,-9.2313,-9.2391,-9.237,-9.2238,-9.216,-9.2238,-9.2627,-9.2386,-9.2653,-9.3724,-9.5147,-9.5602,-9.4956,-9.5114,-9.4894,-9.4229,-9.448,-9.4903,-9.548,-9.5749,-9.5903,-9.5903,-9.5903,-9.5557,-9.5018,-9.5634,-9.5557,-9.5057,-9.5942,-9.6288,-9.6288,-9.6288,-9.5942,-9.548,-9.6095,-9.5557,-9.4672,-9.2383,-9.2393,-9.2398,-9.2399,-9.2399,-9.2399,-9.2399,-9.2399,-9.2705,-9.3567,-9.3684,-9.3684,-9.3684,-9.3723,-9.3723,-9.3684,-9.2937,-9.2781,-9.3638,-9.2859,-9.2391,-9.2391,-9.1573,-9.0716,-8.982,-8.982,-8.8962,-8.7209,-8.7209,-8.8105,-8.982,-8.982,-9.0287,-9.1066,-9.0209,-8.9352,-8.8545,-8.7692,-8.7837,-8.8696,-8.8696,-9.0218,-9.2404,-9.1624,-9.235,-9.37,-9.2802,-9.2456,-9.2405,-9.2399,-9.2419,-9.2391,-9.2391,-9.3015,-9.3872,-9.4651,-9.5509,-9.6405,-9.7262,-9.6873,-9.5976,-9.5119,-9.4885,-9.4457,-9.2781,-9.2391,-9.2391,-9.2391,-9.2391,-9.2391,-9.2391,-9.2391,-9.2391,-9.2391,-9.2391,-9.2391,-9.2391,-9.2391,-9.2391,-9.2391,-9.2384,-9.2285,-9.1936,-9.2034,-9.2353,-9.2959,-9.2521,-9.2692,-9.3763,-9.501,-9.4946,-9.3286,-9.4404,-9.421,-9.2518,-9.3287,-9.371,-9.371,-9.4557,-9.498,-9.498,-9.5018,-9.5018,-9.5018,-9.5018,-9.5018,-9.5057,-9.5942,-9.6288,-9.6288,-9.6288,-9.6288,-9.6288,-9.6288,-9.6288,-9.6288,-9.2383,-9.2393,-9.2391,-9.2405,-9.2405,-9.2405,-9.2405,-9.2405,-9.2476,-9.2742,-9.3327,-9.3684,-9.3684,-9.4729,-9.4963,-9.3794,-9.4535,-9.469,-9.3755,-9.1729,-9.0833,-9.1456,-9.1261,-9.0989,-9.0716,-9.0092,-8.9235,-8.8105,-8.8105,-8.8689,-8.982,-8.982,-9.0599,-9.1963,-9.047,-8.967,-8.9381,-8.856,-8.8388,-8.8752,-9.0016,-9.0953,-9.164,-9.1995,-9.2446,-9.2852,-9.2557,-9.2417,-9.2399,-9.2412,-9.2398,-9.2391,-9.2391,-9.3015,-9.3872,-9.4651,-9.5509,-9.6405,-9.7262,-9.6873,-9.5976,-9.5119,-9.4496,-9.3755,-9.2664,-9.2391,-9.2391,-9.2391,-9.2391,-9.2391,-9.2391,-9.2391,-9.2391,-9.2391,-9.2391,-9.2391,-9.2391,-9.2391,-9.2391,-9.2391,-9.2204,-9.2259,-9.277,-9.2574,-9.291,-9.4055,-9.4751,-9.5187,-9.5336,-9.6147,-9.6031,-9.4717,-9.4894,-9.421,-9.2518,-9.3287,-9.371,-9.371,-9.4557,-9.498,-9.5037,-9.5634,-9.5903,-9.5903,-9.5903,-9.5903,-9.5942,-9.6211,-9.6288,-9.6288,-9.6288,-9.5942,-9.5403,-9.5403,-9.498,-9.4557,-9.2383,-9.2393,-9.2391,-9.2405,-9.2398,-9.2391,-9.2405,-9.2398,-9.2391,-9.2391,-9.3171,-9.3833,-9.4145,-9.508,-9.5275,-9.4262,-9.4496,-9.4106,-9.2742,-9.1495,-9.1066,-9.1573,-9.13,-9.095,-9.0599,-9.0053,-8.9547,-8.9001,-8.8689,-8.9118,-9.0326,-9.0326,-9.1066,-9.2313,-9.0593,-8.9994,-9.0284,-8.9116,-8.9021,-8.977,-9.0878,-9.1457,-9.1787,-9.2295,-9.2471,-9.2468,-9.2411,-9.2393,-9.2419,-9.2398,-9.2391,-9.2391,-9.2391,-9.321,-9.4262,-9.4768,-9.5743,-9.6756,-9.6951,-9.6366,-9.547,-9.4651,-9.4067,-9.356,-9.3015,-9.2664,-9.2508,-9.2859,-9.2625,-9.2391,-9.2391,-9.2391,-9.2391,-9.2391,-9.2391,-9.2391,-9.2391,-9.2391,-9.2391,-9.2391,-9.2423,-9.2466,-9.2542,-9.265,-9.3077,-9.392,-9.5374,-9.6155,-9.588,-9.6178,-9.5855,-9.4863,-9.4304,-9.3364,-9.2018,-9.2479,-9.271,-9.271,-9.3903,-9.448,-9.4518,-9.5749,-9.6288,-9.6288,-9.6288,-9.6095,-9.5788,-9.5788,-9.5788,-9.5788,-9.5788,-9.5672,-9.548,-9.5134,-9.4672,-9.4249,-9.2382,-9.2389,-9.2398,-9.2393,-9.2412,-9.2398,-9.2393,-9.2412,-9.2391,-9.2391,-9.3171,-9.3989,-9.469,-9.4924,-9.4963,-9.4807,-9.3405,-9.2235,-9.1612,-9.2158,-9.2469,-9.2391,-9.1651,-9.0794,-8.9936,-8.9936,-8.9936,-8.9936,-8.9118,-8.9547,-9.1105,-9.1105,-9.1534,-9.2197,-9.0638,-9.0356,-9.1008,-8.9476,-8.977,-9.1308,-9.1386,-9.1843,-9.249,-9.2485,-9.2451,-9.2399,-9.2399,-9.2419,-9.2391,-9.2391,-9.2391,-9.2391,-9.2391,-9.356,-9.4885,-9.4885,-9.6139,-9.7309,-9.6444,-9.5555,-9.4698,-9.3918,-9.3638,-9.356,-9.356,-9.2976,-9.2625,-9.3405,-9.2937,-9.243,-9.2508,-9.2508,-9.2547,-9.2625,-9.2547,-9.2508,-9.2508,-9.2494,-9.2448,-9.237,-9.2813,-9.2751,-9.1759,-9.2574,-9.3178,-9.3331,-9.5054,-9.6006,-9.5778,-9.5492,-9.495,-9.4201,-9.3092,-9.2133,-9.1325,-9.1325,-9.1325,-9.1325,-9.2941,-9.3749,-9.3864,-9.5557,-9.6288,-9.6288,-9.6211,-9.5711,-9.498,-9.4903,-9.4864,-9.4864,-9.4864,-9.5403,-9.6095,-9.5211,-9.4903,-9.4828,-9.2395,-9.2383,-9.2391,-9.2398,-9.2391,-9.2391,-9.2398,-9.2391,-9.2391,-9.2391,-9.3171,-9.3755,-9.395,-9.5119,-9.5392,-9.4067,-9.3638,-9.3911,-9.5002,-9.4028,-9.3093,-9.243,-9.2235,-9.1729,-9.0833,-9.0833,-9.0833,-9.0833,-9.0638,-9.0716,-9.1105,-9.1105,-9.1183,-9.1378,-9.1053,-9.0635,-9.02,-9.0578,-9.091,-9.1288,-9.1952,-9.2329,-9.25,-9.2435,-9.2399,-9.2398,-9.2398,-9.2398,-9.2391,-9.2391,-9.2391,-9.2391,-9.2391,-9.356,-9.4885,-9.4885,-9.6154,-9.7376,-9.6451,-9.5608,-9.4764,-9.3925,-9.3171,-9.2664,-9.2664,-9.2547,-9.2469,-9.2625,-9.2547,-9.2625,-9.3288,-9.3405,-9.3599,-9.4262,-9.3833,-9.3405,-9.3405,-9.3207,-9.2754,-9.2103,-9.2328,-9.2473,-9.2271,-9.3864,-9.4983,-9.5129,-9.6308,-9.6847,-9.6447,-9.569,-9.5154,-9.4814,-9.3302,-9.2402,-9.221,-9.221,-9.221,-9.221,-9.321,-9.4057,-9.4749,-9.5826,-9.6288,-9.6249,-9.5557,-9.5172,-9.4941,-9.4249,-9.398,-9.398,-9.398,-9.4518,-9.5172,-9.4287,-9.4311,-9.4637,-9.2418,-9.2407,-9.2391,-9.2391,-9.2391,-9.2391,-9.2391,-9.2391,-9.2391,-9.2391,-9.3171,-9.3833,-9.4223,-9.5431,-9.5859,-9.4963,-9.4496,-9.4496,-9.4963,-9.4535,-9.3911,-9.3054,-9.3015,-9.282,-9.2352,-9.1924,-9.1729,-9.1729,-9.1729,-9.1729,-9.1729,-9.1729,-9.1729,-9.169,-9.137,-9.1192,-9.1148,-9.1241,-9.1726,-9.2428,-9.2494,-9.271,-9.3036,-9.2591,-9.2438,-9.2391,-9.2391,-9.2391,-9.2391,-9.2391,-9.2391,-9.2391,-9.2391,-9.356,-9.4892,-9.4945,-9.6213,-9.7311,-9.5973,-9.5317,-9.4699,-9.3412,-9.2742,-9.2508,-9.2937,-9.2703,-9.2625,-9.3443,-9.3288,-9.3288,-9.4106,-9.395,-9.395,-9.4768,-9.4223,-9.3833,-9.4223,-9.3647,-9.3042,-9.2576,-9.2436,-9.264,-9.3258,-9.3864,-9.4627,-9.5634,-9.6122,-9.6385,-9.6448,-9.5236,-9.4497,-9.4382,-9.3172,-9.2479,-9.2479,-9.2864,-9.3287,-9.371,-9.4095,-9.4557,-9.5018,-9.5903,-9.6288,-9.6249,-9.5365,-9.4749,-9.4287,-9.348,-9.3133,-9.3172,-9.3557,-9.421,-9.4941,-9.433,-9.3695,-9.3005,-9.2404,-9.239,-9.2391,-9.2391,-9.2391,-9.2391,-9.2391,-9.2391,-9.2391,-9.2391,-9.3288,-9.4145,-9.4846,-9.5665,-9.6249,-9.6405,-9.5626,-9.4885,-9.4379,-9.4963,-9.4924,-9.395,-9.3911,-9.3755,-9.3482,-9.2937,-9.2547,-9.2391,-9.2391,-9.2469,-9.2625,-9.2625,-9.2547,-9.2391,-9.1871,-9.1861,-9.2212,-9.1657,-9.2268,-9.349,-9.2806,-9.29,-9.3426,-9.2752,-9.2444,-9.2391,-9.2391,-9.2391,-9.2391,-9.2391,-9.2391,-9.2391,-9.2391,-9.3567,-9.4945,-9.4972,-9.6116,-9.7012,-9.5446,-9.4901,-9.4426,-9.2983,-9.2508,-9.2664,-9.3677,-9.3249,-9.3015,-9.4418,-9.4262,-9.4106,-9.4768,-9.4496,-9.434,-9.5002,-9.4574,-9.4332,-9.4972,-9.4067,-9.3287,-9.3097,-9.2542,-9.2634,-9.3904,-9.3296,-9.3515,-9.5294,-9.5363,-9.547,-9.5845,-9.448,-9.3633,-9.348,-9.2864,-9.2479,-9.2479,-9.3441,-9.4287,-9.498,-9.5134,-9.5211,-9.5249,-9.598,-9.6288,-9.6249,-9.5211,-9.4364,-9.3633,-9.2672,-9.2287,-9.2326,-9.2982,-9.3751,-9.4483,-9.4175,-9.2962,-9.1309,-9.239,-9.2405,-9.2391,-9.2391,-9.2391,-9.2391,-9.2391,-9.2391,-9.2391,-9.2391,-9.3755,-9.4768,-9.4885,-9.5665,-9.6483,-9.7262,-9.6522,-9.6288,-9.6951,-9.7106,-9.6444,-9.4807,-9.4729,-9.4067,-9.2625,-9.321,-9.3132,-9.2391,-9.2391,-9.2781,-9.3521,-9.3521,-9.3132,-9.243,-9.3055,-9.2606,-9.1325,-9.2042,-9.2455,-9.2689,-9.2549,-9.2573,-9.2641,-9.2471,-9.2398,-9.2391,-9.2391,-9.2391,-9.2391,-9.2391,-9.2391,-9.2391,-9.2391,-9.3581,-9.4972,-9.5018,-9.5705,-9.6263,-9.5258,-9.4433,-9.3803,-9.3574,-9.2976,-9.282,-9.4379,-9.4106,-9.3599,-9.3833,-9.434,-9.4768,-9.4885,-9.5431,-9.5898,-9.6015,-9.5937,-9.5821,-9.5778,-9.4664,-9.3558,-9.2612,-9.1692,-9.1595,-9.2876,-9.2866,-9.3214,-9.4248,-9.4941,-9.4945,-9.4075,-9.3826,-9.3364,-9.2672,-9.2556,-9.2479,-9.2479,-9.4057,-9.4864,-9.5018,-9.5749,-9.6134,-9.6134,-9.6249,-9.6288,-9.6211,-9.4595,-9.3787,-9.3595,-9.2018,-9.1364,-9.1385,-9.1298,-9.1759,-9.2449,-9.2057,-9.1743,-9.137,-9.2393,-9.2391,-9.2391,-9.2391,-9.2391,-9.2391,-9.2391,-9.2391,-9.2391,-9.2391,-9.3482,-9.4379,-9.4846,-9.6093,-9.7067,-9.7457,-9.7145,-9.6873,-9.6795,-9.6756,-9.6015,-9.4301,-9.4223,-9.3677,-9.243,-9.2781,-9.3015,-9.3132,-9.356,-9.3989,-9.4379,-9.4379,-9.3925,-9.3127,-9.353,-9.3002,-9.1928,-9.2284,-9.2729,-9.313,-9.2635,-9.2741,-9.3125,-9.2588,-9.2405,-9.2391,-9.2391,-9.2391,-9.2391,-9.2391,-9.2391,-9.2391,-9.2391,-9.3263,-9.4251,-9.427,-9.4874,-9.5387,-9.4517,-9.4004,-9.3686,-9.3691,-9.3054,-9.2859,-9.4535,-9.4613,-9.4496,-9.5002,-9.5002,-9.5197,-9.6171,-9.5859,-9.5782,-9.6756,-9.6522,-9.6273,-9.6486,-9.5067,-9.3377,-9.1733,-9.1201,-9.1441,-9.2693,-9.269,-9.3045,-9.4022,-9.4296,-9.4193,-9.3728,-9.3249,-9.3056,-9.3172,-9.3172,-9.3403,-9.3903,-9.5095,-9.5711,-9.5711,-9.6134,-9.6288,-9.6288,-9.6288,-9.6288,-9.6211,-9.4441,-9.371,-9.3557,-9.1902,-9.1139,-9.1067,-9.1452,-9.1906,-9.24,-9.2238,-9.181,-9.1235]},{"header":{"parameterUnit":"m.s-1","parameterCategory":1,"la1":30.6,"la2":28.766,"lo1":-90.7593,"lo2":-88.6598,"dx":0.0162,"dy":0.0183,"nx":116,"ny":114,"refTime":"2023-02-14T18:00:00:Z","depth":0,"parameterNumber":3,"parameterNumberName":"V-component_of_WINDS"},"data":[0.0,0.0,0.0,0.0,0.0,0.0,0.0,0.0,0.0,0.0,0.0,0.0,0.0,0.0,0.0,0.0,0.0,0.0,0.0,0.0,0.0,0.0,0.0,0.0,0.0,0.0,0.0,0.0,0.0,0.0,0.0,0.0,0.0,0.0,0.0,0.0,0.0,0.0,0.0,0.0,0.0,0.0,0.0,0.0,0.0,0.0,0.0,0.0,0.0,0.0,0.0,0.0,0.0,0.0,0.0,0.0,0.0,0.0,0.0,0.0,0.0,0.0,0.0,0.0,0.0,0.0,0.0,0.0,0.0,0.0,0.0,0.0,0.0,0.0,0.0,0.0,0.0,0.0,0.0,0.0,0.0,0.0,0.0,0.0,0.0,0.0,0.0,0.0,0.0,0.0,0.0,0.0,0.0,0.0,0.0,0.0,0.0,0.0,0.0,0.0,0.0,0.0,0.0,0.0,0.0,0.0,0.0,0.0,0.0,0.0,0.0,0.0,0.0,0.0,0.0,0.0,0.0,0.0,0.0,0.0,0.0,0.0,0.0,0.0,0.0,0.0,0.0,0.0,0.0,0.0,0.0,0.0,0.0,0.0,0.0,0.0,0.0,0.0,0.0,0.0,0.0,0.0,0.0,0.0,0.0,0.0,0.0,0.0,0.0,0.0,0.0,0.0,0.0,0.0,0.0,0.0,0.0,0.0,0.0,0.0,0.0,0.0,0.0,0.0,0.0,0.0,0.0,0.0,0.0,0.0,0.0,0.0,0.0,0.0,0.0,0.0,0.0,0.0,0.0,0.0,0.0,0.0,0.0,0.0,0.0,0.0,0.0,0.0,0.0,0.0,0.0,0.0,0.0,0.0,0.0,0.0,0.0,0.0,0.0,0.0,0.0,0.0,0.0,0.0,0.0,0.0,0.0,0.0,0.0,0.0,0.0,0.0,0.0,0.0,0.0,0.0,0.0,0.0,0.0,0.0,0.0,0.0,0.0,0.0,0.0,0.0,0.0,0.0,0.0,0.0,0.0,0.0,0.0,0.0,0.0,0.0,0.0,0.0,0.0,0.0,0.0,0.0,0.0,0.0,0.0,0.0,0.0,0.0,0.0,0.0,0.0,0.0,0.0,0.0,0.0,0.0,0.0,0.0,0.0,0.0,0.0,0.0,0.0,0.0,0.0,0.0,0.0,0.0,0.0,0.0,0.0,0.0,0.0,0.0,0.0,0.0,0.0,0.0,0.0,0.0,0.0,0.0,0.0,0.0,0.0,0.0,0.0,0.0,0.0,0.0,0.0,0.0,0.0,0.0,0.0,0.0,0.0,0.0,0.0,0.0,0.0,0.0,0.0,0.0,0.0,0.0,0.0,0.0,0.0,0.0,0.0,0.0,0.0,0.0,0.0,0.0,0.0,0.0,0.0,0.0,0.0,0.0,0.0,0.0,0.0,0.0,0.0,0.0,0.0,0.0,0.0,0.0,0.0,0.0,0.0,0.0,0.0,0.0,0.0,0.0,0.0,0.0,0.0,0.0,0.0,0.0,0.0,0.0,0.0,0.0,0.0,0.0,0.0,0.0,0.0,0.0,0.0,0.0,0.0,0.0,0.0,0.0,0.0,0.0,0.0,0.0,0.0,0.0,0.0,0.0,0.0,0.0,0.0,0.0,0.0,0.0,0.0,0.0,0.0,0.0,0.0,0.0,0.0,0.0,0.0,0.0,0.0,0.0,0.0,0.0,0.0,0.0,0.0,0.0,0.0,0.0,0.0,0.0,0.0,0.0,0.0,0.0,0.0,0.0,0.0,0.0,0.0,0.0,0.0,0.0,0.0,0.0,0.0,0.0,0.0,0.0,0.0,0.0,0.0,0.0,0.0,0.0,0.0,0.0,0.0,0.0,0.0,0.0,0.0,0.0,0.0,0.0,0.0,0.0,0.0,0.0,0.0,0.0,0.0,0.0,0.0,0.0,0.0,0.0,0.0,0.0,0.0,0.0,0.0,0.0,0.0,0.0,0.0,0.0,0.0,0.0,0.0,0.0,0.0,0.0,0.0,0.0,0.0,0.0,0.0,0.0,0.0,0.0,0.0,0.0,0.0,0.0,0.0,0.0,0.0,0.0,0.0,0.0,0.0,0.0,0.0,0.0,0.0,0.0,0.0,0.0,0.0,0.0,0.0,0.0,0.0,0.0,0.0,0.0,0.0,0.0,0.0,0.0,0.0,0.0,0.0,0.0,0.0,0.0,0.0,0.0,0.0,0.0,0.0,0.0,0.0,0.0,0.0,0.0,0.0,0.0,0.0,0.0,0.0,0.0,0.0,0.0,0.0,0.0,0.0,0.0,0.0,0.0,0.0,0.0,0.0,0.0,0.0,0.0,0.0,0.0,0.0,0.0,0.0,0.0,0.0,0.0,0.0,0.0,0.0,0.0,0.0,0.0,0.0,0.0,0.0,0.0,0.0,0.0,0.0,0.0,0.0,0.0,0.0,0.0,0.0,0.0,0.0,0.0,0.0,0.0,0.0,0.0,0.0,0.0,0.0,0.0,0.0,0.0,0.0,0.0,0.0,0.0,0.0,0.0,0.0,0.0,0.0,0.0,0.0,0.0,0.0,0.0,0.0,0.0,0.0,0.0,0.0,0.0,0.0,0.0,0.0,0.0,0.0,0.0,0.0,0.0,0.0,0.0,0.0,0.0,0.0,0.0,0.0,0.0,0.0,0.0,0.0,0.0,0.0,0.0,0.0,0.0,0.0,0.0,0.0,0.0,0.0,0.0,0.0,0.0,0.0,0.0,0.0,0.0,0.0,0.0,0.0,0.0,0.0,0.0,0.0,0.0,0.0,0.0,0.0,0.0,0.0,0.0,0.0,0.0,0.0,0.0,0.0,0.0,0.0,0.0,0.0,0.0,0.0,0.0,0.0,0.0,0.0,0.0,0.0,0.0,0.0,0.0,0.0,0.0,0.0,0.0,0.0,0.0,0.0,0.0,0.0,0.0,0.0,0.0,0.0,0.0,0.0,0.0,0.0,0.0,0.0,0.0,0.0,0.0,0.0,0.0,0.0,0.0,0.0,0.0,0.0,0.0,0.0,0.0,0.0,0.0,0.0,0.0,0.0,0.0,0.0,0.0,0.0,0.0,0.0,0.0,0.0,0.0,0.0,0.0,0.0,0.0,0.0,0.0,0.0,0.0,0.0,0.0,0.0,0.0,0.0,0.0,0.0,0.0,0.0,0.0,0.0,0.0,0.0,0.0,0.0,0.0,0.0,0.0,0.0,0.0,0.0,0.0,0.0,0.0,0.0,0.0,0.0,0.0,0.0,0.0,0.0,0.0,0.0,0.0,0.0,0.0,0.0,0.0,0.0,0.0,0.0,0.0,0.0,0.0,0.0,0.0,0.0,0.0,0.0,0.0,0.0,0.0,0.0,0.0,0.0,0.0,0.0,0.0,0.0,0.0,0.0,0.0,0.0,0.0,0.0,0.0,0.0,0.0,0.0,0.0,0.0,0.0,0.0,0.0,0.0,0.0,0.0,0.0,0.0,0.0,0.0,0.0,0.0,0.0,0.0,0.0,0.0,0.0,0.0,0.0,0.0,0.0,0.0,0.0,0.0,0.0,0.0,0.0,0.0,0.0,0.0,0.0,0.0,0.0,0.0,0.0,0.0,0.0,0.0,0.0,0.0,0.0,0.0,0.0,0.0,0.0,0.0,0.0,0.0,0.0,0.0,0.0,0.0,0.0,0.0,0.0,0.0,0.0,0.0,0.0,0.0,0.0,0.0,0.0,0.0,0.0,0.0,0.0,0.0,0.0,0.0,0.0,0.0,0.0,0.0,0.0,0.0,0.0,0.0,0.0,0.0,0.0,0.0,0.0,0.0,0.0,0.0,0.0,0.0,0.0,0.0,0.0,0.0,0.0,0.0,0.0,0.0,0.0,0.0,0.0,0.0,0.0,0.0,0.0,0.0,0.0,0.0,0.0,0.0,0.0,0.0,0.0,0.0,0.0,0.0,0.0,0.0,0.0,0.0,0.0,0.0,0.0,0.0,0.0,0.0,0.0,0.0,0.0,0.0,0.0,0.0,0.0,0.0,0.0,0.0,0.0,0.0,0.0,0.0,0.0,0.0,0.0,0.0,0.0,0.0,0.0,0.0,0.0,0.0,0.0,0.0,0.0,0.0,0.0,0.0,0.0,0.0,0.0,0.0,0.0,0.0,0.0,0.0,0.0,0.0,0.0,0.0,0.0,0.0,0.0,0.0,0.0,0.0,0.0,0.0,0.0,0.0,0.0,0.0,0.0,0.0,0.0,0.0,0.0,0.0,0.0,0.0,0.0,0.0,0.0,0.0,0.0,0.0,0.0,0.0,0.0,0.0,0.0,0.0,0.0,0.0,0.0,0.0,0.0,0.0,0.0,0.0,0.0,0.0,0.0,0.0,0.0,0.0,0.0,0.0,0.0,0.0,0.0,0.0,0.0,0.0,0.0,0.0,0.0,0.0,0.0,0.0,0.0,0.0,0.0,0.0,0.0,0.0,0.0,0.0,0.0,0.0,0.0,0.0,0.0,0.0,0.0,0.0,0.0,0.0,0.0,0.0,0.0,0.0,0.0,0.0,0.0,0.0,0.0,0.0,0.0,0.0,0.0,0.0,0.0,0.0,0.0,0.0,0.0,0.0,0.0,0.0,0.0,0.0,0.0,0.0,0.0,0.0,0.0,0.0,0.0,0.0,0.0,0.0,0.0,0.0,0.0,0.0,0.0,0.0,0.0,0.0,0.0,0.0,0.0,0.0,0.0,0.0,0.0,0.0,0.0,0.0,0.0,0.0,0.0,0.0,0.0,0.0,0.0,0.0,0.0,0.0,0.0,0.0,0.0,0.0,0.0,0.0,0.0,0.0,0.0,0.0,0.0,0.0,0.0,0.0,0.0,0.0,0.0,0.0,0.0,0.0,0.0,0.0,0.0,0.0,0.0,0.0,0.0,0.0,0.0,0.0,0.0,0.0,0.0,0.0,0.0,0.0,0.0,0.0,0.0,0.0,0.0,0.0,0.0,0.0,0.0,0.0,0.0,0.0,0.0,0.0,0.0,0.0,0.0,0.0,0.0,0.0,0.0,0.0,0.0,0.0,0.0,0.0,0.0,0.0,0.0,0.0,0.0,0.0,0.0,0.0,0.0,0.0,0.0,0.0,0.0,0.0,0.0,0.0,0.0,0.0,0.0,0.0,0.0,0.0,0.0,0.0,0.0,0.0,0.0,0.0,0.0,0.0,0.0,0.0,0.0,0.0,0.0,0.0,0.0,0.0,0.0,0.0,0.0,0.0,0.0,0.0,0.0,0.0,0.0,0.0,0.0,0.0,0.0,0.0,0.0,0.0,0.0,0.0,0.0,0.0,0.0,0.0,0.0,0.0,0.0,0.0,0.0,0.0,0.0,0.0,0.0,0.0,0.0,0.0,0.0,0.0,0.0,0.0,0.0,0.0,0.0,0.0,0.0,0.0,0.0,0.0,0.0,0.0,0.0,0.0,0.0,0.0,0.0,0.0,0.0,0.0,0.0,0.0,0.0,0.0,0.0,0.0,0.0,0.0,0.0,0.0,0.0,0.0,0.0,0.0,0.0,0.0,0.0,0.0,0.0,0.0,0.0,0.0,0.0,0.0,0.0,0.0,0.0,0.0,0.0,0.0,0.0,0.0,0.0,0.0,0.0,0.0,0.0,0.0,0.0,0.0,0.0,0.0,0.0,0.0,0.0,0.0,0.0,0.0,0.0,0.0,0.0,0.0,0.0,0.0,0.0,0.0,0.0,0.0,0.0,0.0,0.0,0.0,0.0,0.0,0.0,0.0,0.0,0.0,0.0,0.0,0.0,0.0,0.0,0.0,0.0,0.0,0.0,0.0,0.0,0.0,0.0,0.0,0.0,0.0,0.0,0.0,0.0,0.0,0.0,0.0,0.0,0.0,0.0,0.0,0.0,0.0,0.0,0.0,0.0,0.0,0.0,0.0,0.0,0.0,0.0,0.0,0.0,0.0,0.0,0.0,0.0,0.0,0.0,0.0,0.0,0.0,0.0,0.0,0.0,0.0,0.0,0.0,0.0,0.0,0.0,0.0,0.0,0.0,0.0,0.4181,0.0,0.0,0.0,0.0,0.0,0.0,0.0,0.0,0.0,0.0,0.0,0.0,0.0,0.0,0.0,0.0,0.0,0.0,0.0,0.0,0.0,0.0,0.0,0.0,0.0,0.0,0.0,0.0,0.0,0.0,0.0,0.0,0.0,0.0,0.0,0.0,0.0,0.0,0.0,0.0,0.0,0.0,0.0,0.0,0.0,0.0,0.0,0.0,0.0,0.0,0.0,0.0,0.0,0.0,0.0,0.0,0.0,0.0,0.0,0.0,0.0,0.0,0.0,0.0,0.0,0.0,0.0,0.0,0.0,0.0,0.0,0.0,0.0,0.0,0.0,0.0,0.0,0.0,0.0,0.0,0.0,0.0,0.0,0.0,0.0,0.0,0.0,0.0,0.0,0.0,0.0,0.0,0.0,0.0,0.0,0.0,0.0,0.0,0.0,0.0,0.0,0.0,0.0,0.0,0.0,0.0,0.0,0.0,0.0,0.0,0.0,0.0,0.0,0.0,0.0,0.0,0.4005,0.0,0.0,0.0,0.0,0.0,0.0,0.0,0.0,0.0,0.0,0.0,0.0,0.0,0.0,0.0,0.0,0.0,0.0,0.0,0.0,0.0,0.0,0.0,0.0,0.0,0.0,0.0,0.0,0.0,0.0,0.0,0.0,0.0,0.0,0.0,0.0,0.0,0.0,0.0,0.0,0.0,0.0,0.0,0.0,0.0,0.0,0.0,0.0,0.0,0.0,0.0,0.0,0.0,0.0,0.0,0.0,0.0,0.0,0.0,0.0,0.0,0.0,0.0,0.0,0.0,0.0,0.0,0.0,0.0,0.0,0.0,0.0,0.0,0.0,0.0,0.0,0.0,0.0,0.0,0.0,0.0,0.0,0.0,0.0,0.0,0.0,0.0,0.0,0.0,0.0,0.0,0.0,0.0,0.0,0.0,0.0,0.0,0.0,0.0,0.0,0.0,0.0,0.0,0.0,0.0,0.0,0.0,0.0,0.3899,0.395,0.3444,0.3391,0.3438,0.3673,0.3639,0.3744,0.4142,0.4368,0.0,0.0,0.0,0.0,0.0,0.0,0.0,0.0,0.0,0.0,0.0,0.0,0.0,0.0,0.0,0.0,0.0,0.0,0.0,0.0,0.0,0.0,0.0,0.0,0.0,0.0,0.0,0.0,0.0,0.0,0.0,0.0,0.0,0.0,0.0,0.0,0.0,0.0,-0.9893,-0.9499,-0.7936,-0.5493,-0.7132,0.0,0.0,0.0,0.0,0.0,0.0,0.0,0.0,0.0,0.0,0.0,0.0,0.0,0.0,0.0,0.0,0.0,0.0,0.0,0.0,0.0,0.0,0.0,0.0,0.0,0.0,0.0,0.0,0.0,0.0,0.0,0.0,0.0,0.0,0.0,0.0,0.0,0.0,0.0,0.0,0.0,0.0,0.0,0.3242,0.3202,0.0,0.0,0.0,0.0,0.0,0.0,0.0,0.0,0.0,0.0,0.0,0.0,0.0,0.3535,0.3586,0.3498,0.3655,0.3984,0.3716,0.3863,0.4265,0.3735,0.3833,0.4289,0.4285,0.0,0.3617,0.3657,0.0,0.0,0.0,0.0,0.0,0.0,0.0,0.0,0.0,0.0,0.0,0.0,0.0,0.0,0.0,0.0,0.0,0.0,0.0,0.0,0.0,0.0,0.0,0.0,0.0,0.0,0.0,0.0,0.0,0.0,0.0,0.0,0.0,0.0,0.0,0.0,-1.0767,-1.0277,-0.9989,-0.921,-0.824,-0.7187,-0.72,-0.6528,-0.527,-0.5345,0.0,0.0,0.0,0.0,0.0,0.0,0.0,0.0,0.0,0.0,0.0,0.0,0.0,0.0,0.0,0.0,0.0,0.0,0.0,0.0,0.0,0.0,0.0,0.0,0.0,0.0,0.0,0.0,0.0,0.0,0.0,0.0,0.0,0.0,0.0,0.0,0.0,0.0,0.0,0.4013,0.3619,0.335,0.2926,0.2505,0.0,0.0,0.0,0.0,0.0,0.0,0.0,0.0,0.0,0.3352,0.3503,0.3506,0.3523,0.3773,0.3755,0.3457,0.349,0.3718,0.4054,0.3755,0.4109,0.4837,0.4538,0.423,0.3915,0.3827,0.3843,0.3866,0.0,0.0,0.0,0.0,0.8305,0.9598,0.0,0.0,0.0,0.0,0.0,0.0,0.0,0.0,0.0,0.0,0.0,0.0,0.0,0.0,0.0,-1.2241,0.0,0.0,0.0,0.0,0.0,0.0,0.0,0.0,0.0,0.0,0.0,0.0,-1.016,-1.0164,-1.0331,-0.9422,-0.8765,-0.8348,-0.7504,-0.625,-0.466,-0.496,-0.533,0.0,0.0,0.0,0.0,0.0,0.0,0.0,0.0,0.0,0.0,0.0,0.0,0.0,0.0,0.0,0.0,0.0,0.0,0.0,0.0,0.0,0.0,0.0,0.0,0.0,0.0,0.0,0.0,0.0,0.0,0.0,0.0,0.0,0.0,0.0,0.0,0.0,0.0,0.419,0.3812,0.3519,0.3063,0.2647,0.0,0.0,0.0,0.0,0.0,0.0,0.2849,0.2997,0.3083,0.3101,0.336,0.3537,0.3536,0.3939,0.3814,0.3319,0.3687,0.3904,0.3961,0.3941,0.4382,0.518,0.4788,0.4468,0.4316,0.4289,0.4394,0.4519,0.4779,0.5875,0.7475,0.8774,1.0143,1.1859,0.0,0.0,0.0,0.0,0.0,0.0,0.0,0.0,0.0,0.0,0.0,0.0,0.0,0.0,-1.4495,-1.2309,-1.2313,-1.2219,0.0,0.0,0.0,0.0,0.0,0.0,0.0,0.0,0.0,-1.1503,-1.1861,-1.1582,-1.0761,-1.0531,-0.943,-0.7702,-0.8392,-0.8377,-0.7851,-0.7835,-0.7936,-0.8127,0.0,0.0,0.0,0.0,0.0,0.0,0.0,0.0,0.0,0.0,0.0,0.0,0.0,0.0,0.0,0.0,0.0,0.0,0.0,0.0,0.0,0.0,0.0,0.0,0.0,0.0,0.0,0.0,0.0,0.0,0.0,0.0,0.0,0.0,0.0,0.0,0.0,0.0,0.0,0.304,0.281,0.0,0.0,0.0,0.0,0.2413,0.2469,0.2527,0.2585,0.3059,0.313,0.2857,0.3241,0.3578,0.3783,0.366,0.3975,0.447,0.4565,0.4567,0.4573,0.4614,0.4848,0.5182,0.5139,0.4823,0.446,0.4765,0.4395,0.3849,0.6469,0.7255,0.7491,1.2063,1.3811,1.4337,0.0,0.0,0.0,0.0,0.0,0.0,0.0,0.0,0.0,0.0,0.0,0.0,0.0,-1.4992,-1.3945,-1.2567,-1.2489,-1.2424,-1.2244,0.0,0.0,0.0,0.0,0.0,0.0,0.0,-1.1255,-1.0606,-1.0411,-1.0898,-1.1882,-1.0078,-0.8637,-0.7548,-0.7075,-0.6494,-0.5901,-0.5951,-0.5964,-0.5934,-0.4659,-0.4149,0.0,0.0,0.0,0.0,0.0,0.0,0.0,0.0,0.0,0.0,0.0,0.0,0.0,0.0,0.0,0.0,0.0,0.0,0.0,0.0,0.0,0.0,0.0,0.0,0.0,0.0,0.0,0.0,0.0,0.0,0.0,0.0,0.0,0.0,0.0,0.0,0.0,0.3065,0.2814,0.0,0.2556,0.2544,0.2555,0.2593,0.2653,0.2714,0.2774,0.2972,0.3014,0.2896,0.3727,0.3857,0.327,0.3936,0.4057,0.3624,0.3647,0.4043,0.462,0.4667,0.4935,0.5335,0.5733,0.5301,0.4552,0.5644,0.5285,0.4271,0.5743,0.7166,0.8809,1.1948,1.4022,1.5538,0.0,0.0,0.0,0.0,0.0,0.0,0.0,0.0,0.0,0.0,0.0,-1.7414,-1.58,-1.4886,-1.3929,-1.2896,-1.282,-1.2728,-1.2496,0.0,0.0,0.0,0.0,0.0,0.0,-1.0724,-1.0793,-1.0474,-0.9896,-1.0077,-1.0882,-0.9144,-0.7845,-0.6894,-0.668,-0.6192,-0.5427,-0.5262,-0.528,-0.5379,-0.3879,-0.3604,-0.393,0.0,0.0,0.0,0.0,0.0,0.0,0.0,0.0,0.0,0.0,0.0,0.0,0.0,0.0,0.0,0.0,0.0,0.0,0.0,0.0,0.0,0.0,0.0,0.0,0.0,0.0,0.0,0.0,0.0,0.0,0.0,0.0,0.0,0.0,0.0,0.3176,0.3138,0.2837,0.2727,0.2697,0.2712,0.274,0.278,0.284,0.2891,0.2932,0.3137,0.3158,0.2991,0.4048,0.4265,0.3624,0.4318,0.4436,0.3968,0.3897,0.4194,0.4764,0.4714,0.4898,0.5128,0.5338,0.5094,0.4625,0.5779,0.5638,0.4891,0.6344,0.8264,1.058,1.2704,1.4783,1.6736,0.0,0.0,0.0,0.0,0.0,0.0,0.0,0.0,0.0,0.0,-1.939,-1.8071,-1.6694,-1.5751,-1.4633,-1.3225,-1.3373,-1.313,-1.2223,-1.2154,0.0,0.0,0.0,0.0,-1.1882,-1.1952,-1.1741,-1.1318,-1.0684,-0.9547,-0.8116,-0.8237,-0.7417,-0.6039,-0.7566,-0.7838,-0.6965,-0.6234,-0.6425,-0.7018,-0.5437,-0.5289,-0.5797,0.0,0.0,0.0,0.0,0.0,0.0,0.0,0.0,0.0,0.0,0.0,0.0,0.0,0.0,0.0,0.0,0.0,0.0,0.0,0.0,0.0,0.0,0.0,0.0,0.0,0.0,0.0,0.0,0.0,0.0,0.0,0.0,0.0,0.3641,0.3381,0.3221,0.3188,0.3057,0.2886,0.2803,0.2898,0.2966,0.2968,0.3022,0.3055,0.3058,0.3595,0.3697,0.3152,0.418,0.4808,0.4808,0.4808,0.5028,0.5568,0.5571,0.5248,0.481,0.486,0.4733,0.4554,0.4108,0.4178,0.4581,0.5204,0.5483,0.57,0.8373,1.0625,1.2519,1.4482,1.6464,1.8245,0.0,0.0,0.0,0.0,0.0,0.0,0.0,0.0,0.0,0.0,-1.9415,-1.8359,-1.6024,-1.568,-1.5153,-1.403,-1.418,-1.3984,-1.2984,0.0,0.0,0.0,0.0,0.0,-1.153,-1.153,-1.1811,-1.2226,-1.1452,-1.15,-1.2244,-1.1832,-1.1173,-1.0292,-1.135,-1.0405,-0.8007,-0.7243,-0.6402,-0.5355,-0.3754,-0.3433,-0.3855,0.0,0.0,0.0,0.0,0.0,0.0,0.0,0.0,0.0,0.0,0.0,0.0,0.0,0.0,0.0,0.0,0.0,0.0,0.0,0.0,0.0,0.0,0.0,0.0,0.0,0.0,0.0,0.0,0.0,0.0,0.0,0.0,0.3343,0.3294,0.3358,0.3323,0.3124,0.3025,0.2998,0.304,0.3054,0.3078,0.3123,0.312,0.3137,0.3179,0.3624,0.3791,0.37,0.4667,0.5051,0.476,0.5085,0.5011,0.4335,0.4763,0.4755,0.4222,0.5091,0.5195,0.4745,0.5087,0.4955,0.4671,0.5522,0.7167,0.9088,0.9421,0.9871,1.0931,1.4924,1.772,1.9594,0.0,0.0,0.0,0.0,0.0,0.0,0.0,0.0,0.0,0.0,-1.9425,-1.8508,-1.5888,-1.5715,-1.5377,-1.4323,-1.4413,-1.4091,-1.2984,0.0,0.0,0.0,0.0,-1.191,-1.1768,-1.1413,-1.1619,-1.2462,-1.1621,-1.145,-1.1951,-1.1904,-1.1391,-1.0492,-1.0946,-1.0036,-0.7902,-0.7141,-0.6162,-0.4922,-0.4201,-0.3725,-0.3403,-0.3427,-0.375,-0.4145,-0.3976,-0.3871,-0.3776,-0.339,0.0,0.0,0.0,0.0,0.0,0.0,0.0,0.0,0.0,0.0,0.0,0.0,0.0,0.0,0.0,0.0,0.0,0.0,0.0,0.0,0.0,0.0,0.0,0.0,0.3597,0.3344,0.3181,0.3168,0.3164,0.3063,0.3029,0.3089,0.3156,0.3156,0.3168,0.3204,0.3189,0.3294,0.3531,0.396,0.432,0.4246,0.5282,0.5558,0.5089,0.5609,0.5537,0.4966,0.5393,0.5293,0.4968,0.5523,0.5535,0.5209,0.5237,0.5206,0.5227,0.6732,0.8553,1.0287,0.0,0.0,0.0,0.0,1.9213,2.0101,0.0,0.0,0.0,0.0,0.0,0.0,0.0,0.0,0.0,0.0,0.0,-1.8598,-1.6096,-1.5829,-1.5424,-1.4323,-1.4359,-1.3953,0.0,0.0,0.0,-1.2158,-1.2114,-1.22,-1.2345,-1.1687,-1.1746,-1.2446,-1.1667,-1.0805,-0.9896,-1.0564,-1.0274,-0.9124,-0.9007,-0.8525,-0.7927,-0.6873,-0.6055,-0.5516,-0.5691,-0.5071,-0.3991,-0.3556,-0.3894,-0.4421,-0.3997,-0.3851,-0.3875,-0.3805,0.0,0.0,0.0,0.0,0.0,0.0,0.0,0.0,0.0,0.0,0.0,0.0,0.0,0.0,0.0,0.0,0.0,0.0,0.0,0.0,0.0,0.0,0.0,0.0,0.3664,0.3453,0.3061,0.3052,0.3059,0.3021,0.3099,0.316,0.319,0.3216,0.323,0.323,0.3227,0.3427,0.3931,0.0,0.0,0.0,0.0,0.6111,0.567,0.6177,0.6406,0.6461,0.6461,0.6461,0.6259,0.5954,0.5753,0.5652,0.515,0.5122,0.5767,0.8249,0.9999,1.1111,1.1573,1.4736,1.9192,2.0519,2.0683,2.0344,0.0,0.0,0.0,0.0,0.0,0.0,0.0,0.0,0.0,-1.9941,-1.9632,-1.8798,-1.6452,-1.6202,-1.5687,-1.4426,-1.4574,-1.4275,0.0,0.0,-1.2365,-1.2483,-1.2319,-1.2531,-1.3199,-1.3124,-1.3357,-1.3959,-1.378,-1.3633,-1.3435,-1.3729,-1.3739,-1.3469,-1.2913,-1.2239,-1.1297,-0.9266,-0.7882,-0.7033,-0.5898,-0.5414,-0.55,-0.5385,-0.5454,-0.5534,-0.504,-0.4823,-0.4683,-0.4416,-0.4544,-0.4655,-0.44,0.0,0.0,0.0,0.0,0.0,0.0,0.0,0.0,0.0,0.0,0.0,0.0,0.0,0.0,0.0,0.0,0.0,0.0,0.0,0.0,0.3559,0.326,0.3096,0.3063,0.3495,0.3628,0.325,0.3168,0.319,0.3219,0.3227,0.323,0.323,0.3209,0.3395,0.3892,0.442,0.4883,0.5314,0.5992,0.6308,0.6269,0.642,0.6248,0.5853,0.6259,0.0,0.515,0.5957,0.6158,0.5652,0.5551,0.552,0.5864,0.8637,1.3005,1.76,1.6343,1.7904,2.0825,2.1188,2.1315,2.1293,0.0,0.0,0.0,0.0,0.0,0.0,0.0,0.0,0.0,0.0,-1.9529,-1.864,-1.617,-1.5983,-1.5536,-1.4298,-1.3878,0.0,0.0,-1.2581,-1.2409,-1.2574,-1.2428,-1.2776,-1.3617,-1.3388,-1.3687,-1.457,-1.4258,-1.421,-1.4432,-1.4529,-1.4743,-1.5075,-1.4153,-1.3741,-1.3504,-1.0798,-0.9457,-0.8996,-0.7581,-0.6884,-0.6656,-0.5806,-0.5506,-0.5489,-0.5308,-0.521,-0.5161,-0.495,-0.5042,-0.5121,-0.4927,-0.5018,-0.5175,0.0,0.0,0.0,0.0,0.0,0.0,0.0,0.0,0.0,0.0,0.0,0.0,0.0,0.0,0.2979,0.0,0.0,0.405,0.3925,0.3486,0.3091,0.3137,0.3379,0.3502,0.319,0.3401,0.3516,0.3228,0.323,0.323,0.323,0.3404,0.3793,0.431,0.4825,0.5298,0.5971,0.6212,0.6338,0.6461,0.6431,0.6346,0.6098,0.6373,0.6158,0.5654,0.6259,0.636,0.6057,0.6057,0.604,0.6309,1.0076,1.5059,2.0117,1.8992,1.9964,2.1972,2.1611,2.1422,2.1417,0.0,0.0,0.0,0.0,0.0,0.0,0.0,0.0,0.0,0.0,-1.965,-1.8615,-1.6307,-1.5876,-1.5329,0.0,0.0,0.0,0.0,-1.2639,-1.2567,-1.2657,-1.2756,-1.3148,-1.3852,-1.3667,-1.3959,-1.4862,-1.4414,-1.4342,-1.4643,-1.4643,-1.4789,-1.4988,-1.3819,-1.3433,-1.3538,-1.0901,-0.9851,-0.988,-0.9002,-0.8239,-0.7499,-0.6069,-0.5398,-0.5275,-0.5294,-0.5322,-0.5313,-0.5324,-0.5395,-0.5452,-0.5316,-0.5324,-0.5341,-0.512,-0.5066,0.0,0.0,0.0,0.0,0.0,0.0,0.0,0.0,0.0,-0.1167,0.0808,0.2382,0.386,0.524,0.4923,0.4412,0.4385,0.3893,0.3458,0.3392,0.3517,0.3627,0.3507,0.3823,0.3836,0.3433,0.3336,0.3337,0.3332,0.3721,0.4224,0.4746,0.5277,0.5769,0.6373,0.636,0.6279,0.6346,0.6442,0.6439,0.6534,0.6485,0.6461,0.6461,0.6461,0.6461,0.6461,0.6461,0.7053,0.8235,1.1842,1.6425,2.101,2.0377,2.106,2.2319,2.1771,2.1461,2.1433,0.0,0.0,0.0,0.0,0.0,0.0,0.0,0.0,0.0,0.0,0.0,0.0,0.0,0.0,0.0,0.0,0.0,0.0,-1.307,-1.313,-1.3186,-1.3288,-1.3713,-1.4124,-1.4601,-1.4799,-1.5041,-1.5423,-1.5327,-1.5319,-1.5398,-1.5398,-1.4607,-1.3034,-1.1838,-1.0556,-0.9139,-0.8161,-0.7749,-0.7839,-0.8183,-0.8264,-0.8118,-0.7052,-0.6423,-0.5942,-0.562,-0.542,-0.5382,-0.5436,-0.5463,-0.548,-0.551,-0.5458,-0.5357,-0.5221,0.0,-0.5003,-0.5161,-0.5328,-0.5267,-0.5056,-0.5,-0.4198,0.0,0.0,0.0994,0.4414,0.5283,0.5363,0.5305,0.5232,0.4865,0.4093,0.4344,0.4489,0.3927,0.474,0.5262,0.479,0.4258,0.3937,0.3937,0.3967,0.3972,0.3941,0.4098,0.4312,0.475,0.534,0.5762,0.5823,0.6222,0.6219,0.5833,0.6283,0.6458,0.6472,0.6466,0.6461,0.6461,0.6461,0.6461,0.6461,0.6461,0.9113,1.3274,1.3475,1.6712,2.1496,2.0334,2.0192,2.0903,2.1782,2.1836,2.1433,0.0,0.0,0.0,0.0,0.0,0.0,0.0,0.0,0.0,0.0,0.0,0.0,0.0,0.0,0.0,0.0,0.0,0.0,-1.3645,-1.3703,-1.3873,-1.4278,-1.4441,-1.4765,-1.5279,-1.5283,-1.5412,-1.5821,-1.5821,-1.5821,-1.5821,-1.5715,-1.5529,-1.5131,-1.3466,-1.2567,-1.2107,-0.9974,-0.9085,-0.9049,-0.8635,-0.8217,-0.7928,-0.7314,-0.6718,-0.606,-0.5564,-0.533,0.0,0.0,-0.5392,-0.5433,-0.5493,-0.5499,-0.545,-0.5259,-0.5311,0.0,-0.5579,-0.5528,0.0,0.0,-0.5232,-0.4869,-0.3507,-0.1376,0.0693,0.2142,0.43,0.5882,0.5776,0.5596,0.5205,0.0,0.4606,0.4533,0.3659,0.4457,0.4954,0.4464,0.4754,0.4754,0.4069,0.4065,0.3853,0.3535,0.4171,0.4592,0.4884,0.5699,0.6029,0.5776,0.6244,0.6244,0.5776,0.6236,0.6515,0.6512,0.6477,0.6461,0.6461,0.6461,0.6461,0.6461,0.6461,0.914,1.337,1.3228,1.5967,2.0288,1.9572,1.9467,1.9611,1.9906,2.012,2.0372,0.0,0.0,0.0,0.0,0.0,0.0,0.0,0.0,0.0,0.0,0.0,0.0,0.0,0.0,0.0,0.0,0.0,0.0,0.0,-1.4423,-1.4601,-1.5093,-1.5157,-1.5402,-1.5786,-1.5782,-1.5862,-1.6194,-1.6194,-1.6194,-1.6194,-1.6056,-1.6047,-1.6037,-1.4048,-1.3186,-1.3034,-1.033,-0.9412,-0.9623,-0.8858,-0.8542,-0.8365,-0.7758,-0.7192,-0.6479,-0.5625,-0.5283,0.0,0.0,-0.5322,-0.5371,-0.5431,-0.5455,-0.5422,-0.5234,-0.5371,-0.5643,-0.5602,0.0,0.0,-0.5438,-0.5447,-0.534,-0.5015,-0.2221,0.036,0.0829,0.3681,0.6166,0.6229,0.6028,0.5706,0.5143,0.5161,0.4973,0.4076,0.4675,0.5165,0.4746,0.5439,0.5551,0.4585,0.4388,0.4186,0.3982,0.4526,0.4962,0.5172,0.6107,0.6335,0.5854,0.6343,0.6335,0.5833,0.628,0.6448,0.6448,0.6304,0.6376,0.6461,0.6461,0.6461,0.6461,0.6461,0.8966,1.2863,1.2863,1.5453,1.924,1.9053,1.9013,1.9013,1.8663,1.8955,1.9456,0.0,0.0,0.0,0.0,0.0,0.0,0.0,0.0,0.0,0.0,0.0,0.0,0.0,0.0,0.0,0.0,0.0,0.0,0.0,-1.5089,-1.5272,-1.5523,-1.5869,-1.6042,-1.605,-1.6401,-1.6568,-1.656,-1.656,-1.656,-1.656,-1.656,-1.5616,-1.3903,-1.2013,-1.0204,-0.8494,-0.7111,-0.7102,-0.8153,-0.8603,-0.9364,-0.9978,-0.8896,-0.8098,-0.734,-0.5981,0.0,0.0,0.0,-0.5294,-0.5308,-0.5368,-0.5308,0.0,-0.5134,-0.518,0.0,0.0,0.0,-0.5736,-0.5513,-0.5602,-0.5221,-0.3582,-0.1384,0.0744,0.2491,0.4669,0.6292,0.6354,0.6417,0.6256,0.5753,0.6103,0.6223,0.5661,0.6106,0.6424,0.6469,0.6409,0.6196,0.0,0.5274,0.5251,0.5778,0.5379,0.5417,0.5962,0.6488,0.6493,0.5964,0.6384,0.6353,0.5888,0.6301,0.6448,0.6448,0.5935,0.6007,0.6461,0.6461,0.6461,0.6461,0.6461,0.8966,1.2863,1.2863,1.5453,1.924,1.9053,1.9094,1.9207,1.885,1.8893,1.9269,0.0,0.0,0.0,0.0,0.0,0.0,0.0,0.0,0.0,0.0,0.0,0.0,0.0,0.0,0.0,0.0,0.0,0.0,0.0,-1.5716,-1.5957,-1.6245,-1.6442,-1.6593,-1.6593,-1.6701,-1.6763,-1.6763,-1.6998,-1.7288,-1.7543,-1.584,-1.5198,-1.5209,-1.1472,-0.981,-0.9577,-0.8178,-0.7787,-0.822,-0.8588,-0.8882,-0.9088,-0.8606,-0.7851,-0.6853,0.0,0.0,0.0,0.0,0.0,0.0,-0.5245,0.0,0.0,-0.5767,0.0,0.0,0.0,0.0,-0.5954,-0.5795,-0.5818,-0.5718,-0.5304,-0.2308,0.0388,0.0877,0.3794,0.6188,0.609,0.6153,0.6014,0.5493,0.5983,0.6124,0.5257,0.5598,0.589,0.5764,0.5894,0.0,0.0,0.0,0.0,0.5311,0.5207,0.5482,0.6017,0.6556,0.6663,0.6126,0.6444,0.6183,0.5363,0.5819,0.5972,0.5935,0.6103,0.6299,0.6521,0.648,0.6461,0.6461,0.6461,0.8135,1.0757,1.0757,1.2393,1.4866,1.4821,1.571,1.6911,1.6596,1.744,1.8814,0.0,0.0,0.0,0.0,0.0,0.0,0.0,0.0,0.0,0.0,0.0,0.0,0.0,0.0,0.0,0.0,0.0,0.0,0.0,0.0,-1.6196,-1.6487,-1.6657,-1.6787,-1.6766,-1.6787,-1.6787,-1.6766,-1.7255,-1.7634,-1.789,-1.6505,-1.6237,-1.6802,-1.2437,-1.0865,-1.1084,-0.8783,-0.8147,-0.8657,-0.8659,-0.8844,-0.9127,-0.8807,-0.8037,0.0,0.0,0.0,0.0,0.0,0.0,0.0,0.0,0.0,0.0,0.0,0.0,0.0,0.0,-0.5872,-0.5987,-0.6008,-0.6003,-0.606,-0.6218,-0.2858,0.0198,0.0,0.3297,0.6085,0.5948,0.5967,0.5882,0.5434,0.5862,0.607,0.5395,0.5609,0.5816,0.5809,0.5937,0.615,0.0,0.0,0.0,0.5646,0.5536,0.5823,0.6396,0.6745,0.6845,0.6369,0.6618,0.6359,0.56,0.5969,0.6019,0.5759,0.6093,0.6189,0.6241,0.6387,0.6461,0.6461,0.6461,0.7737,0.967,0.9637,1.0862,1.2753,1.2709,1.3982,1.5766,1.567,1.6928,1.8808,0.0,0.0,0.0,0.0,0.0,0.0,0.0,0.0,0.0,0.0,0.0,0.0,0.0,0.0,0.0,0.0,0.0,0.0,0.0,0.0,0.0,-1.6284,-1.6479,-1.6665,-1.675,-1.6665,-1.6657,-1.6828,-1.7259,-1.7518,-1.751,-1.8035,-1.8305,-1.8156,-1.4483,-1.2849,-1.2495,-0.8811,-0.7981,-0.9077,-0.8644,-0.9156,-1.0067,-0.9316,0.0,0.0,0.0,0.0,0.0,0.0,0.0,0.0,0.0,0.0,0.0,0.0,0.0,-0.5286,-0.5491,-0.5662,-0.5815,-0.6044,-0.6147,-0.6224,-0.6245,-0.2982,0.0099,0.0099,0.3173,0.5973,0.0,0.0,0.5782,0.5668,0.5872,0.6104,0.6273,0.6254,0.6322,0.0,0.0,0.0,0.0,0.0,0.0,0.6703,0.0,0.6342,0.7006,0.7063,0.7036,0.6921,0.6913,0.688,0.6717,0.665,0.6382,0.5814,0.5704,0.568,0.5728,0.6285,0.6461,0.6461,0.6461,0.766,0.954,0.9455,1.0595,1.2443,1.2428,1.3721,1.57,1.5791,1.7169,1.9044,0.0,0.0,0.0,0.0,0.0,0.0,0.0,0.0,0.0,0.0,0.0,0.0,0.0,0.0,0.0,0.0,0.0,0.0,0.0,0.0,0.0,0.0,0.0,0.0,0.0,0.0,0.0,0.0,0.0,-1.7604,-1.8046,-1.6386,-1.5428,-1.4959,-1.2103,-1.0254,-0.9165,-0.8522,-0.8336,-0.8362,0.0,-0.8648,-0.8803,0.0,0.0,0.0,0.0,0.0,0.0,0.0,0.0,0.0,0.0,0.0,-0.6857,0.0,0.0,-0.647,-0.585,-0.5848,-0.6033,-0.6139,-0.621,-0.5884,-0.4264,-0.1889,0.0493,0.1821,0.4061,0.5657,0.0,0.0,0.0,0.5737,0.6115,0.0,0.654,0.6299,0.0,0.6478,0.0,0.6085,0.651,0.6446,0.0,0.0,0.6374,0.6441,0.7125,0.7104,0.7076,0.7049,0.6957,0.6684,0.6239,0.5682,0.5634,0.5869,0.5721,0.5883,0.6344,0.6387,0.6461,0.6461,0.6461,0.6709,0.7206,0.719,0.7411,0.779,0.7769,0.9152,1.1249,1.2595,1.4463,1.6501,0.0,0.0,0.0,0.0,0.0,0.0,0.0,0.0,0.0,0.0,0.0,0.0,0.0,0.0,0.0,0.0,0.0,0.0,0.0,0.0,0.0,0.0,0.0,0.0,0.0,0.0,0.0,0.0,0.0,0.0,0.0,-1.6438,-1.5393,-1.4966,-1.1934,-1.0185,-0.933,-0.8766,0.0,0.0,0.0,0.0,0.0,0.0,0.0,0.0,0.0,0.0,0.0,0.0,0.0,-0.5332,-0.6088,-0.6525,-0.6682,-0.6357,0.0,-0.674,-0.6066,-0.6429,-0.6812,-0.639,-0.5836,-0.4949,-0.3717,-0.0975,0.1538,0.2371,0.4114,0.0,0.0,0.0,0.0,0.0,0.0,0.0,0.654,0.6265,0.6301,0.0,0.617,0.0,0.6609,0.6536,0.6488,0.0,0.6608,0.6678,0.7134,0.7134,0.7104,0.7055,0.6984,0.6813,0.6438,0.5689,0.5662,0.6238,0.5864,0.6019,0.6586,0.6502,0.6461,0.6461,0.6461,0.6409,0.6316,0.6292,0.624,0.6172,0.6117,0.7964,1.0844,1.1884,1.4209,1.6928,0.0,0.0,0.0,0.0,0.0,0.0,0.0,0.0,0.0,0.0,0.0,0.0,0.0,0.0,0.0,0.0,0.0,0.0,0.0,0.0,0.0,0.0,0.0,0.0,0.0,0.0,0.0,0.0,0.0,0.0,0.0,0.0,0.0,0.0,0.0,0.0,0.0,0.0,0.0,0.0,0.0,0.0,0.0,0.0,0.0,0.0,0.0,0.0,0.0,0.0,-0.4348,-0.5131,-0.5602,-0.5842,-0.5912,-0.5939,-0.6291,-0.6646,-0.6294,-0.6936,-0.7589,-0.676,-0.5452,-0.4193,-0.3559,-0.038,0.2507,0.2596,0.0,0.5169,0.5101,0.0,0.5368,0.5433,0.0,0.6153,0.6485,0.6442,0.6512,0.6888,0.64,0.6251,0.6634,0.6313,0.6333,0.6819,0.6981,0.7036,0.7076,0.7125,0.7104,0.7,0.6992,0.694,0.6842,0.6246,0.6238,0.6815,0.6021,0.607,0.6621,0.6512,0.6461,0.6461,0.6461,0.6428,0.6365,0.6313,0.6284,0.6256,0.615,0.8557,1.2052,1.2357,1.4891,1.82,0.0,0.0,0.0,0.0,0.0,0.0,0.0,0.0,0.0,0.0,0.0,0.0,0.0,0.0,0.0,0.0,0.0,0.0,0.0,0.0,0.0,0.0,0.0,0.0,0.0,0.0,0.0,0.0,0.0,0.0,0.0,0.0,0.0,0.0,0.0,0.0,0.0,0.0,0.0,0.0,0.0,0.0,0.0,0.0,0.0,0.0,0.0,0.0,0.0,0.0,-0.4914,-0.5202,-0.5802,-0.6591,-0.7165,-0.6776,-0.6843,-0.6812,-0.6499,-0.6581,-0.676,-0.6521,-0.6293,-0.5204,-0.1843,-0.047,0.0,0.0,0.0,0.5095,0.4986,0.5074,0.0,0.5689,0.0,0.0,0.0,0.0,0.6921,0.0,0.0,0.0,0.0,0.0,0.0,0.0,0.6848,0.7055,0.7022,0.7027,0.7022,0.7,0.6951,0.6937,0.6967,0.6321,0.6276,0.6818,0.6061,0.6087,0.6564,0.6493,0.6461,0.6461,0.6461,0.0,0.6371,0.636,0.6294,0.6202,0.618,0.7588,0.9936,1.1724,1.3961,1.6092,0.0,0.0,0.0,0.0,0.0,0.0,0.0,0.0,0.0,0.0,0.0,0.0,0.0,0.0,0.0,0.0,0.0,0.0,0.0,0.0,0.0,0.0,0.0,0.0,0.0,0.0,0.0,0.0,0.0,0.0,0.0,0.0,0.0,0.0,0.0,0.0,0.0,0.0,0.0,0.0,0.0,0.0,0.0,0.0,0.0,0.0,0.0,0.0,0.0,0.0,-0.4735,-0.4891,-0.5485,-0.6215,-0.6824,-0.6568,-0.6863,-0.7075,-0.6609,-0.6913,-0.7329,-0.6739,-0.5955,-0.4508,-0.1423,0.0,0.0,0.0,0.0,0.4965,0.494,0.0,0.0,0.0,0.0,0.0,0.0,0.0,0.0,0.0,0.0,0.0,0.0,0.0,0.0,0.0,0.6904,0.7,0.7,0.697,0.6967,0.7,0.691,0.6891,0.6951,0.6647,0.6514,0.6864,0.6397,0.633,0.664,0.6551,0.651,0.651,0.654,0.6381,0.5973,0.6304,0.6282,0.5927,0.6161,0.8196,1.1046,1.2052,1.4437,1.7127,0.0,0.0,0.0,0.0,0.0,0.0,0.0,0.0,0.0,0.0,0.0,0.0,0.0,0.0,0.0,0.0,0.0,0.0,0.0,0.0,0.0,0.0,0.0,0.0,0.0,0.0,0.0,0.0,0.0,0.0,0.0,0.0,0.0,0.0,0.0,0.0,0.0,0.0,0.0,0.0,0.0,0.0,0.0,0.0,0.0,0.0,0.0,0.0,0.0,0.0,-0.462,-0.4689,-0.4961,-0.5607,-0.6155,-0.618,-0.6702,-0.7154,-0.6707,-0.7365,-0.8032,-0.6977,-0.5717,-0.4011,-0.158,0.0536,0.0,0.0,0.4788,0.4793,0.494,0.0,0.0,0.0,0.0,0.0,0.0,0.0,0.0,0.0,0.0,0.0,0.0,0.0,0.0,0.0,0.6824,0.691,0.6959,0.6927,0.6929,0.6978,0.6886,0.6872,0.6948,0.6899,0.6894,0.6927,0.6769,0.6706,0.6722,0.6605,0.6448,0.6454,0.66,0.6231,0.5811,0.6272,0.6288,0.5863,0.6175,0.8654,1.2002,1.2438,1.4802,1.7781,0.0,0.0,0.0,0.0,0.0,0.0,0.0,0.0,0.0,0.0,0.0,0.0,0.0,0.0,0.0,0.0,0.0,0.0,0.0,0.0,0.0,0.0,0.0,0.0,0.0,0.0,0.0,0.0,0.0,0.0,0.0,0.0,0.0,0.0,0.0,0.0,0.0,0.0,0.0,0.0,0.0,0.0,0.0,0.0,0.0,0.0,0.0,0.0,0.0,0.0,0.0,-0.4886,-0.4495,-0.5156,-0.6052,-0.6158,0.0,0.0,-0.6747,-0.7217,-0.7751,-0.6999,-0.6615,-0.5329,-0.1688,0.0,0.0,0.0,0.4921,0.4804,0.4992,0.494,0.5008,0.0,0.0,0.0,0.0,0.0,0.0,0.0,0.0,0.0,0.0,0.0,0.0,0.0,0.6569,0.6828,0.6834,0.688,0.691,0.6918,0.6905,0.6957,0.7068,0.7068,0.7041,0.6989,0.6918,0.6828,0.6722,0.6605,0.6448,0.6448,0.6559,0.6448,0.0,0.6494,0.6486,0.644,0.643,0.777,0.9947,1.2102,1.3947,1.5498,0.0,0.0,0.0,0.0,0.0,0.0,0.0,0.0,0.0,0.0,0.0,0.0,0.0,0.0,0.0,0.0,0.0,0.0,0.0,0.0,0.0,0.0,0.0,0.0,0.0,0.0,0.0,0.0,0.0,0.0,0.0,0.0,0.0,0.0,0.0,0.0,0.0,0.0,0.0,0.0,0.0,0.0,0.0,0.0,0.0,0.0,0.0,0.0,0.0,0.0,0.0,0.0,-0.3991,-0.4485,0.0,0.0,-0.6245,-0.6458,-0.6627,-0.6921,-0.7288,-0.7073,-0.67,-0.5464,-0.1793,0.0,0.0,0.428,0.4957,0.4924,0.5006,0.4954,0.4967,0.0,0.0,0.0,0.0,0.0,0.0,0.0,0.0,0.0,0.0,0.0,0.0,0.0,0.6837,0.6935,0.6823,0.6842,0.6671,0.6416,0.6384,0.6421,0.6534,0.6472,0.666,0.7,0.6864,0.6793,0.6777,0.6657,0.6602,0.6602,0.6602,0.6378,0.0,0.6407,0.6439,0.6132,0.6375,0.8603,1.1875,1.2696,1.5038,1.7672,0.0,0.0,0.0,0.0,0.0,0.0,0.0,0.0,0.0,0.0,0.0,0.0,0.0,0.0,0.0,0.0,0.0,0.0,0.0,0.0,0.0,0.0,0.0,0.0,0.0,0.0,-1.8153,-1.679,-1.5786,0.0,0.0,0.0,0.0,0.0,0.0,0.0,0.0,0.0,0.0,0.0,0.0,0.0,0.0,0.0,0.0,0.0,0.0,0.0,0.0,0.0,0.0,0.0,0.0,0.0,0.0,0.0,-0.594,-0.6212,-0.6467,-0.6921,-0.7247,-0.7027,-0.629,-0.4846,0.0,0.0,0.0,0.4399,0.5014,0.4978,0.5036,0.4986,0.4954,0.0,0.0,0.0,0.0,0.0,0.0,0.0,0.0,0.0,0.0,0.0,0.0,0.0,0.6891,0.6787,0.6878,0.6872,0.6587,0.6122,0.6194,0.6226,0.6226,0.6133,0.6436,0.7027,0.6663,0.6608,0.6842,0.651,0.6446,0.6635,0.6431,0.6201,0.0,0.6431,0.6481,0.6198,0.6449,0.8518,1.1461,1.2672,1.4923,1.7364,0.0,0.0,0.0,0.0,0.0,0.0,0.0,0.0,0.0,0.0,0.0,0.0,0.0,0.0,0.0,0.0,0.0,0.0,0.0,0.0,0.0,0.0,0.0,0.0,0.0,0.0,-1.9288,-1.9297,-1.5253,-1.3083,-1.2778,0.0,0.0,0.0,0.0,0.0,0.0,0.0,0.0,0.0,0.0,0.0,0.0,0.0,0.0,0.0,0.0,0.0,0.0,0.0,0.0,0.0,0.0,0.0,0.0,0.0,-0.6002,-0.7021,-0.6586,-0.724,-0.7861,-0.7201,-0.5499,-0.3294,0.0,0.0,0.0,0.4829,0.5104,0.5038,0.5101,0.5014,0.4954,0.5011,0.0,0.0,0.0,0.0,0.0,0.0,0.0,0.0,0.0,0.0,0.0,0.709,0.6484,0.0,0.7,0.7,0.667,0.6122,0.667,0.6724,0.6281,0.6226,0.6534,0.709,0.6477,0.6419,0.6905,0.6256,0.6173,0.6532,0.6016,0.612,0.0,0.67,0.6725,0.6733,0.6793,0.6741,0.7158,1.1687,1.2827,1.2818,0.0,0.0,0.0,0.0,0.0,0.0,0.0,0.0,0.0,0.0,0.0,0.0,0.0,0.0,0.0,0.0,0.0,0.0,0.0,0.0,0.0,0.0,0.0,0.0,0.0,-1.9259,-1.8445,-1.7074,-1.4901,-1.2841,-1.0874,-0.9015,-0.8052,0.0,0.0,0.0,0.0,0.0,0.0,0.0,0.0,0.0,0.0,0.0,0.0,0.0,0.0,0.0,0.0,0.0,0.0,0.0,0.0,0.0,0.0,0.0,0.0,0.0,-0.6139,-0.6456,-0.6843,-0.6639,-0.4904,-0.2809,-0.1009,0.0,0.0,0.4814,0.5139,0.5087,0.5109,0.5046,0.5014,0.5074,0.5049,0.0,0.0,0.0,0.0,0.0,0.0,0.0,0.0,0.0,0.0,0.7036,0.6795,0.6763,0.694,0.6978,0.6561,0.5471,0.616,0.6207,0.5719,0.6004,0.6333,0.6592,0.6568,0.6298,0.5769,0.623,0.6241,0.6014,0.6185,0.6394,0.664,0.67,0.6752,0.6788,0.6766,0.77,0.9375,1.237,1.4123,1.5405,0.0,0.0,0.0,0.0,0.0,0.0,0.0,0.0,0.0,0.0,0.0,0.0,0.0,0.0,0.0,0.0,0.0,0.0,0.0,0.0,0.0,0.0,0.0,0.0,-1.959,-1.8584,-1.7425,-1.6277,-1.4211,-1.2272,-1.0456,-0.9224,-0.8465,-0.825,-0.8546,0.0,0.0,0.0,0.0,0.0,0.0,0.0,-0.9065,0.0,0.0,0.0,0.0,0.0,0.0,0.0,0.0,0.0,0.0,0.0,0.0,0.0,0.0,0.0,0.0,-0.6093,-0.6251,-0.6273,-0.4159,0.0,0.0,0.0,0.0,0.5031,0.5204,0.5145,0.5145,0.5076,0.5033,0.5071,0.0,0.0,0.0,0.0,0.0,0.0,0.0,0.0,0.0,0.0,0.6691,0.7041,0.6835,0.6813,0.6948,0.7022,0.6502,0.5277,0.6055,0.5974,0.502,0.5758,0.6191,0.6219,0.6472,0.633,0.5903,0.6286,0.6305,0.618,0.6224,0.6425,0.0,0.667,0.6703,0.6747,0.6733,0.757,0.9259,1.241,1.4186,1.5469,0.0,0.0,0.0,0.0,0.0,0.0,0.0,0.0,0.0,0.0,0.0,0.0,0.0,0.0,0.0,0.0,0.0,0.0,0.0,0.0,0.0,0.0,0.0,0.0,-1.9552,-1.7647,-1.662,-1.6451,-1.3274,-1.162,-1.1234,-0.9487,-0.8693,-0.8836,-0.8685,-0.8717,-0.8897,-0.8983,-0.9016,-0.9024,-0.9109,-0.9142,0.0,0.0,0.0,0.0,0.0,0.0,0.0,0.0,0.0,0.0,0.0,0.0,0.0,0.0,0.0,0.0,0.0,0.0,0.0,0.0,0.0,0.0,0.0,0.0,0.0,0.0,0.0,0.0,0.5207,0.5106,0.5025,0.5033,0.0,0.0,0.0,0.0,0.0,0.0,0.0,0.0,0.0,0.0,0.5815,0.6993,0.6587,0.6456,0.6904,0.7112,0.658,0.542,0.6374,0.6153,0.4435,0.5602,0.6122,0.6129,0.6176,0.6392,0.6883,0.6278,0.6333,0.0,0.6208,0.6188,0.6725,0.663,0.6613,0.6654,0.6706,0.6695,0.7179,1.1911,1.3308,1.3615,0.0,0.0,0.0,0.0,0.0,0.0,0.0,0.0,0.0,0.0,0.0,0.0,0.0,0.0,0.0,0.0,0.0,0.0,0.0,0.0,0.0,0.0,0.0,0.0,-1.9117,-1.8318,-1.7363,-1.6349,-1.4089,-1.2419,-1.1166,-0.9423,-0.8591,-0.857,-0.8664,-0.8844,-0.9081,-0.9101,-0.9109,-0.9114,-0.9134,-0.9142,0.0,0.0,0.0,0.0,-0.8983,-0.8918,0.0,0.0,0.0,0.0,0.0,0.0,0.0,0.0,-0.5384,0.0,0.0,0.0,0.0,0.0,0.0,0.0,0.0,0.0,0.0,0.0,0.0,0.0,0.0,0.0,0.0,0.0,0.0,0.0,0.0,0.0,0.0,0.0,0.0,0.0,0.0,0.0,0.5715,0.6488,0.635,0.6318,0.6404,0.6431,0.6306,0.5922,0.6172,0.5986,0.5143,0.6282,0.6581,0.6184,0.6153,0.5896,0.5629,0.5795,0.6087,0.6177,0.6387,0.6601,0.679,0.6722,0.6725,0.6771,0.6739,0.6747,0.7299,1.1882,1.3341,1.3615,0.0,0.0,0.0,0.0,0.0,0.0,0.0,0.0,0.0,0.0,0.0,0.0,0.0,0.0,0.0,0.0,0.0,0.0,0.0,0.0,0.0,0.0,0.0,-1.8976,-1.8976,-1.7127,-1.5782,-1.5021,-1.2415,-1.0791,-0.9942,-0.9002,-0.8624,-0.866,-0.8799,-0.8967,-0.9142,-0.9142,-0.9142,-0.9142,-0.9142,0.0,0.0,0.0,0.0,0.0,-0.9024,-0.8975,0.0,-0.9161,-0.8807,-0.8257,0.0,0.0,0.0,0.0,-0.5406,0.0,0.0,0.0,0.0,0.0,0.0,0.0,0.0,0.0,0.0,0.0,0.0,0.0,0.0,0.0,0.0,0.0,0.0,0.0,0.0,0.0,0.0,0.0,0.0,0.0,0.0,0.5864,0.5484,0.5798,0.6127,0.6226,0.6203,0.6226,0.6226,0.6195,0.6203,0.5868,0.5326,0.6484,0.667,0.6129,0.6452,0.6313,0.5937,0.6258,0.6471,0.6469,0.6706,0.6823,0.6891,0.6766,0.6755,0.6812,0.6749,0.6747,0.7302,1.1596,1.2985,1.339,0.0,0.0,0.0,0.0,0.0,0.0,0.0,0.0,0.0,0.0,0.0,0.0,0.0,0.0,0.0,0.0,0.0,0.0,0.0,0.0,0.0,0.0,-1.8997,-1.8846,-1.8588,-1.5401,-1.3573,-1.3089,-1.0177,-0.8673,-0.8587,-0.8603,-0.8693,-0.8856,-0.8958,-0.9052,-0.9122,-0.9138,-0.9142,-0.9142,-0.9142,0.0,0.0,0.0,0.0,0.0,0.0,0.0,0.0,-0.901,-0.8824,-0.8359,-0.7556,0.0,0.0,0.0,0.0,0.0,0.0,0.0,0.0,0.0,0.0,0.0,0.0,0.0,0.0,0.0,0.0,0.0,0.0,0.0,0.0,0.0,0.0,0.0,0.0,0.0,0.0,0.0,0.0,0.0,0.6203,0.5586,0.5143,0.533,0.5809,0.6151,0.6215,0.625,0.6381,0.6381,0.6219,0.5951,0.5471,0.6444,0.6747,0.6273,0.6639,0.6851,0.691,0.6861,0.6891,0.7,0.6951,0.0,0.7,0.6799,0.6763,0.6826,0.6755,0.6733,0.7165,1.1309,1.2739,1.3248,0.0,0.0,0.0,0.0,0.0,0.0,0.0,0.0,0.0,0.0,0.0,0.0,0.0,0.0,0.0,0.0,0.0,0.0,0.0,0.0,0.0,-1.7243,-1.819,-1.8046,-1.646,-1.5562,-1.3888,-1.1323,-1.0446,-0.9531,-0.8493,-0.857,-0.866,-0.8762,-0.893,-0.9016,-0.9032,-0.9109,-0.9142,-0.9142,-0.9142,0.0,0.0,0.0,0.0,0.0,0.0,0.0,0.0,-0.9551,-0.8692,-0.7544,-0.7825,0.0,0.0,0.0,0.0,0.0,-0.5447,-0.5496,-0.4731,-0.1265,0.0,0.0,0.0,0.0,0.0,0.0,0.0,0.0,0.0,0.0,0.0,0.0,0.0,0.0,0.0,0.0,0.0,0.0,0.0,0.5597,0.586,0.4612,0.4259,0.5261,0.5489,0.5715,0.6269,0.6234,0.6436,0.6993,0.6387,0.6347,0.667,0.684,0.6943,0.6875,0.6399,0.6376,0.691,0.6426,0.6561,0.7,0.0,0.6976,0.7063,0.6875,0.6837,0.6883,0.6771,0.6758,0.7326,1.1782,1.3139,1.3513,0.0,0.0,0.0,0.0,0.0,0.0,0.0,0.0,0.0,0.0,0.0,0.0,0.0,0.0,0.0,0.0,0.0,0.0,0.0,0.0,-1.6073,-1.5123,-1.5586,-1.5508,-1.4659,-1.3648,-1.2368,-1.0913,-0.9889,-0.9145,-0.8615,-0.8656,-0.875,-0.8885,-0.8918,-0.8962,-0.9016,-0.9105,-0.9142,-0.9138,0.0,0.0,0.0,0.0,0.0,0.0,0.0,0.0,0.0,0.0,-0.8664,-0.7373,-0.7877,0.0,0.0,0.0,0.0,0.0,-0.5477,-0.5493,-0.4659,-0.0868,0.0,0.0,0.0,0.0,0.0,0.0,0.0,0.0,0.0,0.0,0.0,0.0,0.0,0.0,0.0,0.0,0.0,0.0,0.0,0.5643,0.5554,0.4991,0.4709,0.4938,0.5271,0.5495,0.5831,0.5787,0.588,0.6134,0.6164,0.6233,0.6561,0.6721,0.6721,0.6561,0.6502,0.6492,0.6522,0.6581,0.6827,0.7049,0.0,0.7041,0.7085,0.6965,0.6913,0.6908,0.6883,0.685,0.734,1.1459,1.4399,1.6585,0.0,0.0,0.0,0.0,0.0,0.0,0.0,0.0,0.0,0.0,0.0,0.0,0.0,0.0,0.0,0.0,0.0,0.0,0.0,-1.5732,-1.4572,-1.3143,-1.2632,-1.2564,-1.2938,-1.1761,-1.0888,-1.0421,-0.9184,-0.8693,-0.8799,-0.8799,-0.886,-0.8975,-0.8901,-0.8909,-0.8983,-0.9073,-0.9122,-0.9138,0.0,0.0,0.0,0.0,0.0,0.0,0.0,0.0,0.0,0.0,0.0,0.0,0.0,0.0,0.0,0.0,-0.557,-0.5553,-0.5523,-0.5257,-0.4078,-0.0714,0.0,0.0,0.0,0.0,0.0,0.0,0.0,0.0,0.0,0.0,0.0,0.0,0.0,0.0,0.0,0.0,0.6575,0.6592,0.6087,0.5627,0.5366,0.5259,0.5143,0.4923,0.5143,0.5478,0.559,0.5547,0.5547,0.5607,0.6043,0.6315,0.6342,0.6708,0.67,0.6323,0.6713,0.6724,0.6342,0.6842,0.709,0.709,0.7104,0.7112,0.7104,0.7049,0.6976,0.6913,0.6959,0.7557,0.8819,1.2086,1.5899,1.9308,0.0,0.0,0.0,0.0,0.0,0.0,0.0,0.0,0.0,0.0,0.0,0.0,0.0,0.0,0.0,0.0,0.0,0.0,0.0,-1.3342,-1.1467,-1.1583,-0.9913,-0.9689,-1.1232,-1.1161,-1.0391,-0.8886,-0.8717,-0.8815,-0.8987,-0.8987,-0.895,-0.8881,-0.8873,-0.8873,-0.8885,-0.8979,-0.9065,-0.9142,-0.9138,0.0,0.0,0.0,0.0,0.0,0.0,0.0,0.0,0.0,0.0,0.0,0.0,0.0,0.0,0.0,-0.569,-0.557,-0.5712,-0.449,-0.2653,-0.0452,0.0088,0.0,0.4949,0.5687,0.0,0.5698,0.0,0.0,0.0,0.0,0.0,0.0,0.0,0.0,0.0,0.0,0.6895,0.6362,0.5804,0.5366,0.5383,0.4788,0.488,0.5986,0.5652,0.5541,0.6097,0.605,0.6066,0.6274,0.6517,0.6778,0.6891,0.6883,0.6856,0.6808,0.691,0.694,0.6891,0.7063,0.709,0.709,0.7147,0.7166,0.7166,0.7104,0.7014,0.691,0.6913,0.9435,1.3353,1.5008,1.7458,1.983,0.0,0.0,0.0,0.0,0.0,0.0,0.0,0.0,0.0,0.0,0.0,0.0,0.0,0.0,0.0,0.0,0.0,0.0,0.0,-1.1836,-1.0698,-0.9665,-0.896,-0.8999,-0.9703,-0.9708,-0.9472,-0.882,-0.8991,-0.9052,-0.9007,-0.9007,-0.893,-0.8787,-0.8787,-0.8815,-0.8877,-0.8967,-0.906,-0.9138,-0.9081,-0.9073,0.0,0.0,0.0,0.0,0.0,0.0,0.0,0.0,0.0,0.0,0.0,0.0,0.0,0.0,-0.566,-0.5668,-0.5654,-0.4256,-0.2323,-0.0363,0.0972,0.0,0.0,0.5943,0.5845,0.5853,0.5973,0.0,0.0,0.0,0.0,0.0,0.0,0.0,0.0,0.7161,0.7063,0.6836,0.6281,0.5932,0.5898,0.5658,0.5636,0.6153,0.5933,0.5933,0.6153,0.6102,0.5889,0.563,0.6366,0.6626,0.6351,0.6629,0.6809,0.6796,0.6872,0.6742,0.6502,0.6966,0.7112,0.7147,0.7166,0.7153,0.7125,0.7139,0.7049,0.6905,0.6867,0.8562,1.1006,1.1473,1.3011,1.5148,0.0,0.0,0.0,0.0,0.0,0.0,0.0,0.0,0.0,0.0,0.0,0.0,0.0,0.0,0.0,0.0,0.0,0.0,-1.1248,-1.0595,-0.9773,-0.8692,-0.8607,-0.8677,-0.8824,-0.8856,-0.8913,-0.8999,-0.9158,-0.9187,-0.9093,-0.9036,-0.8938,-0.882,-0.882,-0.8856,-0.8918,-0.8983,-0.906,-0.9138,-0.9077,-0.8979,0.0,0.0,0.0,0.0,0.0,0.0,0.0,0.0,0.0,0.0,0.0,0.0,0.0,0.0,0.0,-0.5755,-0.5695,-0.4269,-0.2325,-0.0363,0.0,0.0,0.5756,0.6125,0.6033,0.6106,0.6221,0.6294,0.6254,0.0,0.0,0.0,0.0,0.0,0.7175,0.7175,0.7175,0.6951,0.6488,0.625,0.6226,0.6184,0.625,0.6342,0.6216,0.6098,0.6098,0.6062,0.585,0.5464,0.6326,0.6597,0.6207,0.6597,0.6777,0.6755,0.6839,0.6716,0.6484,0.6869,0.7125,0.7147,0.7166,0.7153,0.7117,0.7161,0.7085,0.7035,0.7568,0.8518,0.942,0.9831,1.0761,1.217,0.0,0.0,0.0,0.0,0.0,0.0,0.0,0.0,0.0,0.0,0.0,0.0,0.0,0.0,0.0,0.0,0.0,0.0,-1.1084,-0.9526,-0.8607,-0.8607,-0.8607,-0.8648,-0.8734,-0.8828,-0.9007,-0.9281,-0.9187,-0.9187,-0.9273,-0.9093,-0.9007,-0.9007,-0.9007,-0.9007,-0.9007,-0.9007,-0.906,-0.9142,-0.9047,-0.8712,-0.8177,0.0,0.0,0.0,0.0,0.0,0.0,0.0,-0.6715,0.0,0.0,0.0,0.0,0.0,-0.5782,-0.5818,-0.5758,-0.436,-0.2482,0.0,0.0,0.0,0.5856,0.6185,0.612,0.6482,0.6458,0.6373,0.6373,0.6474,0.0,0.6451,0.6902,0.7175,0.7175,0.7175,0.6951,0.6393,0.6234,0.6219,0.6277,0.6133,0.6283,0.6992,0.6399,0.604,0.604,0.604,0.6067,0.6117,0.6501,0.6785,0.6905,0.6788,0.6758,0.6818,0.6818,0.685,0.6916,0.709,0.7139,0.709,0.7147,0.7175,0.7175,0.7175,0.7104,0.7199,0.9221,0.9698,0.9455,1.1147,1.1767,1.1969,0.0,0.0,0.0,0.0,0.0,0.0,0.0,0.0,0.0,0.0,0.0,0.0,0.0,0.0,0.0,0.0,0.0,0.0,-0.9545,-0.8892,-0.8607,-0.8607,-0.8607,-0.8677,-0.8828,-0.9048,-0.9167,-0.9183,-0.9158,-0.9093,-0.8991,-0.9003,-0.8975,-0.8913,-0.8913,-0.8983,-0.9097,-0.9036,-0.906,-0.9047,-0.8759,-0.8459,-0.8345,0.0,0.0,0.0,0.0,0.0,0.0,0.0,0.0,0.0,0.0,0.0,0.0,-0.5752,-0.5752,-0.5763,-0.5747,0.0,0.0,0.0,0.0,0.0,0.0,0.6251,0.0,0.0,0.667,0.6523,0.6605,0.0,0.0,0.6695,0.6957,0.7063,0.662,0.6951,0.6951,0.6393,0.6711,0.6903,0.684,0.6787,0.6726,0.6878,0.6639,0.6506,0.6465,0.6184,0.6194,0.6488,0.6228,0.6326,0.6779,0.6744,0.6736,0.6755,0.6842,0.6891,0.691,0.6962,0.7027,0.709,0.7112,0.7139,0.7166,0.7085,0.7027,0.6987,0.7162,0.6905,0.6387,0.6488,0.6276,0.6379,0.0,0.0,0.0,0.0,0.0,0.0,0.0,0.0,0.0,0.0,-1.6433,-1.5652,0.0,0.0,0.0,0.0,0.0,0.0,0.0,-0.8705,-0.8673,-0.8709,-0.8677,-0.8758,-0.8975,-0.9105,-0.9163,-0.9142,-0.9105,-0.9069,-0.9036,-0.9016,-0.9016,-0.9036,-0.9036,-0.9073,-0.9047,-0.8613,-0.8432,-0.8478,-0.7999,-0.7711,-0.7426,0.0,0.0,0.0,0.0,0.0,0.0,0.0,0.0,0.0,0.0,0.0,0.0,-0.5818,-0.5796,-0.561,-0.4761,0.0,0.0,0.1025,0.3213,0.5312,0.6177,0.0,0.0,0.0,0.0,0.6752,0.6823,0.6927,0.0,0.6853,0.6808,0.6732,0.6393,0.662,0.6719,0.6362,0.6784,0.7076,0.7006,0.6957,0.6908,0.6858,0.6831,0.679,0.673,0.6447,0.6439,0.6692,0.6358,0.6264,0.6413,0.6599,0.6609,0.6449,0.673,0.6872,0.6875,0.6924,0.7,0.709,0.7112,0.7134,0.7134,0.7041,0.6987,0.6845,0.6216,0.565,0.5009,0.4474,0.4474,0.5322,0.0,0.0,0.0,0.0,0.0,0.0,0.0,0.0,0.0,0.0,-1.5794,-1.4886,0.0,0.0,0.0,0.0,0.0,0.0,0.0,-0.8799,-0.8783,-0.8869,-0.8807,-0.8889,-0.9138,-0.9077,-0.9077,-0.9142,-0.9044,-0.9081,-0.924,-0.9073,-0.9093,-0.9269,-0.9261,-0.9216,-0.8952,-0.7992,-0.7609,-0.7514,-0.6948,-0.6476,-0.6098,-0.6577,0.0,0.0,0.0,0.0,0.0,0.0,0.0,0.0,-0.5951,0.0,-0.585,-0.5899,-0.5694,-0.5139,-0.3392,0.0,0.0,0.0,0.0,0.0,0.6162,0.6777,0.6927,0.6987,0.0,0.7014,0.7006,0.7006,0.7006,0.6896,0.6542,0.6274,0.6162,0.6274,0.6257,0.6092,0.6594,0.6992,0.6984,0.6883,0.6837,0.688,0.6831,0.6777,0.6722,0.6615,0.6588,0.6638,0.6478,0.6299,0.5993,0.6356,0.6384,0.6075,0.6501,0.6714,0.6828,0.6935,0.7022,0.7085,0.7139,0.7134,0.7085,0.7022,0.6959,0.6794,0.6202,0.5543,0.5009,0.4368,0.5322,0.7122,0.0,0.0,0.0,0.0,0.0,0.0,0.0,0.0,0.0,0.0,0.0,0.0,0.0,0.0,0.0,0.0,0.0,0.0,0.0,-0.8893,-0.8848,-0.8869,-0.8991,-0.9081,-0.9142,-0.9261,-0.9265,-0.9142,-0.8979,-0.8922,-0.8958,-0.8918,-0.8999,-0.9171,-0.9097,-0.8904,-0.847,-0.7837,-0.7531,-0.7444,-0.6174,-0.5813,-0.6003,-0.5337,-0.5216,0.0,0.0,0.0,0.0,0.0,0.0,0.0,-0.6011,-0.5951,-0.5897,-0.5861,-0.4679,-0.323,0.0,-0.0379,0.0,0.0,0.0,0.0,0.0,0.6777,0.6927,0.6987,0.7071,0.7125,0.7076,0.7068,0.6958,0.6404,0.6313,0.5887,0.489,0.5662,0.5979,0.5492,0.6347,0.6962,0.6867,0.6834,0.6782,0.67,0.6684,0.667,0.6657,0.6241,0.6132,0.6638,0.617,0.609,0.6518,0.6148,0.6175,0.6605,0.6288,0.6418,0.6888,0.6867,0.6916,0.7022,0.7036,0.7055,0.7085,0.6973,0.6703,0.6253,0.5561,0.5009,0.4368,0.3837,0.5005,0.7122,0.0,0.0,0.0,0.0,0.0,0.0,0.0,0.0,0.0,0.0,0.0,0.0,0.0,0.0,0.0,0.0,0.0,0.0,0.0,0.0,-0.8938,-0.8938,-0.9109,-0.9228,-0.9269,-0.9359,-0.9342,-0.9207,-0.9069,-0.8999,-0.8999,-0.8913,-0.8898,-0.8817,-0.8692,-0.8259,-0.7601,-0.6783,-0.64,-0.634,-0.5347,-0.5186,-0.5677,-0.5396,-0.5362,-0.5507,-0.5535,0.0,0.0,0.0,0.0,0.0,0.0,0.0,-0.4554,-0.4465,-0.3039,-0.1194,0.0,0.0,0.0,0.0,0.0,0.0,0.0,0.0,0.0,0.0,0.7049,0.7085,0.7055,0.6848,0.6529,0.6164,0.5963,0.5409,0.4494,0.5382,0.5915,0.5193,0.618,0.6908,0.6788,0.6774,0.6747,0.6684,0.6651,0.6635,0.6635,0.6301,0.6275,0.6553,0.6218,0.6142,0.6226,0.6224,0.6267,0.6354,0.6382,0.6517,0.6867,0.6894,0.6924,0.6957,0.666,0.6561,0.6561,0.6286,0.5923,0.5574,0.491,0.4581,0.4261,0.3624,0.5534,0.8607,0.0,0.0,0.0,0.0,0.0,0.0,0.0,0.0,0.0,0.0,0.0,0.0,0.0,0.0,0.0,0.0,0.0,0.0,0.0,0.0,0.0,-0.9032,-0.9191,-0.9314,-0.9383,-0.9399,-0.9367,-0.9281,-0.9187,-0.9047,-0.8948,-0.8878,-0.8551,-0.8185,-0.8109,-0.7439,-0.6451,-0.5465,-0.5008,-0.4958,-0.4508,-0.4632,-0.5139,-0.5514,-0.5765,-0.5723,-0.5734,-0.5856,-0.5984,-0.5995,0.0,0.0,0.0,0.0,-0.298,-0.3107,-0.1385,0.0914,0.0,0.0,0.0,0.0,0.0,0.0,0.0,0.0,0.0,0.0,0.0,0.7101,0.6987,0.6574,0.6257,0.5994,0.5586,0.5037,0.4425,0.5317,0.5749,0.5339,0.6219,0.6845,0.6722,0.6719,0.6714,0.6684,0.6643,0.6621,0.6621,0.6567,0.6518,0.6477,0.6466,0.6288,0.5833,0.6288,0.6345,0.5995,0.6578,0.6706,0.6701,0.681,0.6837,0.6695,0.6298,0.6076,0.5935,0.539,0.5039,0.4892,0.4473,0.4258,0.404,0.3623,0.6278,1.0196,0.0,0.0,0.0,0.0,0.0,0.0,0.0,0.0,0.0,0.0,-1.1779,0.0,0.0,0.0,0.0,0.0,0.0,0.0,0.0,0.0,0.0,-0.9126,-0.9224,-0.9285,-0.9297,-0.9371,-0.9367,-0.9281,-0.9187,-0.8857,-0.847,-0.8379,-0.7827,-0.7144,-0.6946,-0.6304,-0.5379,-0.474,-0.4438,-0.436,-0.3861,-0.399,-0.4485,-0.4485,-0.4846,-0.5209,-0.5257,-0.5523,-0.5864,-0.5918,-0.594,0.0,0.0,0.0,0.0,-0.302,-0.0275,0.2768,0.0,0.0,0.0,0.0,0.0,0.0,0.0,0.0,0.0,0.0,0.0,0.7525,0.7037,0.6776,0.6423,0.5347,0.5137,0.4924,0.4377,0.4947,0.5497,0.5869,0.64,0.6782,0.666,0.6695,0.6662,0.6507,0.6537,0.6564,0.6564,0.6507,0.6493,0.654,0.6488,0.6491,0.6346,0.6045,0.61,0.6623,0.6682,0.6578,0.6007,0.6068,0.6117,0.6148,0.6112,0.5797,0.5288,0.514,0.478,0.4324,0.4356,0.4031,0.3481,0.3401,0.6278,1.0196,0.0,0.0,0.0,0.0,0.0,0.0,0.0,0.0,0.0,0.0,0.0,-0.9879,0.0,0.0,0.0,0.0,0.0,0.0,0.0,0.0,0.0,-0.9142,-0.9232,-0.9281,-0.9281,-0.9363,-0.9265,-0.8892,-0.8757,-0.8332,-0.7524,-0.7494,-0.7308,-0.685,-0.6371,-0.5812,-0.5138,-0.4474,-0.4353,-0.4643,-0.4399,-0.4646,-0.5189,-0.5126,-0.5231,-0.5462,-0.5514,-0.5615,-0.5657,-0.4608,-0.4263,-0.4095,-0.2999,0.0,0.0,0.0,0.0,0.0,0.0,0.0,0.0,0.0,0.0,0.0,0.0,0.0,0.0,0.0,0.0,0.7199,0.7243,0.6706,0.6162,0.5573,0.5505,0.53,0.4698,0.5505,0.6078,0.589,0.6431,0.6733,0.6643,0.6632,0.6597,0.6518,0.6504,0.6515,0.6551,0.6493,0.6474,0.6502,0.6474,0.6474,0.6502,0.6228,0.6301,0.6728,0.6405,0.6093,0.589,0.5598,0.5512,0.5532,0.5219,0.4912,0.4713,0.427,0.4042,0.371,0.3811,0.3599,0.3392,0.3388,0.6251,1.0196,0.0,0.0,0.0,0.0,0.0,0.0,0.0,0.0,0.0,0.0,0.0,0.0,0.0,0.0,0.0,0.0,0.0,0.0,0.0,0.0,0.0,0.0,-0.9207,-0.9244,-0.9244,-0.9209,-0.8919,-0.8469,-0.8377,-0.7769,-0.6862,-0.6862,-0.6767,-0.6473,-0.5929,-0.5359,-0.4655,-0.4259,-0.4299,-0.4573,-0.4771,-0.5213,-0.5599,-0.5719,-0.5763,-0.5839,-0.5717,-0.5475,-0.4835,0.0,0.0,0.0,0.0,0.0,0.0,0.0,0.0,0.0,0.0,0.0,0.0,0.0,0.0,0.0,0.0,0.0,0.0,0.0,0.0,0.7088,0.753,0.6639,0.5818,0.5634,0.5792,0.5692,0.5151,0.5981,0.6457,0.6031,0.6392,0.6714,0.6624,0.6602,0.6578,0.6531,0.6502,0.6499,0.6529,0.6485,0.6469,0.6482,0.6469,0.6469,0.6485,0.6529,0.6597,0.6681,0.6031,0.6031,0.6473,0.5352,0.5041,0.545,0.4665,0.4261,0.4048,0.3624,0.3407,0.3399,0.3384,0.3386,0.3399,0.3384,0.6241,1.0196,0.0,0.0,0.0,0.0,0.0,0.0,0.0,0.0,0.0,0.0,0.0,0.0,-0.9109,-0.8983,-0.8918,-0.8995,0.0,0.0,0.0,0.0,0.0,0.0,0.0,0.0,-0.915,-0.8675,-0.8481,-0.8383,-0.7911,-0.7436,-0.6862,-0.6862,-0.6386,-0.5335,-0.5318,-0.4663,-0.3673,-0.4032,-0.395,-0.3548,-0.4484,-0.499,-0.5056,-0.5602,-0.5861,-0.5902,-0.5779,-0.4611,0.0,0.0,0.0,0.0,0.0,0.0,0.0,0.0,0.0,0.0,0.0,0.0,0.0,0.0,0.0,0.0,0.0,0.0,0.0,0.0,0.0,0.0,0.7401,0.655,0.5682,0.5256,0.5575,0.5874,0.5814,0.59,0.614,0.6548,0.6741,0.6747,0.6572,0.6654,0.6649,0.648,0.6515,0.6523,0.6469,0.6463,0.6488,0.6545,0.6491,0.6491,0.6545,0.6551,0.6556,0.6459,0.5994,0.6608,0.7882,0.5423,0.5023,0.633,0.4969,0.3944,0.3412,0.3412,0.3395,0.3371,0.3399,0.3393,0.3371,0.3399,0.6276,1.0196,0.0,0.0,0.0,0.0,0.0,0.0,0.0,0.0,0.0,0.0,0.0,0.0,0.0,-0.7892,-0.7534,-0.7772,-0.8129,0.0,0.0,0.0,0.0,0.0,0.0,0.0,0.0,-0.7855,-0.7265,-0.6886,-0.6374,-0.5797,-0.5333,-0.5333,-0.5146,-0.4772,-0.4735,-0.4501,-0.4071,-0.4136,-0.4222,-0.4342,-0.5097,-0.5358,-0.5439,-0.5582,-0.5793,-0.5954,-0.5755,0.0,0.0,0.0,0.0,0.0,0.0,0.0,0.0,0.0,0.0,0.0,0.0,0.0,0.0,0.0,0.0,0.0,0.0,0.0,0.0,0.0,0.0,0.0,0.682,0.633,0.5713,0.5542,0.5406,0.5428,0.5726,0.5831,0.61,0.6542,0.6643,0.6638,0.6608,0.6575,0.6529,0.6466,0.6482,0.6485,0.6463,0.6461,0.6491,0.6551,0.6493,0.6472,0.6493,0.6493,0.6328,0.6092,0.5426,0.6037,0.7523,0.4882,0.4665,0.6373,0.4506,0.3594,0.3382,0.3806,0.3693,0.3367,0.3378,0.3375,0.3578,0.506,0.7483,1.0324,0.0,0.0,0.0,0.0,0.0,0.0,0.0,0.0,0.0,-0.8354,0.0,0.0,0.0,0.0,-0.7303,-0.761,-0.7873,-0.8293,-0.8786,0.0,0.0,0.0,0.0,0.0,0.0,-0.7265,-0.6571,-0.6102,-0.5484,-0.4997,-0.4537,-0.4612,-0.4604,-0.4512,-0.4589,-0.4555,0.0,0.0,0.0,-0.4857,0.0,0.0,-0.559,0.0,0.0,0.0,0.0,0.0,0.0,0.0,0.0,0.0,0.0,0.0,0.0,0.0,0.0,0.0,0.0,0.0,0.0,0.0,0.0,0.0,0.0,0.0,0.0,0.0,0.0,0.0,0.0,0.0,0.5561,0.5714,0.5482,0.5404,0.59,0.5905,0.6066,0.6486,0.6288,0.6087,0.627,0.6218,0.628,0.6259,0.636,0.0,0.6259,0.636,0.6379,0.6215,0.6215,0.6299,0.6259,0.6397,0.6244,0.5783,0.5932,0.6851,0.8342,0.5691,0.5567,0.7461,0.4972,0.366,0.3471,0.3985,0.389,0.3381,0.3581,0.3578,0.3683,0.6003,0.8199,1.0491,0.0,0.0,0.0,0.0,0.0,0.0,0.0,0.0,-0.7197,-0.7265,0.0,0.0,0.0,0.0,0.0,-0.8596,-0.8224,-0.7999,-0.8211,-0.7656,0.0,0.0,0.0,0.0,0.0,-0.698,-0.6477,-0.6099,-0.5479,-0.49,-0.444,-0.4848,-0.4826,-0.4369,-0.4774,-0.4724,-0.4322,0.0,-0.4808,-0.4729,0.0,-0.567,-0.5414,0.0,0.0,0.0,-0.062,0.1365,0.0,0.3237,0.0,0.0,0.0,0.0,0.0,0.0,0.0,0.0,0.0,0.0,0.0,0.0,0.0,0.0,0.0,0.0,0.0,0.0,0.0,0.0,0.0,0.0,0.0,0.5694,0.5809,0.5896,0.6456,0.6132,0.6036,0.6488,0.5687,0.5302,0.5668,0.5699,0.5707,0.5757,0.6158,0.6259,0.5753,0.6158,0.6262,0.5753,0.5754,0.5759,0.5654,0.6267,0.6296,0.5835,0.7529,0.9167,1.0507,0.7831,0.7825,0.9486,0.6234,0.4342,0.3467,0.3958,0.3879,0.3513,0.4011,0.3998,0.3789,0.615,0.8345,1.0491,0.0,0.0,0.0,0.0,0.0,0.0,0.0,0.0,-0.6284,0.0,0.0,0.0,-0.6889,-0.6878,-0.6892,-0.7185,-0.7054,-0.7153,-0.7586,-0.7476,-0.7408,0.0,0.0,0.0,-0.7049,-0.5813,-0.5111,-0.4925,-0.4018,-0.3441,-0.3351,-0.3761,-0.383,0.0,-0.4195,-0.45,-0.4661,-0.4771,0.0,-0.4867,-0.5486,-0.5719,0.0,0.0,0.0,0.0,0.0,0.1493,0.3012,0.0,0.4365,0.5807,0.0,0.0,0.0,0.0,0.0,0.0,0.5741,0.0,0.0,0.0,0.0,0.0,0.0,0.0,0.0,0.0,0.0,0.0,0.0,0.0,0.0,0.0,0.535,0.4862,0.5842,0.5859,0.5979,0.6486,0.6249,0.6124,0.6221,0.589,0.5871,0.0,0.6057,0.6055,0.6259,0.6096,0.5895,0.5753,0.5719,0.574,0.5709,0.6252,0.6894,0.7535,0.8014,0.9616,1.213,0.829,0.775,0.95,0.5503,0.3799,0.3919,0.4421,0.4346,0.408,0.5557,0.5983,0.6303,1.026,1.213,1.2891,0.0,0.0,0.0,0.0,0.0,0.0,0.0,0.0,-0.5711,0.0,0.0,0.0,-0.6754,-0.6602,-0.6517,-0.6809,-0.6614,-0.6602,-0.6928,-0.6716,-0.6575,-0.6439,0.0,0.0,0.0,-0.4923,-0.4324,-0.414,-0.3529,-0.3053,-0.2872,-0.3447,-0.3771,-0.3768,0.0,0.0,0.0,0.0,0.0,0.0,-0.5534,0.0,0.0,-0.2403,-0.1121,0.0,0.0,0.0,0.4372,0.446,0.5139,0.0,0.0,0.0,0.0,0.0,0.0,0.0,0.0,0.0,0.0,0.0,0.0,0.0,0.6027,0.5782,0.5606,0.0,0.0,0.0,0.0,0.0,0.0,0.0,0.0,0.0,0.5903,0.5818,0.5947,0.6494,0.5947,0.5628,0.5864,0.5614,0.5381,0.5482,0.5868,0.6158,0.6461,0.5784,0.5482,0.5652,0.5704,0.5721,0.5697,0.6278,0.7129,0.8136,0.9182,1.079,1.2834,0.9482,0.8528,0.946,0.5374,0.3869,0.4479,0.5515,0.5769,0.5632,0.6703,0.7552,0.8605,1.2265,1.3603,1.3834,0.0,0.0,0.0,0.0,0.0,0.0,0.0,0.0,0.0,0.0,-0.5317,-0.583,-0.6424,-0.6436,-0.6583,-0.6936,-0.6563,-0.6283,-0.6264,-0.579,-0.5485,0.0,0.0,0.0,0.0,0.0,-0.4102,-0.3739,-0.3699,-0.3411,-0.3052,-0.3868,-0.4173,-0.4249,0.0,0.0,0.0,0.0,0.0,-0.5076,-0.5123,-0.3935,0.0,0.0,0.1508,0.3461,0.548,0.6227,0.6268,0.639,0.6262,0.0,0.0,0.0,0.0,0.0,0.5749,0.0,0.0,0.0,0.0,0.0,0.0,0.0,0.5092,0.4761,0.453,0.4596,0.0,0.0,0.0,0.0,0.0,0.0,0.0,0.0,0.0,0.6109,0.5937,0.6456,0.5267,0.4564,0.5075,0.5038,0.4806,0.4396,0.568,0.6461,0.6461,0.5452,0.515,0.5652,0.5697,0.5702,0.5661,0.6317,0.7274,0.8476,1.0579,1.2009,1.2818,1.0784,0.9629,0.9155,0.5446,0.424,0.4851,0.6617,0.7532,0.7755,0.8075,0.9124,1.0813,1.3116,1.3929,1.4169,0.0,0.0,0.0,0.0,0.0,0.0,0.0,0.0,0.0,-0.4236,-0.5319,-0.6156,-0.6289,-0.6326,-0.6238,-0.5923,-0.5827,-0.5739,-0.5777,-0.5659,0.0,0.0,0.0,0.0,0.0,0.0,-0.4016,-0.4302,-0.3796,-0.3773,-0.4042,-0.4507,-0.4707,-0.4648,0.0,0.0,0.0,0.0,0.0,-0.2933,-0.1735,0.0,-0.0268,0.169,0.2694,0.3501,0.559,0.6335,0.6298,0.6243,0.6255,0.6188,0.0,0.0,0.0,0.5798,0.0,0.0,0.0,0.0,0.0,0.0,0.0,0.0,0.4472,0.4412,0.4266,0.0,0.0,0.0,0.0,0.0,0.0,0.0,0.0,0.0,0.0,0.0,0.6362,0.651,0.6319,0.6102,0.6162,0.584,0.5714,0.5977,0.6368,0.6461,0.6461,0.5853,0.5551,0.5652,0.5661,0.5683,0.5716,0.5847,0.7489,1.0719,1.075,1.1517,1.2795,1.069,0.8769,0.695,0.4438,0.3635,0.4244,0.6007,0.7299,0.8414,1.1281,1.2619,1.3227,1.5481,1.6321,1.6407,0.0,0.0,0.0,0.0,0.0,0.0,0.0,0.0,-0.4197,-0.4435,-0.527,-0.5862,-0.5903,-0.5926,-0.583,-0.5607,-0.5549,-0.5537,-0.5501,-0.5482,0.0,0.0,0.0,0.0,0.0,0.0,0.0,-0.3992,-0.3675,-0.3752,-0.4218,-0.4647,-0.4792,-0.4825,-0.52,0.0,0.0,0.0,-0.0761,0.0085,-0.0087,0.0,0.1736,0.2655,0.3765,0.4864,0.5995,0.6338,0.6271,0.6271,0.6172,0.0,0.0,0.6036,0.5987,0.0,0.5691,0.5526,0.0,0.0,0.0,0.4702,0.0,0.0,0.0,0.3964,0.3894,0.0,0.0,0.0,0.0,0.0,0.0,0.0,0.0,0.0,0.0,0.0,0.0,0.6673,0.6369,0.6267,0.6269,0.593,0.5984,0.6512,0.6301,0.6189,0.6463,0.6259,0.6057,0.6057,0.6057,0.607,0.6098,0.6939,0.8666,1.1354,1.0789,1.1363,1.2757,0.9556,0.7449,0.6246,0.4136,0.4137,0.5755,0.7566,0.9475,1.1381,1.2828,1.4209,1.5382,1.6558,1.6978,1.6971,0.0,0.0,0.0,0.0,0.0,0.0,0.0,0.0,0.0,-0.4886,-0.5249,-0.5534,-0.5556,-0.5581,-0.5575,-0.5531,-0.5526,-0.5485,-0.5474,0.0,0.0,0.0,0.0,-0.4493,0.0,0.0,0.0,0.0,-0.3712,-0.3966,-0.4429,-0.4748,-0.493,-0.5049,0.0,0.0,0.0,0.0,0.0,0.2643,0.0,0.2139,0.3657,0.3584,0.4662,0.6177,0.6221,0.6273,0.6273,0.6234,0.6136,0.6041,0.6101,0.6052,0.0,0.0,0.0,0.0,0.0,0.0,0.0,0.0,0.0,0.3416,0.0,0.0,0.0,0.0,0.0,0.0,0.0,0.0,0.0,0.0,0.0,0.0,0.0,0.0,0.0,0.0,0.6292,0.612,0.6135,0.6085,0.6125,0.6456,0.6121,0.5992,0.6463,0.6461,0.6461,0.6461,0.6461,0.6461,0.636,0.8025,0.9641,1.1173,1.0643,1.1042,1.2158,0.8152,0.6447,0.6447,0.464,0.5343,0.8069,0.9934,1.1964,1.3962,1.4002,1.5284,1.6978,1.6978,1.6965,1.6917,-0.3046,-0.2849,0.0,0.0,0.0,0.0,0.0,0.0,0.0,-0.5237,-0.5521,-0.5597,-0.5564,0.0,0.0,0.0,0.0,0.0,-0.5566,0.0,0.0,0.0,0.0,0.0,-0.4744,0.0,0.0,0.0,-0.4689,-0.4886,-0.5425,-0.5403,-0.5406,0.0,-0.3559,0.0,0.0,0.0,0.2822,0.0,0.4509,0.516,0.0,0.54,0.5628,0.5967,0.6257,0.6251,0.6254,0.0,0.6141,0.6063,0.0,0.6003,0.6106,0.5839,0.0,0.0,0.0,0.0,0.0,0.0,0.3324,0.0,0.0,0.0,0.2886,0.2803,0.0,0.0,0.0,0.0,0.0,0.0,0.0,0.0,0.0,0.0,0.0,0.0,0.6542,0.6644,0.6494,0.6424,0.6408,0.6446,0.6352,0.6412,0.6458,0.6461,0.6461,0.6461,0.6461,0.6259,0.5753,0.7364,0.897,1.0563,1.007,0.987,0.9957,0.755,0.6648,0.7047,0.6346,0.7546,1.0158,1.1989,1.3027,1.3557,1.5787,1.6755,1.6978,1.6978,1.6897,1.6775,-0.3266,-0.2984,0.0,0.0,0.0,0.0,0.0,0.0,0.0,-0.5387,-0.5442,-0.5512,0.0,0.0,0.0,0.0,0.0,-0.5602,0.0,0.0,0.0,0.0,0.0,0.0,0.0,0.0,0.0,0.0,-0.4648,0.0,-0.5048,-0.4231,0.0,0.0,-0.1681,0.0,0.0622,0.0,0.3668,0.0,0.0,0.0,0.0,0.5763,0.5907,0.5987,0.6071,0.6112,0.6112,0.0,0.5976,0.0,0.0,0.0,0.0,0.0,0.0,0.0,0.0,0.0,0.0,0.0,0.0,0.0,0.2937,0.0,0.281,0.0,0.0,0.0,0.0,0.0,0.0,0.0,0.4841,0.0,0.0,0.0,0.0,0.0,0.0,0.0,0.6602,0.664,0.6649,0.6602,0.6553,0.6507,0.6463,0.6461,0.6461,0.6461,0.6461,0.6259,0.5753,0.8561,1.0162,1.0458,0.9961,0.9661,0.9661,0.775,0.6846,0.6846,0.8149,1.0049,1.2363,1.2892,1.4136,1.5718,1.6554,1.6904,1.6978,1.6978,1.6883,1.6734,-0.3594,0.0,0.0,0.0,0.0,0.0,0.0,0.0,0.0,0.0,0.0,0.0,-0.5459,-0.5547,0.0,0.0,-0.5689,-0.5706,0.0,0.0,-0.5586,0.0,0.0,0.0,0.0,0.0,0.0,0.0,0.0,0.0,0.0,0.0,0.0,0.0,0.0,0.1807,0.2932,0.0,0.4631,0.5752,0.576,0.5709,0.5646,0.5858,0.5959,0.5989,0.5989,0.5989,0.5987,0.597,0.5905,0.0,0.561,0.0,0.0,0.0,0.0,0.0,0.4109,0.0,0.0,0.0,0.0,0.0,0.0,0.0,0.0,0.0,0.0,0.0,0.0,0.0,0.0,0.0,0.0,0.5456,0.0,0.0,0.0,0.0,0.0,0.0,0.0,0.6632,0.666,0.657,0.6564,0.654,0.6491,0.6472,0.6469,0.6485,0.6469,0.615,0.5429,0.9356,1.0654,0.942,0.9548,0.936,0.8754,0.7631,0.723,0.7647,1.0119,1.2521,1.457,1.4107,1.5157,1.7056,1.6797,1.6842,1.6978,1.6931,1.6795,1.6612,-0.3809,-0.3581,0.0,0.0,0.0,0.0,0.0,0.0,0.0,0.0,0.0,0.0,0.0,0.0,0.0,0.0,0.0,-0.6033,-0.5921,0.0,-0.5788,0.0,0.0,-0.4511,0.0,0.0,0.0,0.0,0.0,0.0,0.0,0.0,0.0,0.0,0.0,0.3047,0.3143,0.5043,0.5858,0.5992,0.5875,0.5897,0.5978,0.0,0.5823,0.5927,0.5927,0.0,0.0,0.5858,0.5834,0.5834,0.0,0.0,0.0,0.0,0.0,0.0,0.0,0.0,0.0,0.4075,0.0,0.0,0.0,0.0,0.2829,0.0,0.0,0.0,0.0,0.0,0.0,0.0,0.0,0.0,0.0,0.0,0.0,0.0,0.0,0.0,0.0,0.6349,0.6384,0.6379,0.6379,0.6428,0.6542,0.6493,0.6488,0.6548,0.6493,0.5932,0.4881,0.9124,0.972,0.6558,0.8717,0.8554,0.6545,0.6882,0.8176,1.034,1.243,1.4632,1.6779,1.6346,1.6293,1.6537,1.6686,1.6842,1.6965,1.6809,1.6571,1.6327,0.0,0.0,0.0,0.0,0.0,0.0,0.0,-0.53,0.0,0.0,0.0,0.0,0.0,-0.5783,-0.5842,0.0,0.0,-0.5965,-0.5927,-0.5771,0.0,0.0,0.0,-0.3141,0.0,0.0,0.0,0.0,0.0,0.0,0.0,0.0,0.0,0.0,0.0,0.4866,0.0,0.0,0.0,0.0,0.0,0.5954,0.5951,0.0,0.5948,0.5978,0.5937,0.5736,0.0,0.5387,0.516,0.4853,0.4986,0.5146,0.5364,0.5207,0.5289,0.532,0.0,0.0,0.4999,0.4012,0.0,0.0,0.0,0.0,0.0,0.0,0.0,0.0,0.0,0.0,0.0,0.0,0.0,0.0,0.0,0.0,0.0,0.0,0.0,0.0,0.0,0.0,0.6458,0.6376,0.6444,0.6491,0.6493,0.6472,0.6472,0.6491,0.6169,0.5544,0.4825,0.8747,0.9344,0.6417,0.8643,0.8557,0.6447,0.8421,0.9524,1.0153,1.4012,1.6213,1.6878,1.6447,1.6598,1.7049,1.6797,1.672,1.668,1.6734,1.6625,1.6449,-0.2826,0.0,0.0,0.0,0.0,0.0,0.0,0.0,0.0,0.0,-0.5723,0.0,-0.5863,0.0,-0.5876,0.0,-0.5995,-0.5981,-0.5897,-0.5801,0.0,-0.5771,-0.3825,0.0,0.0,0.0,0.0,0.0,0.0,0.2143,0.0,0.0,0.0,0.0,0.0,0.5747,0.6014,0.0,0.6106,0.0,0.0,0.5995,0.0,0.0,0.5987,0.5943,0.0,0.5429,0.5158,0.5006,0.4711,0.4424,0.4744,0.4997,0.5215,0.5179,0.5442,0.5552,0.4999,0.5216,0.0,0.4375,0.4284,0.0,0.3441,0.0,0.0,0.0,0.0,0.0,0.0,0.0,0.0,0.0,0.0,0.0,0.0,0.5895,0.0,0.0,0.0,0.0,0.0,0.0,0.6177,0.6341,0.6412,0.6466,0.6493,0.6493,0.6493,0.6493,0.5984,0.5762,0.5924,0.8245,0.8342,0.6414,0.7841,0.7339,0.5418,0.8806,1.0102,0.9911,1.4688,1.6722,1.658,1.6385,1.655,1.6939,1.668,1.6632,1.6686,1.6673,1.6571,1.6469,0.0,0.0,0.0,0.0,-0.4672,0.0,0.0,0.0,-0.5571,0.0,-0.5683,-0.5772,-0.5945,-0.6053,-0.6058,-0.6041,-0.6027,-0.59,-0.5676,-0.5618,0.0,0.0,-0.3604,-0.1617,0.0545,0.0,0.0,0.0,0.0,0.0,0.0,0.0,0.0,0.0,0.5491,0.0,0.6006,0.5948,0.606,0.6264,0.6142,0.6022,0.5921,0.5989,0.5937,0.574,0.5288,0.5106,0.4924,0.4563,0.4318,0.4453,0.5059,0.5299,0.5349,0.5982,0.5807,0.5413,0.5368,0.4969,0.4668,0.5094,0.4821,0.0,0.0,0.0,0.3662,0.0,0.0,0.0,0.0,0.0,0.0,0.0,0.0,0.0,0.0,0.0,0.0,0.0,0.0,0.0,0.0,0.0,0.5574,0.6262,0.6275,0.636,0.0,0.6545,0.6548,0.6556,0.5937,0.6389,0.7956,0.7524,0.692,0.6357,0.6414,0.5315,0.3386,0.8038,0.9917,0.9827,1.4569,1.6342,1.6083,1.609,1.6259,1.6497,1.6381,1.6592,1.6924,1.6639,1.6449,1.6395,-0.2997,-0.3589,-0.4128,0.0,-0.4968,-0.5226,0.0,0.0,0.0,0.0,-0.6021,-0.6119,-0.6212,-0.6297,-0.6254,-0.6153,-0.4721,0.0,0.0,0.0,0.0,-0.1582,0.0447,0.1853,0.2607,0.4058,0.0,0.6059,0.0,0.0,0.5183,0.0,0.0,0.0,0.0,0.0,0.5946,0.5929,0.6036,0.6202,0.6082,0.5935,0.5804,0.0,0.566,0.5288,0.5238,0.47,0.4061,0.4,0.3718,0.3527,0.444,0.4757,0.4878,0.5546,0.5868,0.5979,0.5653,0.5742,0.5786,0.5498,0.5327,0.5061,0.4583,0.0,0.0,0.0,0.0,0.0,0.0,0.0,0.0,0.0,0.0,0.0,0.0,0.0,0.0,0.0,0.0,0.0,0.0,0.5795,0.6065,0.6145,0.6229,0.636,0.6542,0.0,0.6477,0.6611,0.5647,0.6019,0.8012,0.7068,0.6517,0.6357,0.6373,0.5282,0.3386,0.7745,0.9757,0.9924,1.4322,1.6148,1.609,1.6205,1.6293,1.6381,1.6564,1.6639,1.6646,1.668,1.6666,1.6653,-0.2953,0.0,0.0,-0.4855,0.0,0.0,-0.5283,-0.5425,0.0,-0.5815,-0.5955,0.0,-0.6213,-0.5471,-0.4883,-0.4836,-0.2897,0.0,-0.1589,0.0,0.0,0.0,0.1984,0.3045,0.3158,0.4698,0.0,0.5704,0.0,0.0,0.5074,0.0,0.0,0.0,0.0,0.5507,0.0,0.5888,0.5965,0.603,0.5989,0.5913,0.0,0.5683,0.5316,0.4801,0.4623,0.4165,0.3703,0.343,0.3336,0.3434,0.4336,0.4749,0.5067,0.5631,0.5868,0.5907,0.5694,0.5714,0.5694,0.5634,0.5578,0.5406,0.499,0.4986,0.5008,0.0,0.5089,0.5112,0.0,0.0,0.0,0.0,0.0,0.0,0.0,0.0,0.0,0.0,0.0,0.0,0.0,0.561,0.5875,0.6104,0.6161,0.6245,0.0,0.0,0.6344,0.6109,0.5561,0.6082,0.776,0.6176,0.5719,0.6357,0.5443,0.4844,0.4745,0.8025,1.0145,1.1192,1.4645,1.6083,1.609,1.6178,1.6252,1.6334,1.6564,1.6558,1.6456,1.6673,1.6707,1.67,0.0,0.0,0.0,0.0,0.0,0.0,0.0,-0.5382,0.0,-0.5741,0.0,-0.5763,-0.5661,-0.4149,-0.3022,-0.2706,0.0,0.038,0.0642,0.0751,0.0843,0.0901,0.2472,0.3218,0.318,0.4765,0.0,0.0,0.0,0.0,0.0,0.0,0.0,0.0,0.0,0.0,0.0,0.5839,0.5888,0.5858,0.5886,0.5905,0.5823,0.5409,0.4963,0.44,0.3993,0.3795,0.3605,0.3114,0.3306,0.3895,0.4406,0.4828,0.5447,0.5987,0.5851,0.5609,0.5568,0.5318,0.515,0.5652,0.5716,0.5658,0.5558,0.5505,0.5584,0.5527,0.533,0.5316,0.5689,0.0,0.0,0.0,0.0,0.0,0.0,0.0,0.0,0.0,0.0,0.0,0.0,0.0,0.5655,0.6079,0.6074,0.0,0.0,0.0,0.6222,0.5614,0.5992,0.6561,0.7278,0.5383,0.5126,0.6354,0.4145,0.4224,0.6463,0.8595,1.0806,1.2886,1.5129,1.6103,1.6083,1.6103,1.6191,1.632,1.6422,1.6415,1.6374,1.6673,1.668,1.6646,0.0,0.0,0.0,0.0,0.0,-0.53,-0.5499,-0.573,-0.5902,-0.5959,-0.6106,-0.5532,-0.389,-0.3395,-0.2419,-0.0772,0.1352,0.0,0.0,0.0,0.0,0.4882,0.517,0.532,0.5219,0.5451,0.5472,0.0,0.0,0.0,0.0,0.0,0.0,0.0,0.0,0.0,0.573,0.5812,0.0,0.597,0.5828,0.5804,0.5848,0.5767,0.5158,0.4362,0.4354,0.4073,0.3608,0.314,0.3603,0.4273,0.4538,0.495,0.5358,0.5554,0.5881,0.6106,0.5811,0.5949,0.6259,0.636,0.6352,0.6225,0.5658,0.5971,0.6188,0.5653,0.5523,0.5717,0.6175,0.0,0.0,0.0,0.0,0.0,0.0,0.0,0.0,0.0,0.0,0.0,0.0,0.0,0.0,0.0,0.0,0.0,0.0,0.0,0.6169,0.0,0.7173,0.7802,0.0,0.6578,0.6267,0.6357,0.4174,0.435,0.6463,0.8595,1.0707,1.2798,1.5238,1.6198,1.609,1.6218,1.6286,1.63,1.6198,1.6293,1.6524,1.6829,1.6842,1.6748,0.0,0.0,0.0,0.0,0.0,0.0,0.0,-0.5905,-0.5646,-0.4444,-0.4398,-0.3681,-0.1604,-0.0476,0.0479,0.1437,0.3451,0.4689,0.4571,0.5525,0.6046,0.5927,0.5894,0.0,0.5744,0.5684,0.5521,0.5245,0.0,0.0,0.4845,0.0,0.0,0.0,0.0,0.5477,0.0,0.0,0.0,0.5864,0.5777,0.5815,0.5829,0.5248,0.4808,0.4384,0.4198,0.3918,0.3638,0.3452,0.4104,0.4863,0.4934,0.5337,0.564,0.5532,0.5475,0.5513,0.559,0.5633,0.5755,0.636,0.6461,0.6452,0.6122,0.6338,0.6444,0.6083,0.5971,0.5963,0.5932,0.6077,0.6048,0.0,0.0,0.0,0.0,0.0,0.0,0.0,0.0,0.0,0.0,0.0,0.0,0.0,0.0,0.592,0.5833,0.0,0.5525,0.0,0.0,0.0,0.5358,0.0,0.518,0.4706,0.4885,0.6047,0.8183,1.0343,1.2478,1.449,1.5703,1.6266,1.6205,1.6279,1.6307,1.63,1.6232,1.6334,1.6558,1.687,1.6931,1.691,0.0,-0.4779,0.0,0.0,-0.5379,0.0,-0.5801,-0.5608,-0.4815,-0.3042,-0.2849,-0.1929,0.0643,0.2158,0.3141,0.3616,0.5142,0.6098,0.6098,0.6046,0.5987,0.5927,0.5864,0.5798,0.5722,0.5722,0.5559,0.0,0.0,0.0,0.4815,0.0,0.0,0.0,0.0,0.0,0.0,0.0,0.5755,0.5779,0.5766,0.577,0.5724,0.4925,0.4564,0.4414,0.404,0.3952,0.3865,0.3959,0.4518,0.527,0.5323,0.5622,0.6017,0.5705,0.5366,0.5116,0.5672,0.552,0.5352,0.6158,0.6461,0.6461,0.6158,0.636,0.6447,0.6298,0.639,0.6263,0.5783,0.5958,0.6175,0.0,0.0,0.0,0.0,0.0,0.0,0.0,0.0,0.0,0.0,0.0,0.0,0.0,0.0,0.56,0.5335,0.538,0.4985,0.4123,0.5147,0.5007,0.3556,0.0,0.4398,0.3957,0.5723,0.799,1.0478,1.2232,1.4183,1.6137,1.6259,1.6347,1.6395,1.6334,1.6327,1.6354,1.632,1.6415,1.6605,1.691,1.7005,1.7039,0.0,0.0,0.0,0.0,0.0,0.0,-0.582,-0.439,-0.3328,-0.3033,-0.3032,-0.1515,0.2369,0.2945,0.3711,0.562,0.6003,0.6098,0.6098,0.6046,0.5987,0.5927,0.5864,0.5777,0.5662,0.566,0.5537,0.0,0.0,0.5082,0.0,0.0,0.0,0.0,0.0,0.0,0.5709,0.573,0.5804,0.5902,0.5845,0.5623,0.5254,0.5201,0.4841,0.4508,0.4414,0.444,0.4474,0.4569,0.4826,0.5174,0.5323,0.5622,0.612,0.6237,0.6177,0.6207,0.632,0.6357,0.6259,0.5853,0.6158,0.6259,0.515,0.5755,0.636,0.5848,0.615,0.6401,0.6132,0.6327,0.6422,0.0,0.0,0.0,0.0,0.0,0.0,0.0,0.0,0.0,0.0,0.6161,0.0,0.0,0.5514,0.5227,0.5335,0.5344,0.5128,0.4682,0.674,0.6603,0.4002,0.5572,0.6412,0.6404,0.6551,0.8854,1.2908,1.2906,1.4131,1.6286,1.63,1.6463,1.6686,1.6422,1.6388,1.649,1.6361,1.6483,1.6761,1.7066,1.7093,1.7026,0.0,0.0,0.0,0.0,0.0,0.0,0.0,-0.3496,-0.2193,0.0384,0.0573,0.1716,0.4608,0.4874,0.5237,0.6003,0.6098,0.6098,0.6098,0.6011,0.5948,0.5924,0.5828,0.5755,0.5706,0.567,0.5551,0.0,0.0,0.0,0.0,0.0,0.5074,0.5395,0.5621,0.5709,0.5692,0.5804,0.5878,0.5829,0.5526,0.5379,0.5164,0.4861,0.4491,0.4042,0.4444,0.4181,0.3817,0.48,0.516,0.5311,0.5332,0.5456,0.569,0.5768,0.5617,0.546,0.5934,0.6055,0.5954,0.5753,0.6057,0.6259,0.5551,0.5957,0.6461,0.6259,0.636,0.6439,0.6365,0.6352,0.6379,0.6466,0.0,0.0,0.0,0.0,0.0,0.0,0.0,0.0,0.0,0.0,0.0,0.0,0.0,0.5577,0.5337,0.511,0.4891,0.4678,0.0,0.4802,0.4025,0.4453,0.539,0.6733,0.8087,1.0338,1.336,1.4614,1.5641,1.6429,1.6252,1.6293,1.6469,1.6259,1.6259,1.6395,1.6429,1.6564,1.6795,1.7188,1.7182,1.7026,-0.5387,0.0,-0.5512,0.0,-0.531,-0.4533,-0.3317,-0.2003,-0.0192,0.2713,0.3559,0.4506,0.599,0.615,0.6117,0.6098,0.6098,0.609,0.6074,0.5978,0.5916,0.5897,0.5796,0.0,0.5714,0.5673,0.5572,0.5412,0.5245,0.0,0.0,0.5057,0.5226,0.5474,0.5741,0.5812,0.5739,0.5888,0.5948,0.5856,0.5389,0.5141,0.4999,0.4434,0.4057,0.3779,0.4185,0.391,0.3438,0.4628,0.5007,0.5174,0.5284,0.5413,0.5451,0.5504,0.525,0.5186,0.5738,0.5954,0.5851,0.5733,0.6032,0.6333,0.5829,0.6132,0.6439,0.6458,0.6461,0.6461,0.6461,0.639,0.6376,0.6504,0.0,0.0,0.0,0.0,0.0,0.0,0.6219,0.6343,0.6343,0.0,0.0,0.0,0.0,0.0,0.4907,0.4578,0.4429,0.0,0.0,0.0,0.3999,0.3515,0.4775,0.7692,0.9299,1.1588,1.4317,1.597,1.6646,1.6449,1.6286,1.6273,1.6361,1.6164,1.6225,1.6442,1.6503,1.6646,1.6863,1.7222,1.7195,1.7019,-0.5665,-0.5736,-0.5809,-0.6052,-0.4412,-0.3078,-0.305,0.0384,0.3101,0.3229,0.4959,0.6188,0.6188,0.6188,0.6164,0.6104,0.6098,0.6074,0.6019,0.5957,0.5897,0.0,0.0,0.5714,0.574,0.574,0.5591,0.5474,0.0,0.0,0.5292,0.5412,0.5531,0.5742,0.5839,0.5921,0.5924,0.5987,0.6011,0.5917,0.5446,0.5006,0.4575,0.4006,0.3815,0.3815,0.3817,0.3817,0.3822,0.3856,0.4256,0.4845,0.5285,0.5497,0.5506,0.5556,0.5571,0.5685,0.6344,0.6461,0.6346,0.5787,0.5973,0.6271,0.5772,0.5973,0.639,0.645,0.6461,0.6461,0.6461,0.6461,0.6461,0.6463,0.0,0.0,0.0,0.0,0.0,0.0,0.6284,0.6281,0.6281,0.5791,0.0,0.0,0.0,0.0,0.0,0.0,0.3926,0.3926,0.3864,0.3884,0.3884,0.3481,0.562,1.0057,1.0057,1.2355,1.6644,1.6644,1.6592,1.632,1.6456,1.6517,1.6497,1.6205,1.6341,1.6727,1.6578,1.6707,1.6992,1.7141,1.7107,1.7005,-0.5897,-0.5927,-0.5962,-0.6076,-0.4391,-0.2578,-0.1237,0.1336,0.3559,0.5089,0.5871,0.6267,0.6308,0.6237,0.6164,0.0,0.6098,0.6074,0.0,0.5957,0.5897,0.5834,0.5774,0.573,0.5711,0.563,0.557,0.5531,0.0,0.5273,0.5357,0.5439,0.5559,0.5717,0.5818,0.5837,0.5804,0.5907,0.5951,0.5866,0.5096,0.4753,0.4575,0.4006,0.3624,0.3338,0.372,0.3624,0.3346,0.3789,0.4299,0.4802,0.4979,0.5279,0.5651,0.6065,0.5926,0.5787,0.6314,0.6523,0.6405,0.5841,0.6001,0.6271,0.5772,0.6001,0.6439,0.6458,0.6461,0.6461,0.6461,0.6461,0.6461,0.6461,0.6461,0.0,0.6461,0.0,0.0,0.0,0.6403,0.6403,0.6403,0.6304,0.0,0.0,0.0,0.0,0.0,0.0,0.0,0.4418,0.3788,0.3618,0.3921,0.5027,0.7155,1.007,1.1588,1.3875,1.6592,1.6497,1.6395,1.63,1.6137,1.6123,1.6212,1.6123,1.6286,1.6598,1.6653,1.6802,1.6998,1.7141,1.71,1.7005,-0.6033,-0.6046,-0.5779,-0.5067,-0.3263,-0.1155,0.0866,0.2887,0.4744,0.6202,0.6273,0.6278,0.6363,0.6284,0.6199,0.6136,0.6112,0.6063,0.5984,0.5943,0.5886,0.5801,0.576,0.5752,0.5774,0.5679,0.5627,0.5627,0.5431,0.5387,0.5485,0.5548,0.5646,0.5777,0.5839,0.5845,0.5815,0.5891,0.5842,0.559,0.4811,0.4466,0.4291,0.372,0.3338,0.3148,0.3434,0.3338,0.3158,0.3705,0.4318,0.4825,0.5019,0.553,0.6004,0.6104,0.5937,0.5777,0.6307,0.6485,0.6344,0.6029,0.6182,0.6242,0.5965,0.6217,0.6461,0.6461,0.6461,0.6461,0.6461,0.6461,0.6461,0.6461,0.6461,0.6461,0.6461,0.0,0.0,0.0,0.0,0.0,0.0,0.6293,0.5881,0.0,0.0,0.0,0.0,0.0,0.3987,0.4167,0.3511,0.3337,0.3754,0.4838,0.6948,1.0182,1.3107,1.5287,1.6598,1.6402,1.6341,1.6381,1.6185,1.613,1.6171,1.6225,1.6354,1.6537,1.6686,1.6842,1.6992,1.708,1.706,1.6992,-0.6087,-0.6006,-0.5258,-0.3373,-0.107,0.1077,0.2934,0.4993,0.6294,0.6357,0.6264,0.624,0.6363,0.6322,0.6262,0.6202,0.6139,0.6055,0.5943,0.5935,0.5883,0.5766,0.576,0.5782,0.5831,0.5771,0.5739,0.5736,0.5621,0.5602,0.567,0.5722,0.5782,0.5848,0.5894,0.5916,0.5916,0.5921,0.5582,0.5162,0.4698,0.4255,0.372,0.3243,0.3148,0.3052,0.3055,0.3055,0.316,0.3709,0.4322,0.4928,0.552,0.6057,0.636,0.5848,0.5716,0.5794,0.6346,0.6382,0.6311,0.6363,0.6335,0.6305,0.636,0.642,0.6466,0.6463,0.6461,0.6461,0.6461,0.6461,0.6461,0.6461,0.6461,0.6461,0.6461,0.6461,0.0,0.0,0.0,0.6292,0.6292,0.5896,0.5344,0.0,0.0,0.0,0.0,0.0,0.3663,0.3228,0.323,0.3245,0.3276,0.3614,0.6034,1.057,1.4608,1.6578,1.6693,1.6422,1.6368,1.649,1.649,1.6429,1.6334,1.6469,1.653,1.6564,1.6707,1.6856,1.6978,1.6978,1.6978,1.6978,-0.6096,-0.4791,-0.3556,-0.3059,0.0,0.2632,0.2978,0.4825,0.6232,0.6292,0.6275,0.6305,0.6425,0.6384,0.6324,0.6264,0.6202,0.6136,0.606,0.6057,0.6025,0.5951,0.5948,0.5913,0.5834,0.5771,0.5717,0.5673,0.5643,0.5709,0.5858,0.5826,0.5867,0.5967,0.5888,0.5853,0.5856,0.5902,0.5652,0.5206,0.4721,0.4282,0.372,0.3243,0.3148,0.3055,0.3078,0.3086,0.3193,0.3746,0.4365,0.4873,0.553,0.6057,0.6452,0.6304,0.6246,0.6299,0.6469,0.6474,0.648,0.6447,0.6127,0.5906,0.6277,0.615,0.6007,0.6371,0.6461,0.6461,0.6461,0.6461,0.6461,0.6461,0.6461,0.6461,0.6461,0.6461,0.645,0.0,0.6417,0.6417,0.6417,0.6317,0.5994,0.0,0.0,0.4743,0.3754,0.3836,0.3663,0.3228,0.323,0.3245,0.3276,0.6803,1.0656,1.5019,1.5914,1.632,1.6239,1.6171,1.6151,1.6185,1.6185,1.6293,1.6476,1.651,1.6659,1.6876,1.691,1.6951,1.6978,1.6978,1.6978,1.6978,-0.6134,-0.4428,-0.2707,-0.1746,0.1077,0.3544,0.4502,0.558,0.6294,0.6354,0.6313,0.6324,0.6447,0.6406,0.6357,0.6324,0.6264,0.6194,0.6104,0.6123,0.6101,0.6016,0.6014,0.5984,0.5916,0.5828,0.5766,0.5733,0.576,0.5826,0.5921,0.5888,0.5937,0.6046,0.5927,0.5902,0.5951,0.5652,0.5287,0.4848,0.4338,0.399,0.3723,0.3259,0.3265,0.346,0.3204,0.3215,0.3515,0.4161,0.4678,0.5284,0.5839,0.6259,0.645,0.639,0.6417,0.6469,0.6463,0.6444,0.6425,0.642,0.6057,0.5777,0.6325,0.6078,0.5818,0.6373,0.6461,0.6461,0.6461,0.6461,0.6461,0.6461,0.6414,0.6398,0.6452,0.6414,0.6398,0.6455,0.6461,0.6461,0.6461,0.6461,0.6132,0.5275,0.5173,0.0,0.3679,0.3579,0.3496,0.323,0.323,0.3759,0.4836,0.9358,1.2834,1.5062,1.6032,1.6469,1.6381,1.6246,1.6218,1.6279,1.6212,1.6313,1.6524,1.6598,1.6727,1.6883,1.6951,1.6978,1.6978,1.6978,1.6978,1.6978,-0.5792,-0.397,-0.1851,0.0198,0.2386,0.4393,0.6127,0.6398,0.6387,0.6328,0.6352,0.6333,0.6436,0.6409,0.6376,0.636,0.6327,0.6259,0.6145,0.6188,0.6166,0.6057,0.6055,0.6041,0.6014,0.5902,0.585,0.5858,0.591,0.594,0.5948,0.5948,0.6003,0.6093,0.5984,0.5997,0.609,0.5421,0.4943,0.4424,0.3956,0.3696,0.3637,0.3281,0.3391,0.3689,0.3334,0.3541,0.4038,0.4674,0.5286,0.5692,0.6344,0.6461,0.645,0.6398,0.6384,0.6393,0.6436,0.6379,0.6322,0.6382,0.607,0.5823,0.6384,0.6106,0.5818,0.6373,0.6461,0.6461,0.6461,0.6461,0.6455,0.6436,0.6363,0.6338,0.6422,0.0,0.6346,0.645,0.6461,0.6461,0.6461,0.6461,0.6057,0.4847,0.515,0.4643,0.323,0.3532,0.3535,0.3236,0.3232,0.4475,0.7129,1.1426,1.3681,1.3887,1.5776,1.6714,1.6707,1.6456,1.6395,1.6483,1.6361,1.6388,1.653,1.6659,1.6741,1.6795,1.6931,1.6978,1.6978,1.6978,1.6978,1.6978,-0.3863,-0.186,0.0296,0.2359,0.4581,0.5914,0.5732,0.6047,0.6255,0.5725,0.6041,0.6363,0.6382,0.6422,0.6406,0.6303,0.6379,0.6403,0.6333,0.6338,0.6311,0.624,0.6237,0.6166,0.6016,0.5946,0.5935,0.5987,0.5995,0.6025,0.6071,0.6071,0.6079,0.6096,0.603,0.6036,0.6093,0.5461,0.4995,0.4565,0.3997,0.3542,0.3187,0.3096,0.3114,0.3238,0.3663,0.3874,0.4177,0.522,0.564,0.574,0.6357,0.6461,0.6461,0.645,0.6447,0.6439,0.6395,0.6409,0.6447,0.651,0.6129,0.583,0.6336,0.6134,0.5818,0.6373,0.6461,0.6461,0.6461,0.6461,0.6428,0.6324,0.6379,0.6403,0.6319,0.0,0.6442,0.6461,0.6461,0.6461,0.6461,0.6461,0.6057,0.4847,0.6556,0.6349,0.333,0.494,0.506,0.337,0.3243,0.5167,0.94,1.1867,1.4094,1.6039,1.6353,1.6558,1.6558,1.651,1.6435,1.6341,1.632,1.6388,1.6524,1.6544,1.6707,1.6944,1.6971,1.6978,1.6978,1.6978,1.6978,1.6978,-0.3431,-0.1383,0.0795,0.2886,0.5015,0.6341,0.5687,0.6101,0.6209,0.5685,0.613,0.6455,0.6422,0.6474,0.6474,0.6384,0.6428,0.645,0.6422,0.642,0.6376,0.6284,0.6281,0.6196,0.6016,0.6049,0.6049,0.6014,0.6044,0.609,0.6145,0.6112,0.6134,0.6191,0.6101,0.5903,0.5665,0.542,0.5031,0.4577,0.4027,0.3854,0.3876,0.3347,0.3266,0.3569,0.3619,0.3828,0.4116,0.494,0.545,0.5753,0.636,0.6461,0.6461,0.6461,0.6461,0.6463,0.6466,0.6488,0.6518,0.6545,0.6165,0.5862,0.6416,0.6119,0.5818,0.6373,0.6461,0.6461,0.6461,0.6461,0.6444,0.6387,0.6341,0.633,0.6371,0.6341,0.6352,0.645,0.6461,0.6461,0.6461,0.6461,0.6057,0.4847,0.5753,0.5448,0.333,0.4157,0.4278,0.3377,0.5624,0.8392,1.1706,1.3882,1.5602,1.6646,1.6727,1.6768,1.6768,1.668,1.6564,1.6422,1.6422,1.6463,1.653,1.6612,1.6775,1.6978,1.6978,1.6978,1.6978,1.6978,1.6978,1.6978,-0.2779,-0.0597,0.1499,0.3625,0.5246,0.6158,0.5753,0.6057,0.6158,0.5753,0.6208,0.6523,0.6447,0.6507,0.6521,0.6447,0.6452,0.6461,0.6461,0.6461,0.6414,0.6305,0.6286,0.621,0.6057,0.6142,0.6136,0.6033,0.6076,0.6128,0.6188,0.6142,0.6169,0.6254,0.6161,0.5857,0.5416,0.517,0.4867,0.44,0.3943,0.397,0.4198,0.3484,0.341,0.3713,0.3556,0.3759,0.4242,0.4847,0.5349,0.5954,0.636,0.6461,0.6461,0.6461,0.6472,0.6496,0.6556,0.6572,0.6572,0.6572,0.6286,0.608,0.6403,0.6202,0.6007,0.6371,0.6461,0.6461,0.6461,0.6461,0.6452,0.6422,0.6324,0.6292,0.6403,0.6322,0.6305,0.6444,0.6461,0.6461,0.6461,0.6461,0.6259,0.5652,0.5551,0.5045,0.4035,0.3962,0.4286,0.4804,0.8116,1.0929,1.333,1.5499,1.6714,1.6754,1.6904,1.6978,1.6978,1.6822,1.6666,1.6524,1.6524,1.6524,1.653,1.6686,1.6842,1.6978,1.6978,1.6978,1.6978,1.6978,1.6978,1.6978,-0.0596,0.1501,0.3627,0.5853,0.5954,0.5753,0.5753,0.5753,0.5753,0.5753,0.6208,0.6507,0.639,0.6482,0.6504,0.6387,0.6428,0.6461,0.6461,0.6461,0.6433,0.6368,0.6311,0.6245,0.6177,0.6185,0.6155,0.609,0.6096,0.6128,0.6188,0.6183,0.6185,0.6194,0.6185,0.5896,0.5416,0.4883,0.4408,0.3861,0.3352,0.3203,0.3278,0.3157,0.32,0.3368,0.3851,0.4244,0.4847,0.545,0.5954,0.6461,0.6461,0.6461,0.6461,0.6461,0.6502,0.6559,0.6613,0.663,0.663,0.663,0.6491,0.6454,0.6446,0.6504,0.6466,0.6463,0.6461,0.6461,0.6461,0.6461,0.6425,0.6311,0.0,0.0,0.6308,0.6379,0.6447,0.6461,0.6461,0.6461,0.6461,0.6461,0.6861,0.7757,0.7858,0.7355,0.6246,0.615,0.7184,0.9377,0.9596,1.0866,1.333,1.5398,1.6612,1.6754,1.6904,1.6978,1.6978,1.6822,1.6666,1.6524,1.6524,1.6524,1.653,1.6686,1.6842,1.6978,1.6978,1.6978,1.6978,1.6978,1.6978,1.6978,-0.0401,0.1709,0.3934,0.6158,0.636,0.6057,0.5753,0.5954,0.6057,0.5753,0.6236,0.6572,0.6491,0.6589,0.6613,0.6493,0.6504,0.6502,0.6463,0.6461,0.6433,0.6373,0.6349,0.6289,0.6191,0.6226,0.6196,0.6098,0.6098,0.6147,0.6243,0.6207,0.6229,0.6297,0.6221,0.5705,0.493,0.4978,0.4588,0.3839,0.3676,0.3616,0.3558,0.3308,0.3235,0.335,0.3867,0.416,0.4442,0.5349,0.5853,0.6057,0.636,0.6461,0.6474,0.6548,0.6586,0.6624,0.6722,0.6722,0.6684,0.6646,0.6619,0.6586,0.6512,0.6477,0.6461,0.6461,0.6461,0.6461,0.6461,0.6461,0.6447,0.6401,0.0,0.6401,0.6393,0.6401,0.642,0.6458,0.6461,0.6461,0.6461,0.7364,0.7462,0.6153,0.6956,0.6668,0.4577,0.5857,0.7654,0.9851,1.1297,1.308,1.5415,1.6247,1.6741,1.6897,1.6951,1.6978,1.6978,1.6917,1.6809,1.6666,1.6768,1.6754,1.6673,1.6829,1.6931,1.6978,1.6978,1.6924,1.6849,1.6944,1.6863,1.672,-0.0302,0.2319,0.464,0.6055,0.6259,0.6158,0.5753,0.6055,0.6163,0.5979,0.6354,0.6594,0.6556,0.6624,0.664,0.6559,0.6534,0.6512,0.6491,0.6472,0.6442,0.6401,0.6382,0.6322,0.6218,0.6259,0.6221,0.6098,0.6098,0.6161,0.6278,0.6237,0.6273,0.6365,0.6262,0.5626,0.4737,0.4978,0.449,0.355,0.3597,0.3635,0.3669,0.3329,0.3349,0.355,0.3971,0.4263,0.4643,0.545,0.5853,0.6055,0.636,0.6474,0.651,0.6608,0.6649,0.6687,0.679,0.6774,0.6711,0.6651,0.6635,0.6605,0.6488,0.6461,0.6461,0.6461,0.6461,0.6461,0.6461,0.6461,0.6461,0.6461,0.6425,0.6414,0.6455,0.6425,0.6414,0.6455,0.6461,0.6763,0.7462,0.8367,0.8374,0.6985,0.7068,0.6073,0.3478,0.6236,0.8469,0.9876,1.2839,1.5136,1.6509,1.6659,1.6734,1.6836,1.6883,1.691,1.691,1.691,1.6849,1.6754,1.6863,1.6849,1.6761,1.6917,1.6978,1.6978,1.6978,1.6917,1.6836,1.6944,1.6849,1.6693,0.0,0.3529,0.636,0.5753,0.5753,0.5753,0.5753,0.5753,0.5873,0.644,0.6448,0.6448,0.6448,0.6451,0.6451,0.6448,0.6499,0.6488,0.6548,0.6493,0.6461,0.6461,0.6403,0.6343,0.6281,0.6281,0.6221,0.6098,0.6098,0.6161,0.6281,0.6281,0.6313,0.6368,0.6308,0.5661,0.4737,0.4596,0.4027,0.3097,0.3097,0.315,0.3227,0.32,0.3628,0.4091,0.4052,0.4744,0.5652,0.5753,0.6057,0.6461,0.6461,0.6504,0.6564,0.6619,0.6679,0.6741,0.6801,0.6774,0.6711,0.6651,0.6635,0.6605,0.6488,0.6461,0.6461,0.6461,0.6461,0.6461,0.6461,0.6461,0.6461,0.6461,0.6461,0.6461,0.6461,0.6461,0.6461,0.6461,0.6561,0.7364,0.946,0.9267,0.9605,1.1208,0.8705,0.6075,0.3479,0.7582,0.9979,0.9702,1.4214,1.6612,1.6313,1.6449,1.6524,1.6524,1.6673,1.6748,1.6748,1.6754,1.6754,1.6754,1.6754,1.6754,1.6761,1.6917,1.6978,1.6978,1.6978,1.6978,1.6978,1.6978,1.6978,1.6978,0.0,0.3529,0.6461,0.6259,0.6259,0.6259,0.6259,0.6259,0.6365,0.6485,0.6526,0.6448,0.6448,0.6624,0.664,0.6559,0.6611,0.6621,0.6556,0.6414,0.6352,0.6395,0.6382,0.6363,0.6343,0.63,0.624,0.6161,0.6161,0.6202,0.6281,0.6281,0.6335,0.6431,0.593,0.5583,0.5173,0.4448,0.3956,0.3681,0.334,0.3375,0.3801,0.3715,0.4137,0.4663,0.5053,0.545,0.5753,0.6158,0.636,0.6461,0.6461,0.6504,0.6564,0.6619,0.6679,0.6741,0.6801,0.6774,0.6711,0.6651,0.6608,0.6556,0.648,0.6461,0.6461,0.6461,0.6461,0.6461,0.6461,0.6461,0.6461,0.6461,0.6461,0.6461,0.6461,0.6461,0.6461,0.6461,0.7864,0.8985,0.9751,1.1777,1.1923,0.9471,0.6314,0.4884,0.5727,0.8517,1.0835,1.226,1.5136,1.6612,1.6313,1.6449,1.6524,1.6524,1.6673,1.6748,1.6651,1.6863,1.691,1.691,1.691,1.691,1.6917,1.6965,1.6978,1.6978,1.6978,1.6917,1.6822,1.6822,1.6748,1.6673,0.0,0.3529,0.6461,0.6259,0.636,0.6461,0.6259,0.636,0.6461,0.6461,0.6515,0.6561,0.6583,0.6649,0.6662,0.6591,0.6608,0.6581,0.6485,0.6398,0.6368,0.6403,0.6384,0.636,0.6335,0.6297,0.6262,0.6224,0.6202,0.6232,0.6316,0.6316,0.6368,0.6455,0.5839,0.5406,0.5127,0.4281,0.3789,0.3625,0.3273,0.3493,0.4008,0.403,0.4442,0.5251,0.5551,0.5853,0.6057,0.636,0.6461,0.6461,0.6461,0.6518,0.6591,0.6627,0.6695,0.6766,0.6779,0.6739,0.6676,0.6619,0.6578,0.6542,0.6504,0.648,0.6469,0.6493,0.6477,0.6461,0.6461,0.6461,0.6461,0.6461,0.6461,0.6461,0.6461,0.6461,0.6461,0.6461,0.8492,1.0025,1.0748,1.2403,1.2151,0.925,0.6356,0.5776,0.7967,1.0215,1.1982,1.3227,1.5358,1.6463,1.6225,1.6307,1.6347,1.6347,1.6558,1.6659,1.6666,1.6883,1.6978,1.6978,1.6978,1.6944,1.689,1.689,1.689,1.689,1.689,1.687,1.6836,1.6775,1.6693,1.6619,0.0202,0.363,0.636,0.5853,0.6158,0.636,0.5853,0.6158,0.6461,0.6461,0.6515,0.6572,0.6621,0.6638,0.664,0.663,0.6531,0.645,0.6406,0.6444,0.6466,0.6461,0.6409,0.6349,0.6289,0.6289,0.6289,0.6289,0.6232,0.6262,0.6371,0.6371,0.6401,0.6447,0.5742,0.523,0.477,0.4102,0.3625,0.3288,0.3291,0.3609,0.4038,0.4139,0.4845,0.5753,0.5753,0.6057,0.6461,0.6461,0.6461,0.6461,0.6461,0.6542,0.6635,0.6635,0.6617,0.6698,0.6744,0.6577,0.6518,0.6464,0.6548,0.6542,0.6542,0.6502,0.6477,0.6531,0.6499,0.6463,0.6469,0.6469,0.6472,0.6477,0.6472,0.6469,0.6469,0.6671,0.6769,0.6763,0.8937,1.0978,1.2284,1.1777,1.1028,1.0015,0.8003,0.7872,1.0278,1.236,1.345,1.3449,1.5265,1.6246,1.6103,1.6103,1.6103,1.6103,1.6388,1.653,1.6551,1.6849,1.6978,1.6978,1.6965,1.6876,1.6748,1.6734,1.6727,1.6727,1.6727,1.6822,1.6944,1.6788,1.6734,1.6934,0.2218,0.464,0.6461,0.636,0.6461,0.6461,0.636,0.6461,0.6461,0.6461,0.6515,0.6556,0.657,0.6651,0.667,0.6578,0.6548,0.6567,0.6643,0.6575,0.651,0.6463,0.645,0.6414,0.6352,0.6352,0.6352,0.6352,0.6338,0.6343,0.6371,0.6371,0.6376,0.639,0.537,0.5147,0.5221,0.3955,0.3473,0.3786,0.3814,0.4132,0.4645,0.5148,0.5753,0.636,0.636,0.636,0.6461,0.6461,0.6461,0.6461,0.6461,0.6542,0.6635,0.6635,0.6408,0.6276,0.6639,0.6371,0.6107,0.6362,0.6515,0.648,0.648,0.6472,0.6466,0.6477,0.6472,0.6477,0.6523,0.6531,0.6545,0.6591,0.6561,0.6531,0.6531,0.8052,0.9135,0.897,1.2155,1.444,1.4717,1.2462,1.0717,1.0103,0.8003,0.8579,1.259,1.3236,1.4221,1.5866,1.6137,1.6293,1.6259,1.6259,1.6259,1.6259,1.6435,1.6585,1.6707,1.6897,1.6978,1.6971,1.6849,1.6781,1.6741,1.6619,1.6571,1.6571,1.6571,1.6666,1.6781,1.6625,1.716,1.7967,0.2824,0.4944,0.6461,0.6461,0.6461,0.6461,0.6461,0.6461,0.6461,0.6461,0.6515,0.6561,0.6589,0.6673,0.6703,0.664,0.6608,0.6608,0.664,0.6611,0.6567,0.6507,0.6504,0.6491,0.6458,0.6428,0.6414,0.6414,0.6414,0.6414,0.6414,0.6414,0.6414,0.6412,0.5288,0.4979,0.5076,0.3984,0.3604,0.3632,0.3937,0.4352,0.4876,0.5156,0.5755,0.6461,0.6461,0.6461,0.6461,0.6461,0.6461,0.6461,0.6461,0.6542,0.6532,0.6327,0.6095,0.6058,0.6185,0.6039,0.5896,0.643,0.6485,0.6469,0.6499,0.6482,0.6477,0.6534,0.6523,0.6523,0.6581,0.657,0.657,0.6627,0.6589,0.6561,0.6589,0.8399,0.9779,0.973,1.3094,1.488,1.3418,1.2462,1.1409,1.0157,0.9997,1.1515,1.506,1.4977,1.539,1.6536,1.6429,1.6307,1.6307,1.6374,1.6449,1.6524,1.6592,1.6673,1.6754,1.691,1.6978,1.6971,1.6815,1.6707,1.6625,1.6483,1.6422,1.6429,1.6497,1.6612,1.6741,1.727,1.8318,1.9557,0.3227,0.5246,0.6461,0.6461,0.6461,0.6461,0.6461,0.6461,0.6461,0.6461,0.6523,0.6583,0.6632,0.669,0.673,0.6741,0.6687,0.6635,0.66,0.664,0.6638,0.657,0.6567,0.6556,0.6537,0.6499,0.6472,0.6461,0.6461,0.6466,0.6477,0.6477,0.6472,0.6461,0.5418,0.4915,0.4933,0.4302,0.3726,0.3469,0.3951,0.4462,0.4896,0.5064,0.5654,0.6461,0.6461,0.6461,0.6461,0.6461,0.6461,0.6461,0.6461,0.644,0.6327,0.5913,0.5773,0.5827,0.5838,0.5804,0.5879,0.64,0.6469,0.648,0.6551,0.6521,0.6504,0.6602,0.6591,0.6581,0.6627,0.6608,0.6597,0.6643,0.6613,0.67,0.7058,0.8954,1.0423,1.071,1.3727,1.4672,1.153,1.2283,1.2415,1.0752,1.2449,1.4481,1.6792,1.6659,1.651,1.6483,1.6374,1.6307,1.6307,1.6476,1.6625,1.6748,1.6775,1.6788,1.6795,1.6924,1.6978,1.6971,1.6788,1.6639,1.651,1.6341,1.6273,1.6279,1.6604,1.6742,1.7085,1.8306,1.976,2.108,0.5246,0.6259,0.6461,0.6461,0.6461,0.6461,0.6461,0.6461,0.6461,0.6461,0.6556,0.6627,0.6635,0.669,0.6747,0.6801,0.6749,0.6733,0.6779,0.679,0.6744,0.663,0.6624,0.6578,0.6477,0.6518,0.6512,0.6461,0.6461,0.6488,0.654,0.654,0.6512,0.6463,0.5895,0.5563,0.5386,0.4421,0.3936,0.3946,0.4445,0.475,0.4956,0.5858,0.636,0.6461,0.6461,0.6461,0.6461,0.6461,0.6461,0.6461,0.6461,0.6236,0.5913,0.5812,0.5435,0.5256,0.5722,0.5776,0.584,0.6338,0.6502,0.6491,0.66,0.6581,0.6545,0.6561,0.6597,0.6627,0.6635,0.6673,0.6706,0.6714,0.6709,0.7226,0.8695,1.11,1.3253,1.4565,1.6271,1.6151,1.3053,1.2845,1.2893,1.2827,1.3237,1.4296,1.6482,1.6544,1.6463,1.6341,1.632,1.6307,1.6307,1.6585,1.6727,1.6754,1.6883,1.6951,1.6951,1.6971,1.6978,1.6965,1.668,1.6537,1.6503,1.6225,1.611,1.6216,1.7127,1.7629,1.797,1.9882,2.0759,2.0989,0.5853,0.6461,0.6461,0.6461,0.6461,0.6461,0.6461,0.6461,0.6461,0.6461,0.6537,0.66,0.6632,0.6719,0.6788,0.6815,0.6793,0.6774,0.6769,0.6766,0.6714,0.6594,0.6589,0.6551,0.6463,0.6488,0.6504,0.6512,0.6542,0.6572,0.66,0.66,0.6362,0.6002,0.5823,0.5485,0.5119,0.5038,0.4758,0.4575,0.5057,0.5266,0.539,0.5866,0.6259,0.6461,0.6461,0.6461,0.6461,0.6461,0.6461,0.6461,0.6461,0.6317,0.6178,0.5869,0.5595,0.5521,0.5677,0.575,0.5833,0.6346,0.6507,0.6493,0.6611,0.6616,0.6608,0.6643,0.6643,0.6657,0.6725,0.6703,0.6698,0.6766,0.6749,0.7471,0.9503,1.1673,1.3955,1.6485,1.7006,1.6123,1.3233,1.4059,1.4321,1.3319,1.4408,1.5551,1.6421,1.6442,1.6408,1.6429,1.6429,1.6469,1.6558,1.6768,1.6876,1.6876,1.6951,1.6978,1.6978,1.6978,1.6978,1.6965,1.6653,1.6524,1.6497,1.6205,1.6481,1.7084,1.757,1.8698,1.9957,2.0871,2.1513,2.1904]}]]